<?xml version="1.0" encoding="UTF-8" standalone="no" ?>
<gpx xmlns="http://www.topografix.com/GPX/1/1" xmlns:xsi="http://www.w3.org/2001/XMLSchema-instance" xsi:schemaLocation="http://www.topografix.com/GPX/1/1 http://www.topografix.com/GPX/1/1/gpx.xsd" version="1.1" creator="VisuGPX - https://www.visugpx.com">
  <metadata>
    <name>Balade de 10km à St Patrice de claids </name>
  </metadata>
  <trk>
    <name><![CDATA[Balade de 10km à St Patrice de claids _1]]></name>
    <trkseg>
      <trkpt lat="49.22765" lon="-1.43322">
        <ele>41.4</ele>
        <time>2022-05-24T12:20:01Z</time>
      </trkpt>
      <trkpt lat="49.2276" lon="-1.4332">
        <ele>35.1</ele>
        <time>2022-05-24T12:20:24Z</time>
      </trkpt>
      <trkpt lat="49.22755" lon="-1.43315">
        <ele>34.7</ele>
        <time>2022-05-24T12:20:29Z</time>
      </trkpt>
      <trkpt lat="49.2275" lon="-1.43311">
        <ele>32.8</ele>
        <time>2022-05-24T12:20:43Z</time>
      </trkpt>
      <trkpt lat="49.22745" lon="-1.43309">
        <ele>31.9</ele>
        <time>2022-05-24T12:20:48Z</time>
      </trkpt>
      <trkpt lat="49.2274" lon="-1.43307">
        <ele>31.3</ele>
        <time>2022-05-24T12:20:53Z</time>
      </trkpt>
      <trkpt lat="49.22734" lon="-1.43309">
        <ele>31.2</ele>
        <time>2022-05-24T12:20:57Z</time>
      </trkpt>
      <trkpt lat="49.22733" lon="-1.43317">
        <ele>31</ele>
        <time>2022-05-24T12:21:11Z</time>
      </trkpt>
      <trkpt lat="49.22729" lon="-1.43322">
        <ele>30.7</ele>
        <time>2022-05-24T12:21:16Z</time>
      </trkpt>
      <trkpt lat="49.22726" lon="-1.43328">
        <ele>30.7</ele>
        <time>2022-05-24T12:21:27Z</time>
      </trkpt>
      <trkpt lat="49.22721" lon="-1.43332">
        <ele>30.5</ele>
        <time>2022-05-24T12:21:31Z</time>
      </trkpt>
      <trkpt lat="49.22716" lon="-1.43336">
        <ele>30.3</ele>
        <time>2022-05-24T12:21:36Z</time>
      </trkpt>
      <trkpt lat="49.2271" lon="-1.43333">
        <ele>29.6</ele>
        <time>2022-05-24T12:21:40Z</time>
      </trkpt>
      <trkpt lat="49.22705" lon="-1.43332">
        <ele>29.7</ele>
        <time>2022-05-24T12:21:48Z</time>
      </trkpt>
      <trkpt lat="49.227" lon="-1.4333">
        <ele>29</ele>
        <time>2022-05-24T12:21:58Z</time>
      </trkpt>
      <trkpt lat="49.22696" lon="-1.43334">
        <ele>28.7</ele>
        <time>2022-05-24T12:22:02Z</time>
      </trkpt>
      <trkpt lat="49.22692" lon="-1.43338">
        <ele>28.7</ele>
        <time>2022-05-24T12:22:08Z</time>
      </trkpt>
      <trkpt lat="49.22687" lon="-1.4334">
        <ele>28.4</ele>
        <time>2022-05-24T12:22:11Z</time>
      </trkpt>
      <trkpt lat="49.22683" lon="-1.43338">
        <ele>28</ele>
        <time>2022-05-24T12:22:16Z</time>
      </trkpt>
      <trkpt lat="49.22678" lon="-1.43341">
        <ele>27.8</ele>
        <time>2022-05-24T12:22:23Z</time>
      </trkpt>
      <trkpt lat="49.22674" lon="-1.43345">
        <ele>27.8</ele>
        <time>2022-05-24T12:22:26Z</time>
      </trkpt>
      <trkpt lat="49.22669" lon="-1.43347">
        <ele>27.6</ele>
        <time>2022-05-24T12:22:31Z</time>
      </trkpt>
      <trkpt lat="49.22663" lon="-1.43349">
        <ele>27.3</ele>
        <time>2022-05-24T12:22:36Z</time>
      </trkpt>
      <trkpt lat="49.22657" lon="-1.43349">
        <ele>29.1</ele>
        <time>2022-05-24T12:22:46Z</time>
      </trkpt>
      <trkpt lat="49.22649" lon="-1.43403">
        <ele>27.3</ele>
        <time>2022-05-24T12:23:16Z</time>
      </trkpt>
      <trkpt lat="49.22645" lon="-1.43406">
        <ele>26</ele>
        <time>2022-05-24T12:23:20Z</time>
      </trkpt>
      <trkpt lat="49.22628" lon="-1.43388">
        <ele>22.3</ele>
        <time>2022-05-24T12:23:31Z</time>
      </trkpt>
      <trkpt lat="49.22624" lon="-1.43381">
        <ele>23.2</ele>
        <time>2022-05-24T12:23:34Z</time>
      </trkpt>
      <trkpt lat="49.2262" lon="-1.43376">
        <ele>26.6</ele>
        <time>2022-05-24T12:23:37Z</time>
      </trkpt>
      <trkpt lat="49.2261" lon="-1.43378">
        <ele>26.9</ele>
        <time>2022-05-24T12:23:40Z</time>
      </trkpt>
      <trkpt lat="49.22605" lon="-1.43382">
        <ele>26.6</ele>
        <time>2022-05-24T12:23:45Z</time>
      </trkpt>
      <trkpt lat="49.226" lon="-1.43383">
        <ele>27.3</ele>
        <time>2022-05-24T12:23:49Z</time>
      </trkpt>
      <trkpt lat="49.22595" lon="-1.43383">
        <ele>27.7</ele>
        <time>2022-05-24T12:23:52Z</time>
      </trkpt>
      <trkpt lat="49.22589" lon="-1.43384">
        <ele>28.7</ele>
        <time>2022-05-24T12:23:56Z</time>
      </trkpt>
      <trkpt lat="49.22583" lon="-1.43385">
        <ele>29</ele>
        <time>2022-05-24T12:24:02Z</time>
      </trkpt>
      <trkpt lat="49.22579" lon="-1.43385">
        <ele>37.8</ele>
        <time>2022-05-24T12:24:07Z</time>
      </trkpt>
      <trkpt lat="49.22576" lon="-1.43391">
        <ele>35.9</ele>
        <time>2022-05-24T12:24:19Z</time>
      </trkpt>
      <trkpt lat="49.22573" lon="-1.43397">
        <ele>35.8</ele>
        <time>2022-05-24T12:24:21Z</time>
      </trkpt>
      <trkpt lat="49.22569" lon="-1.43402">
        <ele>35.1</ele>
        <time>2022-05-24T12:24:24Z</time>
      </trkpt>
      <trkpt lat="49.22566" lon="-1.43411">
        <ele>35.2</ele>
        <time>2022-05-24T12:24:27Z</time>
      </trkpt>
      <trkpt lat="49.22563" lon="-1.43417">
        <ele>35.4</ele>
        <time>2022-05-24T12:24:30Z</time>
      </trkpt>
      <trkpt lat="49.22559" lon="-1.43421">
        <ele>36.4</ele>
        <time>2022-05-24T12:24:35Z</time>
      </trkpt>
      <trkpt lat="49.22555" lon="-1.43424">
        <ele>36.3</ele>
        <time>2022-05-24T12:24:42Z</time>
      </trkpt>
      <trkpt lat="49.2255" lon="-1.43429">
        <ele>34.1</ele>
        <time>2022-05-24T12:24:55Z</time>
      </trkpt>
      <trkpt lat="49.22545" lon="-1.43433">
        <ele>35.6</ele>
        <time>2022-05-24T12:24:59Z</time>
      </trkpt>
      <trkpt lat="49.22542" lon="-1.43438">
        <ele>35.6</ele>
        <time>2022-05-24T12:25:02Z</time>
      </trkpt>
      <trkpt lat="49.22538" lon="-1.43444">
        <ele>35.5</ele>
        <time>2022-05-24T12:25:04Z</time>
      </trkpt>
      <trkpt lat="49.22534" lon="-1.4345">
        <ele>34.8</ele>
        <time>2022-05-24T12:25:08Z</time>
      </trkpt>
      <trkpt lat="49.22531" lon="-1.43456">
        <ele>36</ele>
        <time>2022-05-24T12:25:10Z</time>
      </trkpt>
      <trkpt lat="49.22522" lon="-1.43471">
        <ele>37.9</ele>
        <time>2022-05-24T12:25:17Z</time>
      </trkpt>
      <trkpt lat="49.22519" lon="-1.43479">
        <ele>38.3</ele>
        <time>2022-05-24T12:25:22Z</time>
      </trkpt>
      <trkpt lat="49.22516" lon="-1.43486">
        <ele>38.3</ele>
        <time>2022-05-24T12:25:26Z</time>
      </trkpt>
      <trkpt lat="49.22514" lon="-1.43493">
        <ele>37.5</ele>
        <time>2022-05-24T12:25:29Z</time>
      </trkpt>
      <trkpt lat="49.22513" lon="-1.435">
        <ele>37.2</ele>
        <time>2022-05-24T12:25:32Z</time>
      </trkpt>
      <trkpt lat="49.2251" lon="-1.43507">
        <ele>36.5</ele>
        <time>2022-05-24T12:25:35Z</time>
      </trkpt>
      <trkpt lat="49.22506" lon="-1.43511">
        <ele>35.9</ele>
        <time>2022-05-24T12:25:39Z</time>
      </trkpt>
      <trkpt lat="49.225" lon="-1.43515">
        <ele>35.8</ele>
        <time>2022-05-24T12:25:43Z</time>
      </trkpt>
      <trkpt lat="49.22494" lon="-1.43516">
        <ele>36.5</ele>
        <time>2022-05-24T12:25:46Z</time>
      </trkpt>
      <trkpt lat="49.22489" lon="-1.43517">
        <ele>36.1</ele>
        <time>2022-05-24T12:25:51Z</time>
      </trkpt>
      <trkpt lat="49.22484" lon="-1.43521">
        <ele>34.8</ele>
        <time>2022-05-24T12:25:57Z</time>
      </trkpt>
      <trkpt lat="49.22481" lon="-1.43526">
        <ele>35.6</ele>
        <time>2022-05-24T12:26:01Z</time>
      </trkpt>
      <trkpt lat="49.22477" lon="-1.4353">
        <ele>34.3</ele>
        <time>2022-05-24T12:26:05Z</time>
      </trkpt>
      <trkpt lat="49.22473" lon="-1.43535">
        <ele>35.1</ele>
        <time>2022-05-24T12:26:10Z</time>
      </trkpt>
      <trkpt lat="49.22471" lon="-1.43541">
        <ele>35</ele>
        <time>2022-05-24T12:26:14Z</time>
      </trkpt>
      <trkpt lat="49.22467" lon="-1.43546">
        <ele>34.2</ele>
        <time>2022-05-24T12:26:18Z</time>
      </trkpt>
      <trkpt lat="49.22462" lon="-1.43547">
        <ele>33.4</ele>
        <time>2022-05-24T12:26:21Z</time>
      </trkpt>
      <trkpt lat="49.22458" lon="-1.4355">
        <ele>33.3</ele>
        <time>2022-05-24T12:26:24Z</time>
      </trkpt>
      <trkpt lat="49.22453" lon="-1.43551">
        <ele>34.2</ele>
        <time>2022-05-24T12:26:26Z</time>
      </trkpt>
      <trkpt lat="49.22447" lon="-1.43552">
        <ele>34</ele>
        <time>2022-05-24T12:26:30Z</time>
      </trkpt>
      <trkpt lat="49.22442" lon="-1.43552">
        <ele>33.4</ele>
        <time>2022-05-24T12:26:34Z</time>
      </trkpt>
      <trkpt lat="49.22436" lon="-1.43552">
        <ele>33.1</ele>
        <time>2022-05-24T12:26:38Z</time>
      </trkpt>
      <trkpt lat="49.22431" lon="-1.43554">
        <ele>34.3</ele>
        <time>2022-05-24T12:27:05Z</time>
      </trkpt>
      <trkpt lat="49.22426" lon="-1.4355">
        <ele>34.1</ele>
        <time>2022-05-24T12:27:09Z</time>
      </trkpt>
      <trkpt lat="49.22424" lon="-1.43544">
        <ele>33.7</ele>
        <time>2022-05-24T12:27:13Z</time>
      </trkpt>
      <trkpt lat="49.22417" lon="-1.43543">
        <ele>32.9</ele>
        <time>2022-05-24T12:27:18Z</time>
      </trkpt>
      <trkpt lat="49.22411" lon="-1.4354">
        <ele>31.4</ele>
        <time>2022-05-24T12:27:22Z</time>
      </trkpt>
      <trkpt lat="49.22406" lon="-1.43534">
        <ele>31.7</ele>
        <time>2022-05-24T12:27:25Z</time>
      </trkpt>
      <trkpt lat="49.22402" lon="-1.43529">
        <ele>32.3</ele>
        <time>2022-05-24T12:27:29Z</time>
      </trkpt>
      <trkpt lat="49.22399" lon="-1.43524">
        <ele>34.4</ele>
        <time>2022-05-24T12:27:34Z</time>
      </trkpt>
      <trkpt lat="49.22396" lon="-1.43517">
        <ele>34.7</ele>
        <time>2022-05-24T12:27:37Z</time>
      </trkpt>
      <trkpt lat="49.22394" lon="-1.43509">
        <ele>34.6</ele>
        <time>2022-05-24T12:27:41Z</time>
      </trkpt>
      <trkpt lat="49.22391" lon="-1.43503">
        <ele>35.3</ele>
        <time>2022-05-24T12:27:46Z</time>
      </trkpt>
      <trkpt lat="49.22388" lon="-1.43497">
        <ele>35.3</ele>
        <time>2022-05-24T12:27:50Z</time>
      </trkpt>
      <trkpt lat="49.22385" lon="-1.4349">
        <ele>35.3</ele>
        <time>2022-05-24T12:27:54Z</time>
      </trkpt>
      <trkpt lat="49.22383" lon="-1.43484">
        <ele>35.9</ele>
        <time>2022-05-24T12:27:59Z</time>
      </trkpt>
      <trkpt lat="49.22381" lon="-1.43477">
        <ele>34.9</ele>
        <time>2022-05-24T12:28:18Z</time>
      </trkpt>
      <trkpt lat="49.22378" lon="-1.43471">
        <ele>34.8</ele>
        <time>2022-05-24T12:28:22Z</time>
      </trkpt>
      <trkpt lat="49.22378" lon="-1.43462">
        <ele>34.6</ele>
        <time>2022-05-24T12:28:26Z</time>
      </trkpt>
      <trkpt lat="49.22376" lon="-1.43455">
        <ele>34</ele>
        <time>2022-05-24T12:28:31Z</time>
      </trkpt>
      <trkpt lat="49.22332" lon="-1.43439">
        <ele>30.8</ele>
        <time>2022-05-24T12:29:00Z</time>
      </trkpt>
      <trkpt lat="49.2232" lon="-1.43443">
        <ele>28.5</ele>
        <time>2022-05-24T12:29:09Z</time>
      </trkpt>
      <trkpt lat="49.22316" lon="-1.43442">
        <ele>28.2</ele>
        <time>2022-05-24T12:29:12Z</time>
      </trkpt>
      <trkpt lat="49.22311" lon="-1.43438">
        <ele>26.6</ele>
        <time>2022-05-24T12:29:17Z</time>
      </trkpt>
      <trkpt lat="49.22307" lon="-1.43435">
        <ele>26</ele>
        <time>2022-05-24T12:29:20Z</time>
      </trkpt>
      <trkpt lat="49.22302" lon="-1.43431">
        <ele>25.9</ele>
        <time>2022-05-24T12:29:25Z</time>
      </trkpt>
      <trkpt lat="49.22297" lon="-1.43432">
        <ele>26.3</ele>
        <time>2022-05-24T12:29:29Z</time>
      </trkpt>
      <trkpt lat="49.2227" lon="-1.4343">
        <ele>28.6</ele>
        <time>2022-05-24T12:29:50Z</time>
      </trkpt>
      <trkpt lat="49.22265" lon="-1.43436">
        <ele>33.7</ele>
        <time>2022-05-24T12:30:09Z</time>
      </trkpt>
      <trkpt lat="49.22259" lon="-1.43434">
        <ele>33.7</ele>
        <time>2022-05-24T12:30:12Z</time>
      </trkpt>
      <trkpt lat="49.22254" lon="-1.43431">
        <ele>33.9</ele>
        <time>2022-05-24T12:30:16Z</time>
      </trkpt>
      <trkpt lat="49.22249" lon="-1.43435">
        <ele>34.1</ele>
        <time>2022-05-24T12:30:20Z</time>
      </trkpt>
      <trkpt lat="49.22244" lon="-1.43438">
        <ele>33.7</ele>
        <time>2022-05-24T12:30:25Z</time>
      </trkpt>
      <trkpt lat="49.22239" lon="-1.43438">
        <ele>33.2</ele>
        <time>2022-05-24T12:30:29Z</time>
      </trkpt>
      <trkpt lat="49.22233" lon="-1.43438">
        <ele>33.3</ele>
        <time>2022-05-24T12:30:34Z</time>
      </trkpt>
      <trkpt lat="49.22229" lon="-1.43432">
        <ele>33.8</ele>
        <time>2022-05-24T12:30:37Z</time>
      </trkpt>
      <trkpt lat="49.22226" lon="-1.43428">
        <ele>34.1</ele>
        <time>2022-05-24T12:30:45Z</time>
      </trkpt>
      <trkpt lat="49.22221" lon="-1.43429">
        <ele>34</ele>
        <time>2022-05-24T12:31:02Z</time>
      </trkpt>
      <trkpt lat="49.22217" lon="-1.43434">
        <ele>33.2</ele>
        <time>2022-05-24T12:31:06Z</time>
      </trkpt>
      <trkpt lat="49.22212" lon="-1.43433">
        <ele>33.5</ele>
        <time>2022-05-24T12:31:10Z</time>
      </trkpt>
      <trkpt lat="49.22207" lon="-1.43431">
        <ele>33.4</ele>
        <time>2022-05-24T12:31:16Z</time>
      </trkpt>
      <trkpt lat="49.22203" lon="-1.43427">
        <ele>33.3</ele>
        <time>2022-05-24T12:31:20Z</time>
      </trkpt>
      <trkpt lat="49.22198" lon="-1.4342">
        <ele>32.7</ele>
        <time>2022-05-24T12:31:24Z</time>
      </trkpt>
      <trkpt lat="49.22194" lon="-1.43415">
        <ele>32.8</ele>
        <time>2022-05-24T12:31:27Z</time>
      </trkpt>
      <trkpt lat="49.2219" lon="-1.43411">
        <ele>33.2</ele>
        <time>2022-05-24T12:31:32Z</time>
      </trkpt>
      <trkpt lat="49.22185" lon="-1.43411">
        <ele>32.8</ele>
        <time>2022-05-24T12:31:36Z</time>
      </trkpt>
      <trkpt lat="49.22179" lon="-1.4341">
        <ele>32.2</ele>
        <time>2022-05-24T12:31:41Z</time>
      </trkpt>
      <trkpt lat="49.22173" lon="-1.43409">
        <ele>31.3</ele>
        <time>2022-05-24T12:31:44Z</time>
      </trkpt>
      <trkpt lat="49.22168" lon="-1.43408">
        <ele>31.1</ele>
        <time>2022-05-24T12:31:47Z</time>
      </trkpt>
      <trkpt lat="49.22163" lon="-1.43405">
        <ele>30.5</ele>
        <time>2022-05-24T12:31:51Z</time>
      </trkpt>
      <trkpt lat="49.22158" lon="-1.43402">
        <ele>30.2</ele>
        <time>2022-05-24T12:31:55Z</time>
      </trkpt>
      <trkpt lat="49.22154" lon="-1.43401">
        <ele>30.3</ele>
        <time>2022-05-24T12:31:59Z</time>
      </trkpt>
      <trkpt lat="49.22149" lon="-1.43404">
        <ele>29.6</ele>
        <time>2022-05-24T12:32:02Z</time>
      </trkpt>
      <trkpt lat="49.22145" lon="-1.43408">
        <ele>29.5</ele>
        <time>2022-05-24T12:32:05Z</time>
      </trkpt>
      <trkpt lat="49.22141" lon="-1.43411">
        <ele>28.9</ele>
        <time>2022-05-24T12:32:08Z</time>
      </trkpt>
      <trkpt lat="49.22136" lon="-1.43415">
        <ele>29.1</ele>
        <time>2022-05-24T12:32:13Z</time>
      </trkpt>
      <trkpt lat="49.22132" lon="-1.43416">
        <ele>29</ele>
        <time>2022-05-24T12:32:17Z</time>
      </trkpt>
      <trkpt lat="49.22127" lon="-1.43412">
        <ele>28.9</ele>
        <time>2022-05-24T12:32:21Z</time>
      </trkpt>
      <trkpt lat="49.22123" lon="-1.43407">
        <ele>28.6</ele>
        <time>2022-05-24T12:32:24Z</time>
      </trkpt>
      <trkpt lat="49.2212" lon="-1.43401">
        <ele>28.5</ele>
        <time>2022-05-24T12:32:27Z</time>
      </trkpt>
      <trkpt lat="49.22118" lon="-1.43395">
        <ele>30</ele>
        <time>2022-05-24T12:32:30Z</time>
      </trkpt>
      <trkpt lat="49.22114" lon="-1.43387">
        <ele>30.1</ele>
        <time>2022-05-24T12:32:34Z</time>
      </trkpt>
      <trkpt lat="49.22111" lon="-1.4338">
        <ele>30.3</ele>
        <time>2022-05-24T12:32:38Z</time>
      </trkpt>
      <trkpt lat="49.22109" lon="-1.43373">
        <ele>29.7</ele>
        <time>2022-05-24T12:32:42Z</time>
      </trkpt>
      <trkpt lat="49.22107" lon="-1.43367">
        <ele>29.9</ele>
        <time>2022-05-24T12:32:46Z</time>
      </trkpt>
      <trkpt lat="49.22104" lon="-1.4336">
        <ele>29.8</ele>
        <time>2022-05-24T12:32:50Z</time>
      </trkpt>
      <trkpt lat="49.221" lon="-1.43356">
        <ele>29.5</ele>
        <time>2022-05-24T12:32:54Z</time>
      </trkpt>
      <trkpt lat="49.22096" lon="-1.4335">
        <ele>29.2</ele>
        <time>2022-05-24T12:32:58Z</time>
      </trkpt>
      <trkpt lat="49.22092" lon="-1.43344">
        <ele>30</ele>
        <time>2022-05-24T12:33:01Z</time>
      </trkpt>
      <trkpt lat="49.22089" lon="-1.43338">
        <ele>30</ele>
        <time>2022-05-24T12:33:05Z</time>
      </trkpt>
      <trkpt lat="49.22085" lon="-1.43332">
        <ele>32.1</ele>
        <time>2022-05-24T12:33:09Z</time>
      </trkpt>
      <trkpt lat="49.22085" lon="-1.43323">
        <ele>32.3</ele>
        <time>2022-05-24T12:33:14Z</time>
      </trkpt>
      <trkpt lat="49.22084" lon="-1.43314">
        <ele>32.1</ele>
        <time>2022-05-24T12:33:18Z</time>
      </trkpt>
      <trkpt lat="49.22081" lon="-1.43308">
        <ele>31.7</ele>
        <time>2022-05-24T12:33:22Z</time>
      </trkpt>
      <trkpt lat="49.22079" lon="-1.43301">
        <ele>31.2</ele>
        <time>2022-05-24T12:33:27Z</time>
      </trkpt>
      <trkpt lat="49.22077" lon="-1.43293">
        <ele>30.6</ele>
        <time>2022-05-24T12:33:31Z</time>
      </trkpt>
      <trkpt lat="49.22072" lon="-1.43288">
        <ele>31.8</ele>
        <time>2022-05-24T12:33:34Z</time>
      </trkpt>
      <trkpt lat="49.22067" lon="-1.43285">
        <ele>31.7</ele>
        <time>2022-05-24T12:33:42Z</time>
      </trkpt>
      <trkpt lat="49.22065" lon="-1.43277">
        <ele>30.1</ele>
        <time>2022-05-24T12:33:46Z</time>
      </trkpt>
      <trkpt lat="49.22062" lon="-1.43272">
        <ele>29.3</ele>
        <time>2022-05-24T12:33:49Z</time>
      </trkpt>
      <trkpt lat="49.2206" lon="-1.43265">
        <ele>29</ele>
        <time>2022-05-24T12:33:52Z</time>
      </trkpt>
      <trkpt lat="49.22059" lon="-1.43258">
        <ele>29.2</ele>
        <time>2022-05-24T12:33:56Z</time>
      </trkpt>
      <trkpt lat="49.22059" lon="-1.43248">
        <ele>29.1</ele>
        <time>2022-05-24T12:34:01Z</time>
      </trkpt>
      <trkpt lat="49.22055" lon="-1.43241">
        <ele>28.8</ele>
        <time>2022-05-24T12:34:04Z</time>
      </trkpt>
      <trkpt lat="49.22057" lon="-1.43233">
        <ele>28.3</ele>
        <time>2022-05-24T12:34:10Z</time>
      </trkpt>
      <trkpt lat="49.22061" lon="-1.43228">
        <ele>29.7</ele>
        <time>2022-05-24T12:34:16Z</time>
      </trkpt>
      <trkpt lat="49.22065" lon="-1.4323">
        <ele>30.9</ele>
        <time>2022-05-24T12:34:28Z</time>
      </trkpt>
      <trkpt lat="49.2207" lon="-1.43227">
        <ele>31.3</ele>
        <time>2022-05-24T12:34:30Z</time>
      </trkpt>
      <trkpt lat="49.22076" lon="-1.43225">
        <ele>31.1</ele>
        <time>2022-05-24T12:34:35Z</time>
      </trkpt>
      <trkpt lat="49.2208" lon="-1.4322">
        <ele>31.6</ele>
        <time>2022-05-24T12:34:40Z</time>
      </trkpt>
      <trkpt lat="49.22083" lon="-1.43215">
        <ele>32.7</ele>
        <time>2022-05-24T12:34:45Z</time>
      </trkpt>
      <trkpt lat="49.22088" lon="-1.43212">
        <ele>32.5</ele>
        <time>2022-05-24T12:34:48Z</time>
      </trkpt>
      <trkpt lat="49.22092" lon="-1.43208">
        <ele>31.8</ele>
        <time>2022-05-24T12:34:52Z</time>
      </trkpt>
      <trkpt lat="49.22096" lon="-1.43207">
        <ele>30.3</ele>
        <time>2022-05-24T12:34:56Z</time>
      </trkpt>
      <trkpt lat="49.22101" lon="-1.43206">
        <ele>30.2</ele>
        <time>2022-05-24T12:35:00Z</time>
      </trkpt>
      <trkpt lat="49.22106" lon="-1.43203">
        <ele>28.1</ele>
        <time>2022-05-24T12:35:03Z</time>
      </trkpt>
      <trkpt lat="49.22111" lon="-1.43206">
        <ele>25.9</ele>
        <time>2022-05-24T12:35:08Z</time>
      </trkpt>
      <trkpt lat="49.22115" lon="-1.43202">
        <ele>25.5</ele>
        <time>2022-05-24T12:35:18Z</time>
      </trkpt>
      <trkpt lat="49.2212" lon="-1.432">
        <ele>25</ele>
        <time>2022-05-24T12:35:22Z</time>
      </trkpt>
      <trkpt lat="49.22124" lon="-1.43195">
        <ele>25.3</ele>
        <time>2022-05-24T12:35:26Z</time>
      </trkpt>
      <trkpt lat="49.22126" lon="-1.43189">
        <ele>26.2</ele>
        <time>2022-05-24T12:35:30Z</time>
      </trkpt>
      <trkpt lat="49.22127" lon="-1.43181">
        <ele>25.9</ele>
        <time>2022-05-24T12:35:34Z</time>
      </trkpt>
      <trkpt lat="49.22129" lon="-1.43189">
        <ele>26.7</ele>
        <time>2022-05-24T12:36:06Z</time>
      </trkpt>
      <trkpt lat="49.22134" lon="-1.43191">
        <ele>27</ele>
        <time>2022-05-24T12:36:10Z</time>
      </trkpt>
      <trkpt lat="49.2214" lon="-1.43192">
        <ele>26.9</ele>
        <time>2022-05-24T12:36:14Z</time>
      </trkpt>
      <trkpt lat="49.22145" lon="-1.43193">
        <ele>28.2</ele>
        <time>2022-05-24T12:36:18Z</time>
      </trkpt>
      <trkpt lat="49.2215" lon="-1.43189">
        <ele>28.4</ele>
        <time>2022-05-24T12:36:21Z</time>
      </trkpt>
      <trkpt lat="49.22154" lon="-1.43184">
        <ele>29</ele>
        <time>2022-05-24T12:36:24Z</time>
      </trkpt>
      <trkpt lat="49.22159" lon="-1.43181">
        <ele>28.9</ele>
        <time>2022-05-24T12:36:28Z</time>
      </trkpt>
      <trkpt lat="49.22163" lon="-1.43179">
        <ele>28.9</ele>
        <time>2022-05-24T12:36:31Z</time>
      </trkpt>
      <trkpt lat="49.22169" lon="-1.43176">
        <ele>29.8</ele>
        <time>2022-05-24T12:36:36Z</time>
      </trkpt>
      <trkpt lat="49.22173" lon="-1.43174">
        <ele>31.5</ele>
        <time>2022-05-24T12:36:41Z</time>
      </trkpt>
      <trkpt lat="49.22178" lon="-1.4317">
        <ele>32.9</ele>
        <time>2022-05-24T12:36:46Z</time>
      </trkpt>
      <trkpt lat="49.22184" lon="-1.43167">
        <ele>32.9</ele>
        <time>2022-05-24T12:36:50Z</time>
      </trkpt>
      <trkpt lat="49.22188" lon="-1.43164">
        <ele>33.1</ele>
        <time>2022-05-24T12:36:53Z</time>
      </trkpt>
      <trkpt lat="49.22192" lon="-1.4316">
        <ele>32.8</ele>
        <time>2022-05-24T12:36:58Z</time>
      </trkpt>
      <trkpt lat="49.22197" lon="-1.43156">
        <ele>32.4</ele>
        <time>2022-05-24T12:37:02Z</time>
      </trkpt>
      <trkpt lat="49.22202" lon="-1.43154">
        <ele>32.9</ele>
        <time>2022-05-24T12:37:08Z</time>
      </trkpt>
      <trkpt lat="49.22208" lon="-1.43153">
        <ele>33.1</ele>
        <time>2022-05-24T12:37:12Z</time>
      </trkpt>
      <trkpt lat="49.22213" lon="-1.43151">
        <ele>32.8</ele>
        <time>2022-05-24T12:37:17Z</time>
      </trkpt>
      <trkpt lat="49.22219" lon="-1.43149">
        <ele>33.6</ele>
        <time>2022-05-24T12:37:21Z</time>
      </trkpt>
      <trkpt lat="49.22223" lon="-1.43147">
        <ele>33.7</ele>
        <time>2022-05-24T12:37:25Z</time>
      </trkpt>
      <trkpt lat="49.22228" lon="-1.43147">
        <ele>34.3</ele>
        <time>2022-05-24T12:37:28Z</time>
      </trkpt>
      <trkpt lat="49.22233" lon="-1.43147">
        <ele>37.6</ele>
        <time>2022-05-24T12:37:43Z</time>
      </trkpt>
      <trkpt lat="49.22234" lon="-1.4314">
        <ele>38.5</ele>
        <time>2022-05-24T12:38:37Z</time>
      </trkpt>
      <trkpt lat="49.22227" lon="-1.43142">
        <ele>39.8</ele>
        <time>2022-05-24T12:38:40Z</time>
      </trkpt>
      <trkpt lat="49.22223" lon="-1.43144">
        <ele>44.7</ele>
        <time>2022-05-24T12:38:47Z</time>
      </trkpt>
      <trkpt lat="49.22227" lon="-1.43142">
        <ele>44</ele>
        <time>2022-05-24T12:38:52Z</time>
      </trkpt>
      <trkpt lat="49.22233" lon="-1.43143">
        <ele>46.1</ele>
        <time>2022-05-24T12:38:57Z</time>
      </trkpt>
      <trkpt lat="49.22239" lon="-1.43142">
        <ele>45.4</ele>
        <time>2022-05-24T12:39:01Z</time>
      </trkpt>
      <trkpt lat="49.22244" lon="-1.4314">
        <ele>44.9</ele>
        <time>2022-05-24T12:39:05Z</time>
      </trkpt>
      <trkpt lat="49.2226" lon="-1.43132">
        <ele>43.5</ele>
        <time>2022-05-24T12:39:12Z</time>
      </trkpt>
      <trkpt lat="49.22264" lon="-1.43129">
        <ele>43.3</ele>
        <time>2022-05-24T12:39:17Z</time>
      </trkpt>
      <trkpt lat="49.22267" lon="-1.43125">
        <ele>43.2</ele>
        <time>2022-05-24T12:39:35Z</time>
      </trkpt>
      <trkpt lat="49.22273" lon="-1.43121">
        <ele>41.8</ele>
        <time>2022-05-24T12:39:46Z</time>
      </trkpt>
      <trkpt lat="49.22277" lon="-1.43119">
        <ele>41.2</ele>
        <time>2022-05-24T12:39:49Z</time>
      </trkpt>
      <trkpt lat="49.22281" lon="-1.43115">
        <ele>41.2</ele>
        <time>2022-05-24T12:39:51Z</time>
      </trkpt>
      <trkpt lat="49.22307" lon="-1.43099">
        <ele>40.6</ele>
        <time>2022-05-24T12:40:07Z</time>
      </trkpt>
      <trkpt lat="49.22311" lon="-1.43094">
        <ele>40.3</ele>
        <time>2022-05-24T12:40:12Z</time>
      </trkpt>
      <trkpt lat="49.22316" lon="-1.4309">
        <ele>39.8</ele>
        <time>2022-05-24T12:40:16Z</time>
      </trkpt>
      <trkpt lat="49.22322" lon="-1.43089">
        <ele>39.3</ele>
        <time>2022-05-24T12:40:19Z</time>
      </trkpt>
      <trkpt lat="49.22328" lon="-1.43089">
        <ele>40.9</ele>
        <time>2022-05-24T12:40:25Z</time>
      </trkpt>
      <trkpt lat="49.22333" lon="-1.43088">
        <ele>40</ele>
        <time>2022-05-24T12:40:41Z</time>
      </trkpt>
      <trkpt lat="49.22339" lon="-1.43084">
        <ele>40.1</ele>
        <time>2022-05-24T12:40:54Z</time>
      </trkpt>
      <trkpt lat="49.22344" lon="-1.43081">
        <ele>40.1</ele>
        <time>2022-05-24T12:40:56Z</time>
      </trkpt>
      <trkpt lat="49.2235" lon="-1.4308">
        <ele>39.7</ele>
        <time>2022-05-24T12:40:59Z</time>
      </trkpt>
      <trkpt lat="49.22355" lon="-1.43079">
        <ele>39</ele>
        <time>2022-05-24T12:41:01Z</time>
      </trkpt>
      <trkpt lat="49.22361" lon="-1.43076">
        <ele>38.1</ele>
        <time>2022-05-24T12:41:05Z</time>
      </trkpt>
      <trkpt lat="49.22373" lon="-1.43067">
        <ele>38.5</ele>
        <time>2022-05-24T12:41:10Z</time>
      </trkpt>
      <trkpt lat="49.22377" lon="-1.43064">
        <ele>38.6</ele>
        <time>2022-05-24T12:41:12Z</time>
      </trkpt>
      <trkpt lat="49.22382" lon="-1.43059">
        <ele>38.4</ele>
        <time>2022-05-24T12:41:15Z</time>
      </trkpt>
      <trkpt lat="49.22388" lon="-1.43055">
        <ele>37.3</ele>
        <time>2022-05-24T12:41:19Z</time>
      </trkpt>
      <trkpt lat="49.22392" lon="-1.43051">
        <ele>36.9</ele>
        <time>2022-05-24T12:41:21Z</time>
      </trkpt>
      <trkpt lat="49.22397" lon="-1.43047">
        <ele>35.8</ele>
        <time>2022-05-24T12:41:25Z</time>
      </trkpt>
      <trkpt lat="49.22402" lon="-1.43047">
        <ele>34.6</ele>
        <time>2022-05-24T12:41:29Z</time>
      </trkpt>
      <trkpt lat="49.22408" lon="-1.43047">
        <ele>35</ele>
        <time>2022-05-24T12:41:32Z</time>
      </trkpt>
      <trkpt lat="49.22412" lon="-1.43044">
        <ele>34.1</ele>
        <time>2022-05-24T12:41:37Z</time>
      </trkpt>
      <trkpt lat="49.22417" lon="-1.4304">
        <ele>33.3</ele>
        <time>2022-05-24T12:41:40Z</time>
      </trkpt>
      <trkpt lat="49.22422" lon="-1.43037">
        <ele>33.1</ele>
        <time>2022-05-24T12:41:45Z</time>
      </trkpt>
      <trkpt lat="49.22428" lon="-1.43035">
        <ele>34</ele>
        <time>2022-05-24T12:41:48Z</time>
      </trkpt>
      <trkpt lat="49.22433" lon="-1.43033">
        <ele>34.1</ele>
        <time>2022-05-24T12:41:52Z</time>
      </trkpt>
      <trkpt lat="49.22437" lon="-1.4303">
        <ele>33.1</ele>
        <time>2022-05-24T12:41:55Z</time>
      </trkpt>
      <trkpt lat="49.22442" lon="-1.43028">
        <ele>32.9</ele>
        <time>2022-05-24T12:41:58Z</time>
      </trkpt>
      <trkpt lat="49.22446" lon="-1.43025">
        <ele>33.2</ele>
        <time>2022-05-24T12:42:02Z</time>
      </trkpt>
      <trkpt lat="49.22451" lon="-1.43025">
        <ele>34.4</ele>
        <time>2022-05-24T12:42:05Z</time>
      </trkpt>
      <trkpt lat="49.22457" lon="-1.43024">
        <ele>33.8</ele>
        <time>2022-05-24T12:42:09Z</time>
      </trkpt>
      <trkpt lat="49.22463" lon="-1.43022">
        <ele>32.9</ele>
        <time>2022-05-24T12:42:14Z</time>
      </trkpt>
      <trkpt lat="49.22468" lon="-1.4302">
        <ele>34.7</ele>
        <time>2022-05-24T12:42:22Z</time>
      </trkpt>
      <trkpt lat="49.22473" lon="-1.43019">
        <ele>33.9</ele>
        <time>2022-05-24T12:42:32Z</time>
      </trkpt>
      <trkpt lat="49.22478" lon="-1.43013">
        <ele>33.5</ele>
        <time>2022-05-24T12:42:38Z</time>
      </trkpt>
      <trkpt lat="49.22483" lon="-1.4301">
        <ele>33.6</ele>
        <time>2022-05-24T12:42:41Z</time>
      </trkpt>
      <trkpt lat="49.22488" lon="-1.43008">
        <ele>33.7</ele>
        <time>2022-05-24T12:42:44Z</time>
      </trkpt>
      <trkpt lat="49.22493" lon="-1.43005">
        <ele>32.8</ele>
        <time>2022-05-24T12:42:47Z</time>
      </trkpt>
      <trkpt lat="49.22498" lon="-1.43001">
        <ele>32.2</ele>
        <time>2022-05-24T12:42:54Z</time>
      </trkpt>
      <trkpt lat="49.22503" lon="-1.42997">
        <ele>31.9</ele>
        <time>2022-05-24T12:42:59Z</time>
      </trkpt>
      <trkpt lat="49.22507" lon="-1.42994">
        <ele>31.6</ele>
        <time>2022-05-24T12:43:02Z</time>
      </trkpt>
      <trkpt lat="49.22514" lon="-1.42993">
        <ele>33.5</ele>
        <time>2022-05-24T12:43:08Z</time>
      </trkpt>
      <trkpt lat="49.22518" lon="-1.42989">
        <ele>32.3</ele>
        <time>2022-05-24T12:43:24Z</time>
      </trkpt>
      <trkpt lat="49.22523" lon="-1.42986">
        <ele>32.9</ele>
        <time>2022-05-24T12:43:27Z</time>
      </trkpt>
      <trkpt lat="49.22529" lon="-1.42988">
        <ele>31.5</ele>
        <time>2022-05-24T12:43:31Z</time>
      </trkpt>
      <trkpt lat="49.22531" lon="-1.42994">
        <ele>30.1</ele>
        <time>2022-05-24T12:43:34Z</time>
      </trkpt>
      <trkpt lat="49.22534" lon="-1.42999">
        <ele>29.4</ele>
        <time>2022-05-24T12:43:37Z</time>
      </trkpt>
      <trkpt lat="49.22538" lon="-1.43004">
        <ele>29.4</ele>
        <time>2022-05-24T12:43:40Z</time>
      </trkpt>
      <trkpt lat="49.22544" lon="-1.43011">
        <ele>30.2</ele>
        <time>2022-05-24T12:43:43Z</time>
      </trkpt>
      <trkpt lat="49.22548" lon="-1.43017">
        <ele>30.9</ele>
        <time>2022-05-24T12:43:48Z</time>
      </trkpt>
      <trkpt lat="49.22552" lon="-1.43022">
        <ele>30.5</ele>
        <time>2022-05-24T12:43:51Z</time>
      </trkpt>
      <trkpt lat="49.22556" lon="-1.43027">
        <ele>29.3</ele>
        <time>2022-05-24T12:43:55Z</time>
      </trkpt>
      <trkpt lat="49.2256" lon="-1.43034">
        <ele>29.5</ele>
        <time>2022-05-24T12:43:59Z</time>
      </trkpt>
      <trkpt lat="49.22563" lon="-1.43038">
        <ele>30.6</ele>
        <time>2022-05-24T12:44:07Z</time>
      </trkpt>
      <trkpt lat="49.22567" lon="-1.43044">
        <ele>31.1</ele>
        <time>2022-05-24T12:44:12Z</time>
      </trkpt>
      <trkpt lat="49.2257" lon="-1.4305">
        <ele>30.6</ele>
        <time>2022-05-24T12:44:16Z</time>
      </trkpt>
      <trkpt lat="49.22573" lon="-1.43056">
        <ele>30.4</ele>
        <time>2022-05-24T12:44:20Z</time>
      </trkpt>
      <trkpt lat="49.22579" lon="-1.43058">
        <ele>32.8</ele>
        <time>2022-05-24T12:44:27Z</time>
      </trkpt>
      <trkpt lat="49.22583" lon="-1.43062">
        <ele>33.9</ele>
        <time>2022-05-24T12:44:30Z</time>
      </trkpt>
      <trkpt lat="49.22586" lon="-1.43068">
        <ele>34.6</ele>
        <time>2022-05-24T12:44:33Z</time>
      </trkpt>
      <trkpt lat="49.22589" lon="-1.43074">
        <ele>35</ele>
        <time>2022-05-24T12:44:36Z</time>
      </trkpt>
      <trkpt lat="49.22594" lon="-1.43081">
        <ele>34.2</ele>
        <time>2022-05-24T12:44:41Z</time>
      </trkpt>
      <trkpt lat="49.22599" lon="-1.43084">
        <ele>33.8</ele>
        <time>2022-05-24T12:44:45Z</time>
      </trkpt>
      <trkpt lat="49.22604" lon="-1.43086">
        <ele>33.8</ele>
        <time>2022-05-24T12:44:47Z</time>
      </trkpt>
      <trkpt lat="49.22609" lon="-1.43088">
        <ele>33.8</ele>
        <time>2022-05-24T12:44:51Z</time>
      </trkpt>
      <trkpt lat="49.22614" lon="-1.43089">
        <ele>34.1</ele>
        <time>2022-05-24T12:44:56Z</time>
      </trkpt>
      <trkpt lat="49.22619" lon="-1.43094">
        <ele>34.1</ele>
        <time>2022-05-24T12:45:00Z</time>
      </trkpt>
      <trkpt lat="49.22622" lon="-1.43099">
        <ele>34.5</ele>
        <time>2022-05-24T12:45:03Z</time>
      </trkpt>
      <trkpt lat="49.22625" lon="-1.43107">
        <ele>34.5</ele>
        <time>2022-05-24T12:45:06Z</time>
      </trkpt>
      <trkpt lat="49.22628" lon="-1.43113">
        <ele>34.9</ele>
        <time>2022-05-24T12:45:09Z</time>
      </trkpt>
      <trkpt lat="49.22631" lon="-1.43118">
        <ele>35.1</ele>
        <time>2022-05-24T12:45:13Z</time>
      </trkpt>
      <trkpt lat="49.22635" lon="-1.43124">
        <ele>34.3</ele>
        <time>2022-05-24T12:45:17Z</time>
      </trkpt>
      <trkpt lat="49.22637" lon="-1.43131">
        <ele>35</ele>
        <time>2022-05-24T12:45:21Z</time>
      </trkpt>
      <trkpt lat="49.2264" lon="-1.43139">
        <ele>34.8</ele>
        <time>2022-05-24T12:45:25Z</time>
      </trkpt>
      <trkpt lat="49.22641" lon="-1.43147">
        <ele>34.6</ele>
        <time>2022-05-24T12:45:30Z</time>
      </trkpt>
      <trkpt lat="49.22642" lon="-1.43154">
        <ele>34.5</ele>
        <time>2022-05-24T12:45:34Z</time>
      </trkpt>
      <trkpt lat="49.22643" lon="-1.43163">
        <ele>34.8</ele>
        <time>2022-05-24T12:45:38Z</time>
      </trkpt>
      <trkpt lat="49.22645" lon="-1.43169">
        <ele>34.6</ele>
        <time>2022-05-24T12:45:42Z</time>
      </trkpt>
      <trkpt lat="49.22647" lon="-1.43177">
        <ele>35.3</ele>
        <time>2022-05-24T12:45:47Z</time>
      </trkpt>
      <trkpt lat="49.22647" lon="-1.43185">
        <ele>33.9</ele>
        <time>2022-05-24T12:45:52Z</time>
      </trkpt>
      <trkpt lat="49.22647" lon="-1.43193">
        <ele>34.2</ele>
        <time>2022-05-24T12:45:56Z</time>
      </trkpt>
      <trkpt lat="49.22651" lon="-1.432">
        <ele>34.6</ele>
        <time>2022-05-24T12:46:02Z</time>
      </trkpt>
      <trkpt lat="49.22652" lon="-1.43207">
        <ele>34.6</ele>
        <time>2022-05-24T12:46:13Z</time>
      </trkpt>
      <trkpt lat="49.22657" lon="-1.43219">
        <ele>34.9</ele>
        <time>2022-05-24T12:46:18Z</time>
      </trkpt>
      <trkpt lat="49.22659" lon="-1.43226">
        <ele>35.1</ele>
        <time>2022-05-24T12:46:20Z</time>
      </trkpt>
      <trkpt lat="49.22666" lon="-1.4324">
        <ele>36.2</ele>
        <time>2022-05-24T12:46:26Z</time>
      </trkpt>
      <trkpt lat="49.22669" lon="-1.43246">
        <ele>36.4</ele>
        <time>2022-05-24T12:46:29Z</time>
      </trkpt>
      <trkpt lat="49.22674" lon="-1.4325">
        <ele>37.4</ele>
        <time>2022-05-24T12:46:33Z</time>
      </trkpt>
      <trkpt lat="49.22678" lon="-1.43252">
        <ele>37.2</ele>
        <time>2022-05-24T12:46:36Z</time>
      </trkpt>
      <trkpt lat="49.22684" lon="-1.43256">
        <ele>36.9</ele>
        <time>2022-05-24T12:46:41Z</time>
      </trkpt>
      <trkpt lat="49.22699" lon="-1.43269">
        <ele>35.6</ele>
        <time>2022-05-24T12:46:53Z</time>
      </trkpt>
      <trkpt lat="49.22703" lon="-1.43276">
        <ele>35.2</ele>
        <time>2022-05-24T12:46:56Z</time>
      </trkpt>
      <trkpt lat="49.22732" lon="-1.43297">
        <ele>36.7</ele>
        <time>2022-05-24T12:47:15Z</time>
      </trkpt>
      <trkpt lat="49.22735" lon="-1.43302">
        <ele>35.2</ele>
        <time>2022-05-24T12:47:43Z</time>
      </trkpt>
      <trkpt lat="49.22742" lon="-1.43307">
        <ele>35.9</ele>
        <time>2022-05-24T12:47:48Z</time>
      </trkpt>
      <trkpt lat="49.22746" lon="-1.43309">
        <ele>35.6</ele>
        <time>2022-05-24T12:47:50Z</time>
      </trkpt>
      <trkpt lat="49.22751" lon="-1.43312">
        <ele>36.6</ele>
        <time>2022-05-24T12:47:52Z</time>
      </trkpt>
      <trkpt lat="49.22756" lon="-1.43315">
        <ele>36</ele>
        <time>2022-05-24T12:47:55Z</time>
      </trkpt>
      <trkpt lat="49.22761" lon="-1.43317">
        <ele>36.1</ele>
        <time>2022-05-24T12:47:57Z</time>
      </trkpt>
      <trkpt lat="49.22767" lon="-1.43318">
        <ele>36.3</ele>
        <time>2022-05-24T12:47:59Z</time>
      </trkpt>
      <trkpt lat="49.22773" lon="-1.4332">
        <ele>36.1</ele>
        <time>2022-05-24T12:48:01Z</time>
      </trkpt>
      <trkpt lat="49.22779" lon="-1.43319">
        <ele>36.2</ele>
        <time>2022-05-24T12:48:04Z</time>
      </trkpt>
      <trkpt lat="49.22784" lon="-1.43317">
        <ele>36</ele>
        <time>2022-05-24T12:48:06Z</time>
      </trkpt>
      <trkpt lat="49.2279" lon="-1.43314">
        <ele>35.5</ele>
        <time>2022-05-24T12:48:08Z</time>
      </trkpt>
      <trkpt lat="49.22795" lon="-1.43313">
        <ele>34.9</ele>
        <time>2022-05-24T12:48:11Z</time>
      </trkpt>
      <trkpt lat="49.22799" lon="-1.43311">
        <ele>34.4</ele>
        <time>2022-05-24T12:48:14Z</time>
      </trkpt>
      <trkpt lat="49.22806" lon="-1.43313">
        <ele>33.3</ele>
        <time>2022-05-24T12:48:34Z</time>
      </trkpt>
      <trkpt lat="49.22813" lon="-1.43302">
        <ele>33.7</ele>
        <time>2022-05-24T12:48:38Z</time>
      </trkpt>
      <trkpt lat="49.22818" lon="-1.433">
        <ele>33.9</ele>
        <time>2022-05-24T12:48:42Z</time>
      </trkpt>
      <trkpt lat="49.22823" lon="-1.43298">
        <ele>33.7</ele>
        <time>2022-05-24T12:48:46Z</time>
      </trkpt>
      <trkpt lat="49.22828" lon="-1.43295">
        <ele>34.1</ele>
        <time>2022-05-24T12:48:50Z</time>
      </trkpt>
      <trkpt lat="49.22833" lon="-1.43292">
        <ele>34.3</ele>
        <time>2022-05-24T12:48:53Z</time>
      </trkpt>
      <trkpt lat="49.22837" lon="-1.43289">
        <ele>34.5</ele>
        <time>2022-05-24T12:48:56Z</time>
      </trkpt>
      <trkpt lat="49.22842" lon="-1.43285">
        <ele>34.4</ele>
        <time>2022-05-24T12:49:01Z</time>
      </trkpt>
      <trkpt lat="49.22846" lon="-1.43281">
        <ele>34.6</ele>
        <time>2022-05-24T12:49:05Z</time>
      </trkpt>
      <trkpt lat="49.2285" lon="-1.43276">
        <ele>35.1</ele>
        <time>2022-05-24T12:49:09Z</time>
      </trkpt>
      <trkpt lat="49.22854" lon="-1.43273">
        <ele>34.8</ele>
        <time>2022-05-24T12:49:13Z</time>
      </trkpt>
      <trkpt lat="49.22861" lon="-1.43271">
        <ele>33.6</ele>
        <time>2022-05-24T12:49:17Z</time>
      </trkpt>
      <trkpt lat="49.22866" lon="-1.43272">
        <ele>33.5</ele>
        <time>2022-05-24T12:49:21Z</time>
      </trkpt>
      <trkpt lat="49.22864" lon="-1.43279">
        <ele>32.9</ele>
        <time>2022-05-24T12:49:36Z</time>
      </trkpt>
      <trkpt lat="49.22868" lon="-1.43274">
        <ele>32.2</ele>
        <time>2022-05-24T12:49:46Z</time>
      </trkpt>
      <trkpt lat="49.22874" lon="-1.43271">
        <ele>32.2</ele>
        <time>2022-05-24T12:49:51Z</time>
      </trkpt>
      <trkpt lat="49.22911" lon="-1.43252">
        <ele>31.9</ele>
        <time>2022-05-24T12:50:14Z</time>
      </trkpt>
      <trkpt lat="49.22915" lon="-1.43249">
        <ele>31.9</ele>
        <time>2022-05-24T12:50:18Z</time>
      </trkpt>
      <trkpt lat="49.22921" lon="-1.43245">
        <ele>32.1</ele>
        <time>2022-05-24T12:50:22Z</time>
      </trkpt>
      <trkpt lat="49.22926" lon="-1.43244">
        <ele>32.9</ele>
        <time>2022-05-24T12:50:26Z</time>
      </trkpt>
      <trkpt lat="49.22932" lon="-1.4324">
        <ele>32.9</ele>
        <time>2022-05-24T12:50:30Z</time>
      </trkpt>
      <trkpt lat="49.22937" lon="-1.43238">
        <ele>33.2</ele>
        <time>2022-05-24T12:50:33Z</time>
      </trkpt>
      <trkpt lat="49.22941" lon="-1.43235">
        <ele>33.2</ele>
        <time>2022-05-24T12:50:37Z</time>
      </trkpt>
      <trkpt lat="49.22946" lon="-1.43231">
        <ele>33</ele>
        <time>2022-05-24T12:50:42Z</time>
      </trkpt>
      <trkpt lat="49.2295" lon="-1.43228">
        <ele>32.8</ele>
        <time>2022-05-24T12:50:46Z</time>
      </trkpt>
      <trkpt lat="49.22955" lon="-1.43227">
        <ele>32.4</ele>
        <time>2022-05-24T12:50:50Z</time>
      </trkpt>
      <trkpt lat="49.22954" lon="-1.43235">
        <ele>32.4</ele>
        <time>2022-05-24T12:50:56Z</time>
      </trkpt>
      <trkpt lat="49.22951" lon="-1.43241">
        <ele>32</ele>
        <time>2022-05-24T12:51:01Z</time>
      </trkpt>
      <trkpt lat="49.22954" lon="-1.43234">
        <ele>30.4</ele>
        <time>2022-05-24T12:51:42Z</time>
      </trkpt>
      <trkpt lat="49.22958" lon="-1.43229">
        <ele>30.3</ele>
        <time>2022-05-24T12:51:46Z</time>
      </trkpt>
      <trkpt lat="49.22963" lon="-1.43227">
        <ele>30.1</ele>
        <time>2022-05-24T12:51:49Z</time>
      </trkpt>
      <trkpt lat="49.22968" lon="-1.43224">
        <ele>29.7</ele>
        <time>2022-05-24T12:51:52Z</time>
      </trkpt>
      <trkpt lat="49.22972" lon="-1.43219">
        <ele>29.3</ele>
        <time>2022-05-24T12:51:55Z</time>
      </trkpt>
      <trkpt lat="49.22977" lon="-1.43217">
        <ele>29.3</ele>
        <time>2022-05-24T12:51:59Z</time>
      </trkpt>
      <trkpt lat="49.22983" lon="-1.43213">
        <ele>30.1</ele>
        <time>2022-05-24T12:52:03Z</time>
      </trkpt>
      <trkpt lat="49.22987" lon="-1.43212">
        <ele>31.8</ele>
        <time>2022-05-24T12:52:18Z</time>
      </trkpt>
      <trkpt lat="49.22992" lon="-1.43208">
        <ele>31.9</ele>
        <time>2022-05-24T12:52:22Z</time>
      </trkpt>
      <trkpt lat="49.22997" lon="-1.43207">
        <ele>31.7</ele>
        <time>2022-05-24T12:52:31Z</time>
      </trkpt>
      <trkpt lat="49.23002" lon="-1.43203">
        <ele>31.5</ele>
        <time>2022-05-24T12:52:35Z</time>
      </trkpt>
      <trkpt lat="49.23007" lon="-1.43199">
        <ele>31.1</ele>
        <time>2022-05-24T12:52:38Z</time>
      </trkpt>
      <trkpt lat="49.23009" lon="-1.43192">
        <ele>31.8</ele>
        <time>2022-05-24T12:52:41Z</time>
      </trkpt>
      <trkpt lat="49.23012" lon="-1.43185">
        <ele>32.1</ele>
        <time>2022-05-24T12:52:46Z</time>
      </trkpt>
      <trkpt lat="49.23017" lon="-1.43179">
        <ele>31.8</ele>
        <time>2022-05-24T12:52:50Z</time>
      </trkpt>
      <trkpt lat="49.23021" lon="-1.43174">
        <ele>33.6</ele>
        <time>2022-05-24T12:52:54Z</time>
      </trkpt>
      <trkpt lat="49.23023" lon="-1.43167">
        <ele>33</ele>
        <time>2022-05-24T12:52:57Z</time>
      </trkpt>
      <trkpt lat="49.23026" lon="-1.43161">
        <ele>32.5</ele>
        <time>2022-05-24T12:53:02Z</time>
      </trkpt>
      <trkpt lat="49.23029" lon="-1.43153">
        <ele>32.4</ele>
        <time>2022-05-24T12:53:16Z</time>
      </trkpt>
      <trkpt lat="49.23032" lon="-1.43145">
        <ele>32.1</ele>
        <time>2022-05-24T12:53:19Z</time>
      </trkpt>
      <trkpt lat="49.23035" lon="-1.43138">
        <ele>31.4</ele>
        <time>2022-05-24T12:53:23Z</time>
      </trkpt>
      <trkpt lat="49.23038" lon="-1.43132">
        <ele>31.7</ele>
        <time>2022-05-24T12:53:26Z</time>
      </trkpt>
      <trkpt lat="49.23041" lon="-1.43125">
        <ele>31.5</ele>
        <time>2022-05-24T12:53:30Z</time>
      </trkpt>
      <trkpt lat="49.23044" lon="-1.4312">
        <ele>31.7</ele>
        <time>2022-05-24T12:53:33Z</time>
      </trkpt>
      <trkpt lat="49.23047" lon="-1.43115">
        <ele>31.6</ele>
        <time>2022-05-24T12:53:37Z</time>
      </trkpt>
      <trkpt lat="49.2305" lon="-1.43108">
        <ele>31.6</ele>
        <time>2022-05-24T12:53:40Z</time>
      </trkpt>
      <trkpt lat="49.23054" lon="-1.43102">
        <ele>31.5</ele>
        <time>2022-05-24T12:53:44Z</time>
      </trkpt>
      <trkpt lat="49.23057" lon="-1.43097">
        <ele>31.3</ele>
        <time>2022-05-24T12:53:49Z</time>
      </trkpt>
      <trkpt lat="49.23061" lon="-1.43091">
        <ele>31.6</ele>
        <time>2022-05-24T12:53:53Z</time>
      </trkpt>
      <trkpt lat="49.23065" lon="-1.43084">
        <ele>31.7</ele>
        <time>2022-05-24T12:53:57Z</time>
      </trkpt>
      <trkpt lat="49.23067" lon="-1.43076">
        <ele>31.9</ele>
        <time>2022-05-24T12:54:00Z</time>
      </trkpt>
      <trkpt lat="49.23069" lon="-1.43069">
        <ele>31.6</ele>
        <time>2022-05-24T12:54:04Z</time>
      </trkpt>
      <trkpt lat="49.23069" lon="-1.43061">
        <ele>31.7</ele>
        <time>2022-05-24T12:54:08Z</time>
      </trkpt>
      <trkpt lat="49.2307" lon="-1.43053">
        <ele>31.6</ele>
        <time>2022-05-24T12:54:11Z</time>
      </trkpt>
      <trkpt lat="49.23071" lon="-1.43046">
        <ele>31</ele>
        <time>2022-05-24T12:54:14Z</time>
      </trkpt>
      <trkpt lat="49.23072" lon="-1.43038">
        <ele>30.9</ele>
        <time>2022-05-24T12:54:17Z</time>
      </trkpt>
      <trkpt lat="49.23072" lon="-1.43031">
        <ele>31</ele>
        <time>2022-05-24T12:54:21Z</time>
      </trkpt>
      <trkpt lat="49.23073" lon="-1.43022">
        <ele>31</ele>
        <time>2022-05-24T12:54:25Z</time>
      </trkpt>
      <trkpt lat="49.23074" lon="-1.43014">
        <ele>30.9</ele>
        <time>2022-05-24T12:54:29Z</time>
      </trkpt>
      <trkpt lat="49.23075" lon="-1.43006">
        <ele>30.5</ele>
        <time>2022-05-24T12:54:32Z</time>
      </trkpt>
      <trkpt lat="49.23077" lon="-1.42999">
        <ele>30.2</ele>
        <time>2022-05-24T12:54:35Z</time>
      </trkpt>
      <trkpt lat="49.23079" lon="-1.42992">
        <ele>30</ele>
        <time>2022-05-24T12:54:39Z</time>
      </trkpt>
      <trkpt lat="49.23082" lon="-1.42984">
        <ele>29.1</ele>
        <time>2022-05-24T12:54:43Z</time>
      </trkpt>
      <trkpt lat="49.23086" lon="-1.42978">
        <ele>28.9</ele>
        <time>2022-05-24T12:54:47Z</time>
      </trkpt>
      <trkpt lat="49.23088" lon="-1.42972">
        <ele>29.2</ele>
        <time>2022-05-24T12:54:51Z</time>
      </trkpt>
      <trkpt lat="49.23091" lon="-1.42965">
        <ele>29.6</ele>
        <time>2022-05-24T12:54:54Z</time>
      </trkpt>
      <trkpt lat="49.23093" lon="-1.42959">
        <ele>29.4</ele>
        <time>2022-05-24T12:54:57Z</time>
      </trkpt>
      <trkpt lat="49.23096" lon="-1.42952">
        <ele>28.9</ele>
        <time>2022-05-24T12:55:02Z</time>
      </trkpt>
      <trkpt lat="49.23099" lon="-1.42946">
        <ele>29.8</ele>
        <time>2022-05-24T12:55:05Z</time>
      </trkpt>
      <trkpt lat="49.23102" lon="-1.42938">
        <ele>28.8</ele>
        <time>2022-05-24T12:55:09Z</time>
      </trkpt>
      <trkpt lat="49.23104" lon="-1.42931">
        <ele>28.8</ele>
        <time>2022-05-24T12:55:13Z</time>
      </trkpt>
      <trkpt lat="49.23106" lon="-1.42923">
        <ele>29</ele>
        <time>2022-05-24T12:55:17Z</time>
      </trkpt>
      <trkpt lat="49.23109" lon="-1.42916">
        <ele>29.9</ele>
        <time>2022-05-24T12:55:20Z</time>
      </trkpt>
      <trkpt lat="49.2311" lon="-1.42909">
        <ele>28.5</ele>
        <time>2022-05-24T12:55:23Z</time>
      </trkpt>
      <trkpt lat="49.23112" lon="-1.42903">
        <ele>28</ele>
        <time>2022-05-24T12:55:27Z</time>
      </trkpt>
      <trkpt lat="49.23113" lon="-1.42895">
        <ele>28.5</ele>
        <time>2022-05-24T12:55:30Z</time>
      </trkpt>
      <trkpt lat="49.23115" lon="-1.42888">
        <ele>28.8</ele>
        <time>2022-05-24T12:55:33Z</time>
      </trkpt>
      <trkpt lat="49.23118" lon="-1.42881">
        <ele>28.6</ele>
        <time>2022-05-24T12:55:36Z</time>
      </trkpt>
      <trkpt lat="49.2312" lon="-1.42874">
        <ele>27.7</ele>
        <time>2022-05-24T12:55:41Z</time>
      </trkpt>
      <trkpt lat="49.23123" lon="-1.42866">
        <ele>28.1</ele>
        <time>2022-05-24T12:55:45Z</time>
      </trkpt>
      <trkpt lat="49.23126" lon="-1.42861">
        <ele>28.6</ele>
        <time>2022-05-24T12:55:52Z</time>
      </trkpt>
      <trkpt lat="49.23128" lon="-1.42854">
        <ele>33.6</ele>
        <time>2022-05-24T12:55:56Z</time>
      </trkpt>
      <trkpt lat="49.23131" lon="-1.42848">
        <ele>33.6</ele>
        <time>2022-05-24T12:56:01Z</time>
      </trkpt>
      <trkpt lat="49.23132" lon="-1.42841">
        <ele>33.6</ele>
        <time>2022-05-24T12:56:05Z</time>
      </trkpt>
      <trkpt lat="49.23136" lon="-1.42835">
        <ele>33.6</ele>
        <time>2022-05-24T12:56:08Z</time>
      </trkpt>
      <trkpt lat="49.23139" lon="-1.42829">
        <ele>33.6</ele>
        <time>2022-05-24T12:56:11Z</time>
      </trkpt>
      <trkpt lat="49.23143" lon="-1.42822">
        <ele>33.6</ele>
        <time>2022-05-24T12:56:14Z</time>
      </trkpt>
      <trkpt lat="49.23145" lon="-1.42814">
        <ele>29.8</ele>
        <time>2022-05-24T12:56:19Z</time>
      </trkpt>
      <trkpt lat="49.23148" lon="-1.42806">
        <ele>29.8</ele>
        <time>2022-05-24T12:56:23Z</time>
      </trkpt>
      <trkpt lat="49.2315" lon="-1.42799">
        <ele>29.8</ele>
        <time>2022-05-24T12:56:26Z</time>
      </trkpt>
      <trkpt lat="49.23152" lon="-1.42793">
        <ele>29.8</ele>
        <time>2022-05-24T12:56:29Z</time>
      </trkpt>
      <trkpt lat="49.23152" lon="-1.42785">
        <ele>29.8</ele>
        <time>2022-05-24T12:56:33Z</time>
      </trkpt>
      <trkpt lat="49.23153" lon="-1.42778">
        <ele>29.8</ele>
        <time>2022-05-24T12:56:36Z</time>
      </trkpt>
      <trkpt lat="49.23153" lon="-1.42771">
        <ele>29.8</ele>
        <time>2022-05-24T12:56:39Z</time>
      </trkpt>
      <trkpt lat="49.23154" lon="-1.42763">
        <ele>29.8</ele>
        <time>2022-05-24T12:56:44Z</time>
      </trkpt>
      <trkpt lat="49.23155" lon="-1.42756">
        <ele>29.8</ele>
        <time>2022-05-24T12:56:47Z</time>
      </trkpt>
      <trkpt lat="49.23157" lon="-1.42748">
        <ele>29.8</ele>
        <time>2022-05-24T12:56:50Z</time>
      </trkpt>
      <trkpt lat="49.23158" lon="-1.42741">
        <ele>29.8</ele>
        <time>2022-05-24T12:56:55Z</time>
      </trkpt>
      <trkpt lat="49.2316" lon="-1.42732">
        <ele>26.5</ele>
        <time>2022-05-24T12:56:58Z</time>
      </trkpt>
      <trkpt lat="49.23162" lon="-1.42721">
        <ele>31.7</ele>
        <time>2022-05-24T12:57:03Z</time>
      </trkpt>
      <trkpt lat="49.23164" lon="-1.42713">
        <ele>31.7</ele>
        <time>2022-05-24T12:57:08Z</time>
      </trkpt>
      <trkpt lat="49.23166" lon="-1.42706">
        <ele>31.7</ele>
        <time>2022-05-24T12:57:11Z</time>
      </trkpt>
      <trkpt lat="49.23167" lon="-1.42699">
        <ele>31.7</ele>
        <time>2022-05-24T12:57:15Z</time>
      </trkpt>
      <trkpt lat="49.2317" lon="-1.4269">
        <ele>31.7</ele>
        <time>2022-05-24T12:57:19Z</time>
      </trkpt>
      <trkpt lat="49.23172" lon="-1.42684">
        <ele>31.7</ele>
        <time>2022-05-24T12:57:22Z</time>
      </trkpt>
      <trkpt lat="49.23174" lon="-1.42677">
        <ele>31.7</ele>
        <time>2022-05-24T12:57:25Z</time>
      </trkpt>
      <trkpt lat="49.23176" lon="-1.42671">
        <ele>24.5</ele>
        <time>2022-05-24T12:57:29Z</time>
      </trkpt>
      <trkpt lat="49.23178" lon="-1.42664">
        <ele>24.9</ele>
        <time>2022-05-24T12:57:33Z</time>
      </trkpt>
      <trkpt lat="49.23181" lon="-1.42657">
        <ele>25.1</ele>
        <time>2022-05-24T12:57:36Z</time>
      </trkpt>
      <trkpt lat="49.23182" lon="-1.42651">
        <ele>24.4</ele>
        <time>2022-05-24T12:57:39Z</time>
      </trkpt>
      <trkpt lat="49.23185" lon="-1.42643">
        <ele>24.3</ele>
        <time>2022-05-24T12:57:44Z</time>
      </trkpt>
      <trkpt lat="49.23188" lon="-1.42637">
        <ele>24.1</ele>
        <time>2022-05-24T12:57:47Z</time>
      </trkpt>
      <trkpt lat="49.2319" lon="-1.42629">
        <ele>27</ele>
        <time>2022-05-24T12:57:51Z</time>
      </trkpt>
      <trkpt lat="49.23192" lon="-1.4262">
        <ele>28.8</ele>
        <time>2022-05-24T12:57:55Z</time>
      </trkpt>
      <trkpt lat="49.23194" lon="-1.42613">
        <ele>28.8</ele>
        <time>2022-05-24T12:58:00Z</time>
      </trkpt>
      <trkpt lat="49.23197" lon="-1.42604">
        <ele>28.8</ele>
        <time>2022-05-24T12:58:04Z</time>
      </trkpt>
      <trkpt lat="49.232" lon="-1.42597">
        <ele>26.5</ele>
        <time>2022-05-24T12:58:08Z</time>
      </trkpt>
      <trkpt lat="49.23201" lon="-1.42589">
        <ele>26.5</ele>
        <time>2022-05-24T12:58:11Z</time>
      </trkpt>
      <trkpt lat="49.23201" lon="-1.42581">
        <ele>26.5</ele>
        <time>2022-05-24T12:58:15Z</time>
      </trkpt>
      <trkpt lat="49.23203" lon="-1.42574">
        <ele>28.8</ele>
        <time>2022-05-24T12:58:20Z</time>
      </trkpt>
      <trkpt lat="49.23201" lon="-1.42566">
        <ele>24.8</ele>
        <time>2022-05-24T12:58:27Z</time>
      </trkpt>
      <trkpt lat="49.23198" lon="-1.42558">
        <ele>24.7</ele>
        <time>2022-05-24T12:58:30Z</time>
      </trkpt>
      <trkpt lat="49.23195" lon="-1.42553">
        <ele>25</ele>
        <time>2022-05-24T12:58:34Z</time>
      </trkpt>
      <trkpt lat="49.23197" lon="-1.42546">
        <ele>28.8</ele>
        <time>2022-05-24T12:58:43Z</time>
      </trkpt>
      <trkpt lat="49.23198" lon="-1.42539">
        <ele>28.8</ele>
        <time>2022-05-24T12:58:45Z</time>
      </trkpt>
      <trkpt lat="49.232" lon="-1.42529">
        <ele>28.8</ele>
        <time>2022-05-24T12:58:48Z</time>
      </trkpt>
      <trkpt lat="49.232" lon="-1.42522">
        <ele>28.8</ele>
        <time>2022-05-24T12:58:51Z</time>
      </trkpt>
      <trkpt lat="49.23201" lon="-1.42514">
        <ele>28.8</ele>
        <time>2022-05-24T12:58:54Z</time>
      </trkpt>
      <trkpt lat="49.23202" lon="-1.42505">
        <ele>28.8</ele>
        <time>2022-05-24T12:58:58Z</time>
      </trkpt>
      <trkpt lat="49.23202" lon="-1.42498">
        <ele>28.8</ele>
        <time>2022-05-24T12:59:01Z</time>
      </trkpt>
      <trkpt lat="49.23205" lon="-1.4249">
        <ele>28.8</ele>
        <time>2022-05-24T12:59:05Z</time>
      </trkpt>
      <trkpt lat="49.23208" lon="-1.42484">
        <ele>28.8</ele>
        <time>2022-05-24T12:59:08Z</time>
      </trkpt>
      <trkpt lat="49.23212" lon="-1.42478">
        <ele>28.8</ele>
        <time>2022-05-24T12:59:13Z</time>
      </trkpt>
      <trkpt lat="49.23216" lon="-1.42474">
        <ele>28.8</ele>
        <time>2022-05-24T12:59:17Z</time>
      </trkpt>
      <trkpt lat="49.2322" lon="-1.42467">
        <ele>28.8</ele>
        <time>2022-05-24T12:59:21Z</time>
      </trkpt>
      <trkpt lat="49.23223" lon="-1.42461">
        <ele>28.8</ele>
        <time>2022-05-24T12:59:25Z</time>
      </trkpt>
      <trkpt lat="49.23227" lon="-1.42455">
        <ele>28.8</ele>
        <time>2022-05-24T12:59:29Z</time>
      </trkpt>
      <trkpt lat="49.23231" lon="-1.42448">
        <ele>28.8</ele>
        <time>2022-05-24T12:59:33Z</time>
      </trkpt>
      <trkpt lat="49.23235" lon="-1.42442">
        <ele>28.8</ele>
        <time>2022-05-24T12:59:38Z</time>
      </trkpt>
      <trkpt lat="49.23239" lon="-1.42434">
        <ele>28.8</ele>
        <time>2022-05-24T12:59:42Z</time>
      </trkpt>
      <trkpt lat="49.23241" lon="-1.42427">
        <ele>28.8</ele>
        <time>2022-05-24T12:59:45Z</time>
      </trkpt>
      <trkpt lat="49.23242" lon="-1.42419">
        <ele>28.8</ele>
        <time>2022-05-24T12:59:50Z</time>
      </trkpt>
      <trkpt lat="49.23244" lon="-1.42411">
        <ele>28.8</ele>
        <time>2022-05-24T12:59:54Z</time>
      </trkpt>
      <trkpt lat="49.23246" lon="-1.42404">
        <ele>28.8</ele>
        <time>2022-05-24T12:59:57Z</time>
      </trkpt>
      <trkpt lat="49.23249" lon="-1.42397">
        <ele>28.8</ele>
        <time>2022-05-24T13:00:01Z</time>
      </trkpt>
      <trkpt lat="49.23251" lon="-1.4239">
        <ele>28.8</ele>
        <time>2022-05-24T13:00:04Z</time>
      </trkpt>
      <trkpt lat="49.23253" lon="-1.42382">
        <ele>28.8</ele>
        <time>2022-05-24T13:00:09Z</time>
      </trkpt>
      <trkpt lat="49.23256" lon="-1.42377">
        <ele>22.2</ele>
        <time>2022-05-24T13:00:17Z</time>
      </trkpt>
      <trkpt lat="49.23257" lon="-1.42368">
        <ele>22.8</ele>
        <time>2022-05-24T13:00:22Z</time>
      </trkpt>
      <trkpt lat="49.23257" lon="-1.42361">
        <ele>22.1</ele>
        <time>2022-05-24T13:00:26Z</time>
      </trkpt>
      <trkpt lat="49.23257" lon="-1.42353">
        <ele>23.1</ele>
        <time>2022-05-24T13:00:33Z</time>
      </trkpt>
      <trkpt lat="49.23256" lon="-1.42343">
        <ele>22.5</ele>
        <time>2022-05-24T13:00:37Z</time>
      </trkpt>
      <trkpt lat="49.23257" lon="-1.42335">
        <ele>22.5</ele>
        <time>2022-05-24T13:00:40Z</time>
      </trkpt>
      <trkpt lat="49.23258" lon="-1.42329">
        <ele>22.6</ele>
        <time>2022-05-24T13:00:43Z</time>
      </trkpt>
      <trkpt lat="49.23258" lon="-1.4232">
        <ele>22.3</ele>
        <time>2022-05-24T13:00:48Z</time>
      </trkpt>
      <trkpt lat="49.2326" lon="-1.42312">
        <ele>22.2</ele>
        <time>2022-05-24T13:00:52Z</time>
      </trkpt>
      <trkpt lat="49.23261" lon="-1.42305">
        <ele>22</ele>
        <time>2022-05-24T13:00:55Z</time>
      </trkpt>
      <trkpt lat="49.23261" lon="-1.42298">
        <ele>22.1</ele>
        <time>2022-05-24T13:00:58Z</time>
      </trkpt>
      <trkpt lat="49.23261" lon="-1.42289">
        <ele>22.1</ele>
        <time>2022-05-24T13:01:03Z</time>
      </trkpt>
      <trkpt lat="49.23261" lon="-1.42282">
        <ele>22</ele>
        <time>2022-05-24T13:01:06Z</time>
      </trkpt>
      <trkpt lat="49.23261" lon="-1.42275">
        <ele>22</ele>
        <time>2022-05-24T13:01:11Z</time>
      </trkpt>
      <trkpt lat="49.2326" lon="-1.42281">
        <ele>22.3</ele>
        <time>2022-05-24T13:01:23Z</time>
      </trkpt>
      <trkpt lat="49.23262" lon="-1.42274">
        <ele>23.7</ele>
        <time>2022-05-24T13:02:32Z</time>
      </trkpt>
      <trkpt lat="49.23264" lon="-1.42264">
        <ele>23.7</ele>
        <time>2022-05-24T13:02:36Z</time>
      </trkpt>
      <trkpt lat="49.23265" lon="-1.42257">
        <ele>23.9</ele>
        <time>2022-05-24T13:02:40Z</time>
      </trkpt>
      <trkpt lat="49.23266" lon="-1.4225">
        <ele>23.9</ele>
        <time>2022-05-24T13:02:44Z</time>
      </trkpt>
      <trkpt lat="49.23266" lon="-1.42242">
        <ele>23.7</ele>
        <time>2022-05-24T13:02:47Z</time>
      </trkpt>
      <trkpt lat="49.23266" lon="-1.42234">
        <ele>23.6</ele>
        <time>2022-05-24T13:02:52Z</time>
      </trkpt>
      <trkpt lat="49.23268" lon="-1.42224">
        <ele>23.2</ele>
        <time>2022-05-24T13:02:57Z</time>
      </trkpt>
      <trkpt lat="49.23268" lon="-1.42215">
        <ele>23.5</ele>
        <time>2022-05-24T13:03:01Z</time>
      </trkpt>
      <trkpt lat="49.23269" lon="-1.42207">
        <ele>23.5</ele>
        <time>2022-05-24T13:03:06Z</time>
      </trkpt>
      <trkpt lat="49.23269" lon="-1.42199">
        <ele>23.2</ele>
        <time>2022-05-24T13:03:10Z</time>
      </trkpt>
      <trkpt lat="49.2327" lon="-1.42191">
        <ele>23.3</ele>
        <time>2022-05-24T13:03:13Z</time>
      </trkpt>
      <trkpt lat="49.23271" lon="-1.42182">
        <ele>23.2</ele>
        <time>2022-05-24T13:03:18Z</time>
      </trkpt>
      <trkpt lat="49.23272" lon="-1.42175">
        <ele>23.3</ele>
        <time>2022-05-24T13:03:22Z</time>
      </trkpt>
      <trkpt lat="49.23273" lon="-1.42166">
        <ele>23.3</ele>
        <time>2022-05-24T13:03:28Z</time>
      </trkpt>
      <trkpt lat="49.23273" lon="-1.42158">
        <ele>23.3</ele>
        <time>2022-05-24T13:03:32Z</time>
      </trkpt>
      <trkpt lat="49.23271" lon="-1.42152">
        <ele>23.4</ele>
        <time>2022-05-24T13:03:37Z</time>
      </trkpt>
      <trkpt lat="49.23274" lon="-1.42144">
        <ele>23.2</ele>
        <time>2022-05-24T13:04:11Z</time>
      </trkpt>
      <trkpt lat="49.23274" lon="-1.42136">
        <ele>23</ele>
        <time>2022-05-24T13:04:15Z</time>
      </trkpt>
      <trkpt lat="49.23277" lon="-1.42128">
        <ele>22.9</ele>
        <time>2022-05-24T13:04:18Z</time>
      </trkpt>
      <trkpt lat="49.23279" lon="-1.42122">
        <ele>22.2</ele>
        <time>2022-05-24T13:04:22Z</time>
      </trkpt>
      <trkpt lat="49.23282" lon="-1.42113">
        <ele>22.4</ele>
        <time>2022-05-24T13:04:26Z</time>
      </trkpt>
      <trkpt lat="49.23285" lon="-1.42107">
        <ele>22.6</ele>
        <time>2022-05-24T13:04:29Z</time>
      </trkpt>
      <trkpt lat="49.23286" lon="-1.42099">
        <ele>22.2</ele>
        <time>2022-05-24T13:04:33Z</time>
      </trkpt>
      <trkpt lat="49.23288" lon="-1.4209">
        <ele>22.4</ele>
        <time>2022-05-24T13:04:38Z</time>
      </trkpt>
      <trkpt lat="49.23289" lon="-1.42082">
        <ele>22.3</ele>
        <time>2022-05-24T13:04:43Z</time>
      </trkpt>
      <trkpt lat="49.2329" lon="-1.42073">
        <ele>22.3</ele>
        <time>2022-05-24T13:04:48Z</time>
      </trkpt>
      <trkpt lat="49.23291" lon="-1.42064">
        <ele>22.2</ele>
        <time>2022-05-24T13:04:53Z</time>
      </trkpt>
      <trkpt lat="49.23293" lon="-1.42055">
        <ele>22.3</ele>
        <time>2022-05-24T13:04:58Z</time>
      </trkpt>
      <trkpt lat="49.23293" lon="-1.42046">
        <ele>22.1</ele>
        <time>2022-05-24T13:05:03Z</time>
      </trkpt>
      <trkpt lat="49.23293" lon="-1.42039">
        <ele>22.2</ele>
        <time>2022-05-24T13:05:08Z</time>
      </trkpt>
      <trkpt lat="49.2329" lon="-1.42031">
        <ele>22.1</ele>
        <time>2022-05-24T13:05:12Z</time>
      </trkpt>
      <trkpt lat="49.23288" lon="-1.42025">
        <ele>22.1</ele>
        <time>2022-05-24T13:05:16Z</time>
      </trkpt>
      <trkpt lat="49.23285" lon="-1.42018">
        <ele>21.9</ele>
        <time>2022-05-24T13:05:19Z</time>
      </trkpt>
      <trkpt lat="49.23283" lon="-1.42012">
        <ele>21.8</ele>
        <time>2022-05-24T13:05:22Z</time>
      </trkpt>
      <trkpt lat="49.23283" lon="-1.42004">
        <ele>19.9</ele>
        <time>2022-05-24T13:05:31Z</time>
      </trkpt>
      <trkpt lat="49.23281" lon="-1.41997">
        <ele>19.5</ele>
        <time>2022-05-24T13:05:35Z</time>
      </trkpt>
      <trkpt lat="49.23278" lon="-1.41991">
        <ele>20</ele>
        <time>2022-05-24T13:05:38Z</time>
      </trkpt>
      <trkpt lat="49.23275" lon="-1.41985">
        <ele>19.3</ele>
        <time>2022-05-24T13:05:41Z</time>
      </trkpt>
      <trkpt lat="49.23271" lon="-1.41979">
        <ele>19.1</ele>
        <time>2022-05-24T13:05:45Z</time>
      </trkpt>
      <trkpt lat="49.2327" lon="-1.41972">
        <ele>19</ele>
        <time>2022-05-24T13:05:48Z</time>
      </trkpt>
      <trkpt lat="49.23268" lon="-1.41965">
        <ele>18.7</ele>
        <time>2022-05-24T13:05:53Z</time>
      </trkpt>
      <trkpt lat="49.23267" lon="-1.41955">
        <ele>19</ele>
        <time>2022-05-24T13:05:57Z</time>
      </trkpt>
      <trkpt lat="49.23263" lon="-1.41949">
        <ele>18.8</ele>
        <time>2022-05-24T13:06:02Z</time>
      </trkpt>
      <trkpt lat="49.2326" lon="-1.41942">
        <ele>18.3</ele>
        <time>2022-05-24T13:06:07Z</time>
      </trkpt>
      <trkpt lat="49.23257" lon="-1.41936">
        <ele>18.5</ele>
        <time>2022-05-24T13:06:11Z</time>
      </trkpt>
      <trkpt lat="49.23254" lon="-1.41929">
        <ele>18.3</ele>
        <time>2022-05-24T13:06:15Z</time>
      </trkpt>
      <trkpt lat="49.23252" lon="-1.41922">
        <ele>18.5</ele>
        <time>2022-05-24T13:06:18Z</time>
      </trkpt>
      <trkpt lat="49.23249" lon="-1.41914">
        <ele>18.9</ele>
        <time>2022-05-24T13:06:23Z</time>
      </trkpt>
      <trkpt lat="49.23246" lon="-1.41908">
        <ele>20.5</ele>
        <time>2022-05-24T13:06:27Z</time>
      </trkpt>
      <trkpt lat="49.23244" lon="-1.419">
        <ele>21</ele>
        <time>2022-05-24T13:06:31Z</time>
      </trkpt>
      <trkpt lat="49.23242" lon="-1.41893">
        <ele>21.5</ele>
        <time>2022-05-24T13:06:34Z</time>
      </trkpt>
      <trkpt lat="49.23239" lon="-1.41884">
        <ele>20.8</ele>
        <time>2022-05-24T13:06:38Z</time>
      </trkpt>
      <trkpt lat="49.23237" lon="-1.41878">
        <ele>21</ele>
        <time>2022-05-24T13:06:43Z</time>
      </trkpt>
      <trkpt lat="49.23235" lon="-1.41872">
        <ele>21.3</ele>
        <time>2022-05-24T13:06:46Z</time>
      </trkpt>
      <trkpt lat="49.23231" lon="-1.41865">
        <ele>21.3</ele>
        <time>2022-05-24T13:06:49Z</time>
      </trkpt>
      <trkpt lat="49.23229" lon="-1.41856">
        <ele>21.5</ele>
        <time>2022-05-24T13:06:54Z</time>
      </trkpt>
      <trkpt lat="49.23227" lon="-1.41849">
        <ele>21.8</ele>
        <time>2022-05-24T13:06:57Z</time>
      </trkpt>
      <trkpt lat="49.23225" lon="-1.41842">
        <ele>22.2</ele>
        <time>2022-05-24T13:07:01Z</time>
      </trkpt>
      <trkpt lat="49.23222" lon="-1.41834">
        <ele>22.2</ele>
        <time>2022-05-24T13:07:05Z</time>
      </trkpt>
      <trkpt lat="49.23219" lon="-1.41828">
        <ele>22.3</ele>
        <time>2022-05-24T13:07:08Z</time>
      </trkpt>
      <trkpt lat="49.23217" lon="-1.41822">
        <ele>21.9</ele>
        <time>2022-05-24T13:07:12Z</time>
      </trkpt>
      <trkpt lat="49.23215" lon="-1.41815">
        <ele>21.7</ele>
        <time>2022-05-24T13:07:15Z</time>
      </trkpt>
      <trkpt lat="49.23213" lon="-1.41808">
        <ele>21.4</ele>
        <time>2022-05-24T13:07:18Z</time>
      </trkpt>
      <trkpt lat="49.23211" lon="-1.41801">
        <ele>21.5</ele>
        <time>2022-05-24T13:07:23Z</time>
      </trkpt>
      <trkpt lat="49.23209" lon="-1.41795">
        <ele>21.9</ele>
        <time>2022-05-24T13:07:26Z</time>
      </trkpt>
      <trkpt lat="49.23206" lon="-1.41789">
        <ele>21.3</ele>
        <time>2022-05-24T13:07:31Z</time>
      </trkpt>
      <trkpt lat="49.23204" lon="-1.41781">
        <ele>20.6</ele>
        <time>2022-05-24T13:07:37Z</time>
      </trkpt>
      <trkpt lat="49.23201" lon="-1.41773">
        <ele>21</ele>
        <time>2022-05-24T13:07:41Z</time>
      </trkpt>
      <trkpt lat="49.23199" lon="-1.41766">
        <ele>20.9</ele>
        <time>2022-05-24T13:07:45Z</time>
      </trkpt>
      <trkpt lat="49.23197" lon="-1.41759">
        <ele>21.4</ele>
        <time>2022-05-24T13:07:48Z</time>
      </trkpt>
      <trkpt lat="49.23194" lon="-1.41751">
        <ele>21.6</ele>
        <time>2022-05-24T13:07:52Z</time>
      </trkpt>
      <trkpt lat="49.23191" lon="-1.41745">
        <ele>22</ele>
        <time>2022-05-24T13:07:55Z</time>
      </trkpt>
      <trkpt lat="49.23188" lon="-1.4174">
        <ele>22.8</ele>
        <time>2022-05-24T13:07:58Z</time>
      </trkpt>
      <trkpt lat="49.23185" lon="-1.41731">
        <ele>22.7</ele>
        <time>2022-05-24T13:08:03Z</time>
      </trkpt>
      <trkpt lat="49.23182" lon="-1.41726">
        <ele>22.6</ele>
        <time>2022-05-24T13:08:06Z</time>
      </trkpt>
      <trkpt lat="49.23179" lon="-1.4172">
        <ele>22.6</ele>
        <time>2022-05-24T13:08:10Z</time>
      </trkpt>
      <trkpt lat="49.23176" lon="-1.41712">
        <ele>22</ele>
        <time>2022-05-24T13:08:14Z</time>
      </trkpt>
      <trkpt lat="49.23175" lon="-1.41705">
        <ele>21.7</ele>
        <time>2022-05-24T13:08:17Z</time>
      </trkpt>
      <trkpt lat="49.23175" lon="-1.41697">
        <ele>21.2</ele>
        <time>2022-05-24T13:08:22Z</time>
      </trkpt>
      <trkpt lat="49.23173" lon="-1.41689">
        <ele>21.3</ele>
        <time>2022-05-24T13:08:27Z</time>
      </trkpt>
      <trkpt lat="49.23171" lon="-1.41681">
        <ele>20.2</ele>
        <time>2022-05-24T13:08:31Z</time>
      </trkpt>
      <trkpt lat="49.23169" lon="-1.41675">
        <ele>19.8</ele>
        <time>2022-05-24T13:08:35Z</time>
      </trkpt>
      <trkpt lat="49.23167" lon="-1.41669">
        <ele>19.4</ele>
        <time>2022-05-24T13:08:37Z</time>
      </trkpt>
      <trkpt lat="49.23164" lon="-1.41663">
        <ele>19.5</ele>
        <time>2022-05-24T13:08:41Z</time>
      </trkpt>
      <trkpt lat="49.23159" lon="-1.41659">
        <ele>20.2</ele>
        <time>2022-05-24T13:08:46Z</time>
      </trkpt>
      <trkpt lat="49.23156" lon="-1.41652">
        <ele>20.8</ele>
        <time>2022-05-24T13:08:49Z</time>
      </trkpt>
      <trkpt lat="49.23155" lon="-1.41646">
        <ele>21</ele>
        <time>2022-05-24T13:08:52Z</time>
      </trkpt>
      <trkpt lat="49.23153" lon="-1.41638">
        <ele>20.7</ele>
        <time>2022-05-24T13:08:55Z</time>
      </trkpt>
      <trkpt lat="49.23151" lon="-1.41632">
        <ele>20.9</ele>
        <time>2022-05-24T13:08:58Z</time>
      </trkpt>
      <trkpt lat="49.23148" lon="-1.41625">
        <ele>21.2</ele>
        <time>2022-05-24T13:09:02Z</time>
      </trkpt>
      <trkpt lat="49.23144" lon="-1.4162">
        <ele>20.7</ele>
        <time>2022-05-24T13:09:05Z</time>
      </trkpt>
      <trkpt lat="49.23141" lon="-1.41614">
        <ele>20.5</ele>
        <time>2022-05-24T13:09:10Z</time>
      </trkpt>
      <trkpt lat="49.23139" lon="-1.41607">
        <ele>20.8</ele>
        <time>2022-05-24T13:09:13Z</time>
      </trkpt>
      <trkpt lat="49.23136" lon="-1.41602">
        <ele>19.5</ele>
        <time>2022-05-24T13:09:17Z</time>
      </trkpt>
      <trkpt lat="49.23132" lon="-1.41596">
        <ele>19.4</ele>
        <time>2022-05-24T13:09:20Z</time>
      </trkpt>
      <trkpt lat="49.2313" lon="-1.41588">
        <ele>19</ele>
        <time>2022-05-24T13:09:24Z</time>
      </trkpt>
      <trkpt lat="49.23128" lon="-1.41582">
        <ele>19.6</ele>
        <time>2022-05-24T13:09:27Z</time>
      </trkpt>
      <trkpt lat="49.23125" lon="-1.41575">
        <ele>19.3</ele>
        <time>2022-05-24T13:09:32Z</time>
      </trkpt>
      <trkpt lat="49.23122" lon="-1.41567">
        <ele>19.4</ele>
        <time>2022-05-24T13:09:36Z</time>
      </trkpt>
      <trkpt lat="49.23121" lon="-1.41555">
        <ele>19.5</ele>
        <time>2022-05-24T13:09:42Z</time>
      </trkpt>
      <trkpt lat="49.23119" lon="-1.41548">
        <ele>17.8</ele>
        <time>2022-05-24T13:09:58Z</time>
      </trkpt>
      <trkpt lat="49.23117" lon="-1.41539">
        <ele>18</ele>
        <time>2022-05-24T13:10:02Z</time>
      </trkpt>
      <trkpt lat="49.23114" lon="-1.41531">
        <ele>17.9</ele>
        <time>2022-05-24T13:10:07Z</time>
      </trkpt>
      <trkpt lat="49.23113" lon="-1.41523">
        <ele>18.9</ele>
        <time>2022-05-24T13:10:12Z</time>
      </trkpt>
      <trkpt lat="49.23112" lon="-1.41514">
        <ele>19.4</ele>
        <time>2022-05-24T13:10:16Z</time>
      </trkpt>
      <trkpt lat="49.23111" lon="-1.41507">
        <ele>18.9</ele>
        <time>2022-05-24T13:10:19Z</time>
      </trkpt>
      <trkpt lat="49.2311" lon="-1.415">
        <ele>19</ele>
        <time>2022-05-24T13:10:23Z</time>
      </trkpt>
      <trkpt lat="49.23109" lon="-1.41493">
        <ele>18.6</ele>
        <time>2022-05-24T13:10:26Z</time>
      </trkpt>
      <trkpt lat="49.23108" lon="-1.41484">
        <ele>19</ele>
        <time>2022-05-24T13:10:29Z</time>
      </trkpt>
      <trkpt lat="49.23104" lon="-1.41478">
        <ele>19.4</ele>
        <time>2022-05-24T13:10:34Z</time>
      </trkpt>
      <trkpt lat="49.23102" lon="-1.41469">
        <ele>19.9</ele>
        <time>2022-05-24T13:10:38Z</time>
      </trkpt>
      <trkpt lat="49.231" lon="-1.41462">
        <ele>21</ele>
        <time>2022-05-24T13:10:42Z</time>
      </trkpt>
      <trkpt lat="49.23098" lon="-1.41454">
        <ele>20.9</ele>
        <time>2022-05-24T13:10:46Z</time>
      </trkpt>
      <trkpt lat="49.23094" lon="-1.41447">
        <ele>21</ele>
        <time>2022-05-24T13:10:50Z</time>
      </trkpt>
      <trkpt lat="49.23091" lon="-1.4144">
        <ele>21.5</ele>
        <time>2022-05-24T13:10:54Z</time>
      </trkpt>
      <trkpt lat="49.23089" lon="-1.41433">
        <ele>21.7</ele>
        <time>2022-05-24T13:10:58Z</time>
      </trkpt>
      <trkpt lat="49.23089" lon="-1.41424">
        <ele>22</ele>
        <time>2022-05-24T13:11:02Z</time>
      </trkpt>
      <trkpt lat="49.23088" lon="-1.41416">
        <ele>22</ele>
        <time>2022-05-24T13:11:05Z</time>
      </trkpt>
      <trkpt lat="49.23087" lon="-1.41408">
        <ele>22.3</ele>
        <time>2022-05-24T13:11:09Z</time>
      </trkpt>
      <trkpt lat="49.23085" lon="-1.41402">
        <ele>22.7</ele>
        <time>2022-05-24T13:11:13Z</time>
      </trkpt>
      <trkpt lat="49.23083" lon="-1.41393">
        <ele>22.9</ele>
        <time>2022-05-24T13:11:17Z</time>
      </trkpt>
      <trkpt lat="49.23081" lon="-1.41385">
        <ele>22.8</ele>
        <time>2022-05-24T13:11:21Z</time>
      </trkpt>
      <trkpt lat="49.23079" lon="-1.41378">
        <ele>23.9</ele>
        <time>2022-05-24T13:11:24Z</time>
      </trkpt>
      <trkpt lat="49.23078" lon="-1.41369">
        <ele>24.1</ele>
        <time>2022-05-24T13:11:28Z</time>
      </trkpt>
      <trkpt lat="49.23076" lon="-1.41362">
        <ele>23.7</ele>
        <time>2022-05-24T13:11:31Z</time>
      </trkpt>
      <trkpt lat="49.23076" lon="-1.41355">
        <ele>24</ele>
        <time>2022-05-24T13:11:34Z</time>
      </trkpt>
      <trkpt lat="49.23075" lon="-1.41347">
        <ele>24.1</ele>
        <time>2022-05-24T13:11:39Z</time>
      </trkpt>
      <trkpt lat="49.23075" lon="-1.4134">
        <ele>24.1</ele>
        <time>2022-05-24T13:11:42Z</time>
      </trkpt>
      <trkpt lat="49.23074" lon="-1.41332">
        <ele>24.2</ele>
        <time>2022-05-24T13:11:46Z</time>
      </trkpt>
      <trkpt lat="49.23073" lon="-1.41324">
        <ele>24.4</ele>
        <time>2022-05-24T13:11:49Z</time>
      </trkpt>
      <trkpt lat="49.23073" lon="-1.41315">
        <ele>24.7</ele>
        <time>2022-05-24T13:11:53Z</time>
      </trkpt>
      <trkpt lat="49.23072" lon="-1.41307">
        <ele>25</ele>
        <time>2022-05-24T13:11:57Z</time>
      </trkpt>
      <trkpt lat="49.23072" lon="-1.413">
        <ele>24.6</ele>
        <time>2022-05-24T13:12:01Z</time>
      </trkpt>
      <trkpt lat="49.23071" lon="-1.41292">
        <ele>24.6</ele>
        <time>2022-05-24T13:12:06Z</time>
      </trkpt>
      <trkpt lat="49.2307" lon="-1.41284">
        <ele>24.8</ele>
        <time>2022-05-24T13:12:10Z</time>
      </trkpt>
      <trkpt lat="49.23069" lon="-1.41275">
        <ele>25.5</ele>
        <time>2022-05-24T13:12:14Z</time>
      </trkpt>
      <trkpt lat="49.23068" lon="-1.41268">
        <ele>25.8</ele>
        <time>2022-05-24T13:12:17Z</time>
      </trkpt>
      <trkpt lat="49.23068" lon="-1.41259">
        <ele>25.3</ele>
        <time>2022-05-24T13:12:22Z</time>
      </trkpt>
      <trkpt lat="49.23067" lon="-1.41251">
        <ele>25.6</ele>
        <time>2022-05-24T13:12:27Z</time>
      </trkpt>
      <trkpt lat="49.23065" lon="-1.41244">
        <ele>25.7</ele>
        <time>2022-05-24T13:12:31Z</time>
      </trkpt>
      <trkpt lat="49.23065" lon="-1.41236">
        <ele>25.3</ele>
        <time>2022-05-24T13:12:35Z</time>
      </trkpt>
      <trkpt lat="49.23065" lon="-1.41228">
        <ele>24.9</ele>
        <time>2022-05-24T13:12:40Z</time>
      </trkpt>
      <trkpt lat="49.23064" lon="-1.41221">
        <ele>23.7</ele>
        <time>2022-05-24T13:12:44Z</time>
      </trkpt>
      <trkpt lat="49.2306" lon="-1.41216">
        <ele>23.6</ele>
        <time>2022-05-24T13:12:50Z</time>
      </trkpt>
      <trkpt lat="49.23059" lon="-1.41208">
        <ele>22.5</ele>
        <time>2022-05-24T13:12:54Z</time>
      </trkpt>
      <trkpt lat="49.23057" lon="-1.41201">
        <ele>22.2</ele>
        <time>2022-05-24T13:12:56Z</time>
      </trkpt>
      <trkpt lat="49.23056" lon="-1.41192">
        <ele>21.9</ele>
        <time>2022-05-24T13:13:01Z</time>
      </trkpt>
      <trkpt lat="49.23054" lon="-1.41185">
        <ele>23</ele>
        <time>2022-05-24T13:13:04Z</time>
      </trkpt>
      <trkpt lat="49.23054" lon="-1.41178">
        <ele>23.4</ele>
        <time>2022-05-24T13:13:09Z</time>
      </trkpt>
      <trkpt lat="49.23055" lon="-1.41171">
        <ele>25.1</ele>
        <time>2022-05-24T13:13:16Z</time>
      </trkpt>
      <trkpt lat="49.23053" lon="-1.41162">
        <ele>24.8</ele>
        <time>2022-05-24T13:13:20Z</time>
      </trkpt>
      <trkpt lat="49.23052" lon="-1.41154">
        <ele>24.2</ele>
        <time>2022-05-24T13:13:25Z</time>
      </trkpt>
      <trkpt lat="49.2305" lon="-1.41146">
        <ele>23.9</ele>
        <time>2022-05-24T13:13:30Z</time>
      </trkpt>
      <trkpt lat="49.23046" lon="-1.4114">
        <ele>23.2</ele>
        <time>2022-05-24T13:13:35Z</time>
      </trkpt>
      <trkpt lat="49.23041" lon="-1.4114">
        <ele>23.7</ele>
        <time>2022-05-24T13:13:38Z</time>
      </trkpt>
      <trkpt lat="49.23037" lon="-1.41136">
        <ele>26.8</ele>
        <time>2022-05-24T13:13:42Z</time>
      </trkpt>
      <trkpt lat="49.23035" lon="-1.4113">
        <ele>26.8</ele>
        <time>2022-05-24T13:13:45Z</time>
      </trkpt>
      <trkpt lat="49.23031" lon="-1.41124">
        <ele>26</ele>
        <time>2022-05-24T13:13:48Z</time>
      </trkpt>
      <trkpt lat="49.23027" lon="-1.41118">
        <ele>26.8</ele>
        <time>2022-05-24T13:13:52Z</time>
      </trkpt>
      <trkpt lat="49.23024" lon="-1.4111">
        <ele>26.8</ele>
        <time>2022-05-24T13:13:56Z</time>
      </trkpt>
      <trkpt lat="49.23021" lon="-1.41103">
        <ele>26.8</ele>
        <time>2022-05-24T13:14:00Z</time>
      </trkpt>
      <trkpt lat="49.23018" lon="-1.41098">
        <ele>26.8</ele>
        <time>2022-05-24T13:14:03Z</time>
      </trkpt>
      <trkpt lat="49.23015" lon="-1.41091">
        <ele>26.8</ele>
        <time>2022-05-24T13:14:06Z</time>
      </trkpt>
      <trkpt lat="49.23013" lon="-1.41085">
        <ele>26.8</ele>
        <time>2022-05-24T13:14:10Z</time>
      </trkpt>
      <trkpt lat="49.23011" lon="-1.41079">
        <ele>26.8</ele>
        <time>2022-05-24T13:14:14Z</time>
      </trkpt>
      <trkpt lat="49.23007" lon="-1.41073">
        <ele>26.8</ele>
        <time>2022-05-24T13:14:25Z</time>
      </trkpt>
      <trkpt lat="49.23005" lon="-1.41066">
        <ele>26.8</ele>
        <time>2022-05-24T13:14:28Z</time>
      </trkpt>
      <trkpt lat="49.23003" lon="-1.41058">
        <ele>26.8</ele>
        <time>2022-05-24T13:14:31Z</time>
      </trkpt>
      <trkpt lat="49.23002" lon="-1.4105">
        <ele>26.8</ele>
        <time>2022-05-24T13:14:35Z</time>
      </trkpt>
      <trkpt lat="49.23001" lon="-1.41042">
        <ele>26.8</ele>
        <time>2022-05-24T13:14:39Z</time>
      </trkpt>
      <trkpt lat="49.22999" lon="-1.41033">
        <ele>26.8</ele>
        <time>2022-05-24T13:14:43Z</time>
      </trkpt>
      <trkpt lat="49.22997" lon="-1.41026">
        <ele>26.8</ele>
        <time>2022-05-24T13:14:47Z</time>
      </trkpt>
      <trkpt lat="49.22996" lon="-1.41018">
        <ele>26.8</ele>
        <time>2022-05-24T13:14:51Z</time>
      </trkpt>
      <trkpt lat="49.22994" lon="-1.4101">
        <ele>26.8</ele>
        <time>2022-05-24T13:14:55Z</time>
      </trkpt>
      <trkpt lat="49.22992" lon="-1.41003">
        <ele>26.8</ele>
        <time>2022-05-24T13:14:59Z</time>
      </trkpt>
      <trkpt lat="49.2299" lon="-1.40997">
        <ele>26.8</ele>
        <time>2022-05-24T13:15:02Z</time>
      </trkpt>
      <trkpt lat="49.22988" lon="-1.40988">
        <ele>26.8</ele>
        <time>2022-05-24T13:15:06Z</time>
      </trkpt>
      <trkpt lat="49.22986" lon="-1.40981">
        <ele>26.8</ele>
        <time>2022-05-24T13:15:10Z</time>
      </trkpt>
      <trkpt lat="49.22985" lon="-1.40974">
        <ele>26.8</ele>
        <time>2022-05-24T13:15:13Z</time>
      </trkpt>
      <trkpt lat="49.22983" lon="-1.40967">
        <ele>26.8</ele>
        <time>2022-05-24T13:15:16Z</time>
      </trkpt>
      <trkpt lat="49.22981" lon="-1.4096">
        <ele>26.8</ele>
        <time>2022-05-24T13:15:19Z</time>
      </trkpt>
      <trkpt lat="49.2298" lon="-1.40953">
        <ele>22.8</ele>
        <time>2022-05-24T13:15:23Z</time>
      </trkpt>
      <trkpt lat="49.22978" lon="-1.40947">
        <ele>22.6</ele>
        <time>2022-05-24T13:15:26Z</time>
      </trkpt>
      <trkpt lat="49.22977" lon="-1.4094">
        <ele>22.8</ele>
        <time>2022-05-24T13:15:30Z</time>
      </trkpt>
      <trkpt lat="49.22976" lon="-1.40932">
        <ele>23.1</ele>
        <time>2022-05-24T13:15:34Z</time>
      </trkpt>
      <trkpt lat="49.22974" lon="-1.40925">
        <ele>23</ele>
        <time>2022-05-24T13:15:40Z</time>
      </trkpt>
      <trkpt lat="49.22974" lon="-1.40917">
        <ele>22.8</ele>
        <time>2022-05-24T13:15:44Z</time>
      </trkpt>
      <trkpt lat="49.22972" lon="-1.4091">
        <ele>23</ele>
        <time>2022-05-24T13:15:48Z</time>
      </trkpt>
      <trkpt lat="49.22972" lon="-1.40903">
        <ele>23.4</ele>
        <time>2022-05-24T13:15:59Z</time>
      </trkpt>
      <trkpt lat="49.22971" lon="-1.40896">
        <ele>23.6</ele>
        <time>2022-05-24T13:16:03Z</time>
      </trkpt>
      <trkpt lat="49.22971" lon="-1.40888">
        <ele>23.3</ele>
        <time>2022-05-24T13:16:11Z</time>
      </trkpt>
      <trkpt lat="49.22969" lon="-1.4088">
        <ele>23.8</ele>
        <time>2022-05-24T13:16:14Z</time>
      </trkpt>
      <trkpt lat="49.22968" lon="-1.40873">
        <ele>23.5</ele>
        <time>2022-05-24T13:16:17Z</time>
      </trkpt>
      <trkpt lat="49.22968" lon="-1.40863">
        <ele>23.3</ele>
        <time>2022-05-24T13:16:22Z</time>
      </trkpt>
      <trkpt lat="49.22968" lon="-1.40855">
        <ele>22.7</ele>
        <time>2022-05-24T13:16:26Z</time>
      </trkpt>
      <trkpt lat="49.22966" lon="-1.40848">
        <ele>23.2</ele>
        <time>2022-05-24T13:16:30Z</time>
      </trkpt>
      <trkpt lat="49.22963" lon="-1.40842">
        <ele>23.3</ele>
        <time>2022-05-24T13:16:33Z</time>
      </trkpt>
      <trkpt lat="49.22959" lon="-1.40836">
        <ele>23.7</ele>
        <time>2022-05-24T13:16:37Z</time>
      </trkpt>
      <trkpt lat="49.22955" lon="-1.40831">
        <ele>23.4</ele>
        <time>2022-05-24T13:16:43Z</time>
      </trkpt>
      <trkpt lat="49.22951" lon="-1.40824">
        <ele>23.1</ele>
        <time>2022-05-24T13:16:48Z</time>
      </trkpt>
      <trkpt lat="49.22947" lon="-1.40818">
        <ele>22.9</ele>
        <time>2022-05-24T13:16:52Z</time>
      </trkpt>
      <trkpt lat="49.22944" lon="-1.40811">
        <ele>22.5</ele>
        <time>2022-05-24T13:16:57Z</time>
      </trkpt>
      <trkpt lat="49.2294" lon="-1.40804">
        <ele>22.4</ele>
        <time>2022-05-24T13:17:02Z</time>
      </trkpt>
      <trkpt lat="49.22936" lon="-1.40799">
        <ele>22.9</ele>
        <time>2022-05-24T13:17:06Z</time>
      </trkpt>
      <trkpt lat="49.22933" lon="-1.40791">
        <ele>22.9</ele>
        <time>2022-05-24T13:17:09Z</time>
      </trkpt>
      <trkpt lat="49.2293" lon="-1.40783">
        <ele>23.2</ele>
        <time>2022-05-24T13:17:13Z</time>
      </trkpt>
      <trkpt lat="49.22927" lon="-1.40776">
        <ele>24.1</ele>
        <time>2022-05-24T13:17:18Z</time>
      </trkpt>
      <trkpt lat="49.22923" lon="-1.40771">
        <ele>24.3</ele>
        <time>2022-05-24T13:17:22Z</time>
      </trkpt>
      <trkpt lat="49.22919" lon="-1.40766">
        <ele>25.3</ele>
        <time>2022-05-24T13:17:26Z</time>
      </trkpt>
      <trkpt lat="49.22917" lon="-1.40759">
        <ele>25.1</ele>
        <time>2022-05-24T13:17:29Z</time>
      </trkpt>
      <trkpt lat="49.22915" lon="-1.40753">
        <ele>25.5</ele>
        <time>2022-05-24T13:17:33Z</time>
      </trkpt>
      <trkpt lat="49.22912" lon="-1.40744">
        <ele>25</ele>
        <time>2022-05-24T13:17:37Z</time>
      </trkpt>
      <trkpt lat="49.22908" lon="-1.4074">
        <ele>24.6</ele>
        <time>2022-05-24T13:17:41Z</time>
      </trkpt>
      <trkpt lat="49.22903" lon="-1.40735">
        <ele>24.8</ele>
        <time>2022-05-24T13:17:46Z</time>
      </trkpt>
      <trkpt lat="49.229" lon="-1.40731">
        <ele>25.2</ele>
        <time>2022-05-24T13:17:50Z</time>
      </trkpt>
      <trkpt lat="49.22898" lon="-1.40724">
        <ele>26.2</ele>
        <time>2022-05-24T13:17:52Z</time>
      </trkpt>
      <trkpt lat="49.22896" lon="-1.40716">
        <ele>26</ele>
        <time>2022-05-24T13:17:57Z</time>
      </trkpt>
      <trkpt lat="49.22892" lon="-1.40709">
        <ele>26</ele>
        <time>2022-05-24T13:18:00Z</time>
      </trkpt>
      <trkpt lat="49.22889" lon="-1.40702">
        <ele>25.8</ele>
        <time>2022-05-24T13:18:04Z</time>
      </trkpt>
      <trkpt lat="49.22885" lon="-1.40693">
        <ele>25.2</ele>
        <time>2022-05-24T13:18:09Z</time>
      </trkpt>
      <trkpt lat="49.22883" lon="-1.40685">
        <ele>25.4</ele>
        <time>2022-05-24T13:18:14Z</time>
      </trkpt>
      <trkpt lat="49.22879" lon="-1.40678">
        <ele>25.9</ele>
        <time>2022-05-24T13:18:18Z</time>
      </trkpt>
      <trkpt lat="49.22877" lon="-1.40673">
        <ele>24.8</ele>
        <time>2022-05-24T13:18:23Z</time>
      </trkpt>
      <trkpt lat="49.22875" lon="-1.40665">
        <ele>24.5</ele>
        <time>2022-05-24T13:18:27Z</time>
      </trkpt>
      <trkpt lat="49.22872" lon="-1.40659">
        <ele>24.8</ele>
        <time>2022-05-24T13:18:31Z</time>
      </trkpt>
      <trkpt lat="49.22869" lon="-1.40651">
        <ele>24.8</ele>
        <time>2022-05-24T13:18:35Z</time>
      </trkpt>
      <trkpt lat="49.22867" lon="-1.40644">
        <ele>25.1</ele>
        <time>2022-05-24T13:18:49Z</time>
      </trkpt>
      <trkpt lat="49.22863" lon="-1.40636">
        <ele>24.9</ele>
        <time>2022-05-24T13:18:54Z</time>
      </trkpt>
      <trkpt lat="49.2286" lon="-1.40628">
        <ele>24.9</ele>
        <time>2022-05-24T13:18:58Z</time>
      </trkpt>
      <trkpt lat="49.22857" lon="-1.40621">
        <ele>24.4</ele>
        <time>2022-05-24T13:19:01Z</time>
      </trkpt>
      <trkpt lat="49.22854" lon="-1.40615">
        <ele>24.1</ele>
        <time>2022-05-24T13:19:04Z</time>
      </trkpt>
      <trkpt lat="49.22851" lon="-1.40608">
        <ele>24.1</ele>
        <time>2022-05-24T13:19:09Z</time>
      </trkpt>
      <trkpt lat="49.22849" lon="-1.40601">
        <ele>23.6</ele>
        <time>2022-05-24T13:19:12Z</time>
      </trkpt>
      <trkpt lat="49.22847" lon="-1.40594">
        <ele>23.6</ele>
        <time>2022-05-24T13:19:15Z</time>
      </trkpt>
      <trkpt lat="49.22844" lon="-1.40586">
        <ele>23.5</ele>
        <time>2022-05-24T13:19:19Z</time>
      </trkpt>
      <trkpt lat="49.22842" lon="-1.40579">
        <ele>22.9</ele>
        <time>2022-05-24T13:19:24Z</time>
      </trkpt>
      <trkpt lat="49.22839" lon="-1.40572">
        <ele>22.5</ele>
        <time>2022-05-24T13:19:27Z</time>
      </trkpt>
      <trkpt lat="49.22836" lon="-1.40566">
        <ele>21.1</ele>
        <time>2022-05-24T13:19:30Z</time>
      </trkpt>
      <trkpt lat="49.22833" lon="-1.40561">
        <ele>19.9</ele>
        <time>2022-05-24T13:19:34Z</time>
      </trkpt>
      <trkpt lat="49.2283" lon="-1.40555">
        <ele>18.3</ele>
        <time>2022-05-24T13:19:37Z</time>
      </trkpt>
      <trkpt lat="49.22828" lon="-1.40549">
        <ele>17.9</ele>
        <time>2022-05-24T13:19:42Z</time>
      </trkpt>
      <trkpt lat="49.22824" lon="-1.40542">
        <ele>18.6</ele>
        <time>2022-05-24T13:19:46Z</time>
      </trkpt>
      <trkpt lat="49.2282" lon="-1.40538">
        <ele>18.3</ele>
        <time>2022-05-24T13:19:49Z</time>
      </trkpt>
      <trkpt lat="49.22816" lon="-1.40535">
        <ele>17.3</ele>
        <time>2022-05-24T13:19:53Z</time>
      </trkpt>
      <trkpt lat="49.22811" lon="-1.40531">
        <ele>17.4</ele>
        <time>2022-05-24T13:19:58Z</time>
      </trkpt>
      <trkpt lat="49.22807" lon="-1.40527">
        <ele>17.9</ele>
        <time>2022-05-24T13:20:02Z</time>
      </trkpt>
      <trkpt lat="49.22804" lon="-1.40521">
        <ele>18.1</ele>
        <time>2022-05-24T13:20:09Z</time>
      </trkpt>
      <trkpt lat="49.228" lon="-1.40515">
        <ele>18.8</ele>
        <time>2022-05-24T13:20:14Z</time>
      </trkpt>
      <trkpt lat="49.22797" lon="-1.4051">
        <ele>17.6</ele>
        <time>2022-05-24T13:20:17Z</time>
      </trkpt>
      <trkpt lat="49.22792" lon="-1.40506">
        <ele>18.1</ele>
        <time>2022-05-24T13:20:22Z</time>
      </trkpt>
      <trkpt lat="49.22787" lon="-1.40503">
        <ele>17.4</ele>
        <time>2022-05-24T13:20:28Z</time>
      </trkpt>
      <trkpt lat="49.22783" lon="-1.40493">
        <ele>17.4</ele>
        <time>2022-05-24T13:20:33Z</time>
      </trkpt>
      <trkpt lat="49.2278" lon="-1.40487">
        <ele>17.5</ele>
        <time>2022-05-24T13:20:36Z</time>
      </trkpt>
      <trkpt lat="49.22776" lon="-1.40482">
        <ele>17.4</ele>
        <time>2022-05-24T13:20:40Z</time>
      </trkpt>
      <trkpt lat="49.22773" lon="-1.40477">
        <ele>17.2</ele>
        <time>2022-05-24T13:20:43Z</time>
      </trkpt>
      <trkpt lat="49.22768" lon="-1.40473">
        <ele>16.7</ele>
        <time>2022-05-24T13:20:48Z</time>
      </trkpt>
      <trkpt lat="49.22766" lon="-1.40467">
        <ele>17.1</ele>
        <time>2022-05-24T13:20:58Z</time>
      </trkpt>
      <trkpt lat="49.22762" lon="-1.40461">
        <ele>16.5</ele>
        <time>2022-05-24T13:21:02Z</time>
      </trkpt>
      <trkpt lat="49.22757" lon="-1.40457">
        <ele>16.2</ele>
        <time>2022-05-24T13:21:06Z</time>
      </trkpt>
      <trkpt lat="49.22752" lon="-1.40452">
        <ele>16.2</ele>
        <time>2022-05-24T13:21:10Z</time>
      </trkpt>
      <trkpt lat="49.22748" lon="-1.40446">
        <ele>15.6</ele>
        <time>2022-05-24T13:21:20Z</time>
      </trkpt>
      <trkpt lat="49.22743" lon="-1.40442">
        <ele>15.5</ele>
        <time>2022-05-24T13:21:40Z</time>
      </trkpt>
      <trkpt lat="49.22738" lon="-1.40437">
        <ele>15.8</ele>
        <time>2022-05-24T13:21:45Z</time>
      </trkpt>
      <trkpt lat="49.22733" lon="-1.40433">
        <ele>15.6</ele>
        <time>2022-05-24T13:21:51Z</time>
      </trkpt>
      <trkpt lat="49.22728" lon="-1.40429">
        <ele>15.1</ele>
        <time>2022-05-24T13:21:55Z</time>
      </trkpt>
      <trkpt lat="49.22723" lon="-1.40425">
        <ele>15.1</ele>
        <time>2022-05-24T13:21:58Z</time>
      </trkpt>
      <trkpt lat="49.22719" lon="-1.40421">
        <ele>14.9</ele>
        <time>2022-05-24T13:22:02Z</time>
      </trkpt>
      <trkpt lat="49.22715" lon="-1.40417">
        <ele>15</ele>
        <time>2022-05-24T13:22:06Z</time>
      </trkpt>
      <trkpt lat="49.2271" lon="-1.40412">
        <ele>15.1</ele>
        <time>2022-05-24T13:22:10Z</time>
      </trkpt>
      <trkpt lat="49.22706" lon="-1.40408">
        <ele>14.1</ele>
        <time>2022-05-24T13:22:13Z</time>
      </trkpt>
      <trkpt lat="49.22702" lon="-1.40403">
        <ele>12.6</ele>
        <time>2022-05-24T13:22:18Z</time>
      </trkpt>
      <trkpt lat="49.22698" lon="-1.40398">
        <ele>12.5</ele>
        <time>2022-05-24T13:22:23Z</time>
      </trkpt>
      <trkpt lat="49.22695" lon="-1.40393">
        <ele>11.7</ele>
        <time>2022-05-24T13:22:27Z</time>
      </trkpt>
      <trkpt lat="49.22689" lon="-1.40389">
        <ele>11.3</ele>
        <time>2022-05-24T13:22:31Z</time>
      </trkpt>
      <trkpt lat="49.22684" lon="-1.40388">
        <ele>11.2</ele>
        <time>2022-05-24T13:22:35Z</time>
      </trkpt>
      <trkpt lat="49.2268" lon="-1.40386">
        <ele>11.1</ele>
        <time>2022-05-24T13:22:38Z</time>
      </trkpt>
      <trkpt lat="49.22674" lon="-1.40384">
        <ele>11.1</ele>
        <time>2022-05-24T13:22:42Z</time>
      </trkpt>
      <trkpt lat="49.2267" lon="-1.4038">
        <ele>10.7</ele>
        <time>2022-05-24T13:22:45Z</time>
      </trkpt>
      <trkpt lat="49.22665" lon="-1.40376">
        <ele>10.8</ele>
        <time>2022-05-24T13:22:49Z</time>
      </trkpt>
      <trkpt lat="49.22661" lon="-1.40373">
        <ele>10.5</ele>
        <time>2022-05-24T13:22:53Z</time>
      </trkpt>
      <trkpt lat="49.22656" lon="-1.40369">
        <ele>11.1</ele>
        <time>2022-05-24T13:22:56Z</time>
      </trkpt>
      <trkpt lat="49.22651" lon="-1.40366">
        <ele>11.2</ele>
        <time>2022-05-24T13:23:01Z</time>
      </trkpt>
      <trkpt lat="49.22646" lon="-1.40363">
        <ele>11.2</ele>
        <time>2022-05-24T13:23:05Z</time>
      </trkpt>
      <trkpt lat="49.22641" lon="-1.4036">
        <ele>11.1</ele>
        <time>2022-05-24T13:23:08Z</time>
      </trkpt>
      <trkpt lat="49.22636" lon="-1.40355">
        <ele>10.4</ele>
        <time>2022-05-24T13:23:13Z</time>
      </trkpt>
      <trkpt lat="49.22632" lon="-1.40351">
        <ele>10.7</ele>
        <time>2022-05-24T13:23:16Z</time>
      </trkpt>
      <trkpt lat="49.22628" lon="-1.40348">
        <ele>11</ele>
        <time>2022-05-24T13:23:20Z</time>
      </trkpt>
      <trkpt lat="49.22623" lon="-1.40349">
        <ele>12.9</ele>
        <time>2022-05-24T13:23:24Z</time>
      </trkpt>
      <trkpt lat="49.22618" lon="-1.40347">
        <ele>12.6</ele>
        <time>2022-05-24T13:23:27Z</time>
      </trkpt>
      <trkpt lat="49.22613" lon="-1.40342">
        <ele>12.5</ele>
        <time>2022-05-24T13:23:31Z</time>
      </trkpt>
      <trkpt lat="49.22608" lon="-1.40338">
        <ele>14</ele>
        <time>2022-05-24T13:23:35Z</time>
      </trkpt>
      <trkpt lat="49.22603" lon="-1.40335">
        <ele>13.6</ele>
        <time>2022-05-24T13:23:38Z</time>
      </trkpt>
      <trkpt lat="49.22598" lon="-1.40332">
        <ele>13.2</ele>
        <time>2022-05-24T13:23:42Z</time>
      </trkpt>
      <trkpt lat="49.22594" lon="-1.4033">
        <ele>13.1</ele>
        <time>2022-05-24T13:23:46Z</time>
      </trkpt>
      <trkpt lat="49.22588" lon="-1.40327">
        <ele>12.6</ele>
        <time>2022-05-24T13:23:50Z</time>
      </trkpt>
      <trkpt lat="49.22583" lon="-1.40324">
        <ele>12.9</ele>
        <time>2022-05-24T13:23:55Z</time>
      </trkpt>
      <trkpt lat="49.22578" lon="-1.40321">
        <ele>12.8</ele>
        <time>2022-05-24T13:23:59Z</time>
      </trkpt>
      <trkpt lat="49.22573" lon="-1.40319">
        <ele>12.4</ele>
        <time>2022-05-24T13:24:03Z</time>
      </trkpt>
      <trkpt lat="49.22568" lon="-1.40318">
        <ele>12.4</ele>
        <time>2022-05-24T13:24:07Z</time>
      </trkpt>
      <trkpt lat="49.22563" lon="-1.40315">
        <ele>12.4</ele>
        <time>2022-05-24T13:24:10Z</time>
      </trkpt>
      <trkpt lat="49.22559" lon="-1.40313">
        <ele>12.2</ele>
        <time>2022-05-24T13:24:13Z</time>
      </trkpt>
      <trkpt lat="49.22553" lon="-1.40311">
        <ele>12.2</ele>
        <time>2022-05-24T13:24:17Z</time>
      </trkpt>
      <trkpt lat="49.22547" lon="-1.40309">
        <ele>12</ele>
        <time>2022-05-24T13:24:21Z</time>
      </trkpt>
      <trkpt lat="49.22542" lon="-1.40309">
        <ele>11.9</ele>
        <time>2022-05-24T13:24:26Z</time>
      </trkpt>
      <trkpt lat="49.22537" lon="-1.40307">
        <ele>11.8</ele>
        <time>2022-05-24T13:24:29Z</time>
      </trkpt>
      <trkpt lat="49.22531" lon="-1.40306">
        <ele>11.7</ele>
        <time>2022-05-24T13:24:34Z</time>
      </trkpt>
      <trkpt lat="49.22526" lon="-1.40306">
        <ele>11.7</ele>
        <time>2022-05-24T13:24:38Z</time>
      </trkpt>
      <trkpt lat="49.2252" lon="-1.40303">
        <ele>12.1</ele>
        <time>2022-05-24T13:24:46Z</time>
      </trkpt>
      <trkpt lat="49.22515" lon="-1.40304">
        <ele>11.9</ele>
        <time>2022-05-24T13:24:49Z</time>
      </trkpt>
      <trkpt lat="49.22509" lon="-1.40305">
        <ele>11</ele>
        <time>2022-05-24T13:24:52Z</time>
      </trkpt>
      <trkpt lat="49.22505" lon="-1.40306">
        <ele>10.6</ele>
        <time>2022-05-24T13:24:56Z</time>
      </trkpt>
      <trkpt lat="49.22499" lon="-1.40308">
        <ele>11.1</ele>
        <time>2022-05-24T13:25:00Z</time>
      </trkpt>
      <trkpt lat="49.22493" lon="-1.40311">
        <ele>10.6</ele>
        <time>2022-05-24T13:25:04Z</time>
      </trkpt>
      <trkpt lat="49.22488" lon="-1.40312">
        <ele>11.2</ele>
        <time>2022-05-24T13:25:08Z</time>
      </trkpt>
      <trkpt lat="49.22483" lon="-1.40314">
        <ele>10</ele>
        <time>2022-05-24T13:25:12Z</time>
      </trkpt>
      <trkpt lat="49.22478" lon="-1.40317">
        <ele>10.2</ele>
        <time>2022-05-24T13:25:16Z</time>
      </trkpt>
      <trkpt lat="49.22472" lon="-1.40319">
        <ele>9.4</ele>
        <time>2022-05-24T13:25:19Z</time>
      </trkpt>
      <trkpt lat="49.22466" lon="-1.4032">
        <ele>10.5</ele>
        <time>2022-05-24T13:25:23Z</time>
      </trkpt>
      <trkpt lat="49.22461" lon="-1.40322">
        <ele>10.5</ele>
        <time>2022-05-24T13:25:28Z</time>
      </trkpt>
      <trkpt lat="49.22455" lon="-1.40323">
        <ele>10</ele>
        <time>2022-05-24T13:25:31Z</time>
      </trkpt>
      <trkpt lat="49.2245" lon="-1.40324">
        <ele>11.2</ele>
        <time>2022-05-24T13:25:35Z</time>
      </trkpt>
      <trkpt lat="49.22445" lon="-1.40327">
        <ele>11.1</ele>
        <time>2022-05-24T13:25:38Z</time>
      </trkpt>
      <trkpt lat="49.2244" lon="-1.4033">
        <ele>11.3</ele>
        <time>2022-05-24T13:25:41Z</time>
      </trkpt>
      <trkpt lat="49.22435" lon="-1.40333">
        <ele>11.6</ele>
        <time>2022-05-24T13:25:44Z</time>
      </trkpt>
      <trkpt lat="49.2243" lon="-1.40335">
        <ele>12.2</ele>
        <time>2022-05-24T13:25:48Z</time>
      </trkpt>
      <trkpt lat="49.22426" lon="-1.40337">
        <ele>12.4</ele>
        <time>2022-05-24T13:25:52Z</time>
      </trkpt>
      <trkpt lat="49.2242" lon="-1.40341">
        <ele>12.8</ele>
        <time>2022-05-24T13:25:56Z</time>
      </trkpt>
      <trkpt lat="49.22416" lon="-1.40345">
        <ele>13.2</ele>
        <time>2022-05-24T13:25:59Z</time>
      </trkpt>
      <trkpt lat="49.22411" lon="-1.40349">
        <ele>13.5</ele>
        <time>2022-05-24T13:26:03Z</time>
      </trkpt>
      <trkpt lat="49.22406" lon="-1.40353">
        <ele>14.3</ele>
        <time>2022-05-24T13:26:07Z</time>
      </trkpt>
      <trkpt lat="49.224" lon="-1.40357">
        <ele>14.7</ele>
        <time>2022-05-24T13:26:10Z</time>
      </trkpt>
      <trkpt lat="49.22395" lon="-1.40362">
        <ele>14.7</ele>
        <time>2022-05-24T13:26:15Z</time>
      </trkpt>
      <trkpt lat="49.22391" lon="-1.40366">
        <ele>14.7</ele>
        <time>2022-05-24T13:26:19Z</time>
      </trkpt>
      <trkpt lat="49.22387" lon="-1.4037">
        <ele>14.8</ele>
        <time>2022-05-24T13:26:22Z</time>
      </trkpt>
      <trkpt lat="49.22383" lon="-1.40374">
        <ele>15</ele>
        <time>2022-05-24T13:26:26Z</time>
      </trkpt>
      <trkpt lat="49.22378" lon="-1.40378">
        <ele>15.2</ele>
        <time>2022-05-24T13:26:30Z</time>
      </trkpt>
      <trkpt lat="49.22374" lon="-1.40382">
        <ele>15.6</ele>
        <time>2022-05-24T13:26:34Z</time>
      </trkpt>
      <trkpt lat="49.22369" lon="-1.40387">
        <ele>15.7</ele>
        <time>2022-05-24T13:26:38Z</time>
      </trkpt>
      <trkpt lat="49.22365" lon="-1.40391">
        <ele>15.8</ele>
        <time>2022-05-24T13:26:41Z</time>
      </trkpt>
      <trkpt lat="49.22361" lon="-1.40395">
        <ele>15.7</ele>
        <time>2022-05-24T13:26:44Z</time>
      </trkpt>
      <trkpt lat="49.22358" lon="-1.404">
        <ele>16</ele>
        <time>2022-05-24T13:26:48Z</time>
      </trkpt>
      <trkpt lat="49.22354" lon="-1.40407">
        <ele>16.3</ele>
        <time>2022-05-24T13:26:52Z</time>
      </trkpt>
      <trkpt lat="49.22351" lon="-1.40412">
        <ele>16.5</ele>
        <time>2022-05-24T13:26:55Z</time>
      </trkpt>
      <trkpt lat="49.22349" lon="-1.40421">
        <ele>16.5</ele>
        <time>2022-05-24T13:27:00Z</time>
      </trkpt>
      <trkpt lat="49.2235" lon="-1.40428">
        <ele>16.8</ele>
        <time>2022-05-24T13:27:03Z</time>
      </trkpt>
      <trkpt lat="49.22352" lon="-1.40434">
        <ele>17</ele>
        <time>2022-05-24T13:27:06Z</time>
      </trkpt>
      <trkpt lat="49.22355" lon="-1.40441">
        <ele>16.9</ele>
        <time>2022-05-24T13:27:11Z</time>
      </trkpt>
      <trkpt lat="49.22359" lon="-1.40446">
        <ele>17.3</ele>
        <time>2022-05-24T13:27:15Z</time>
      </trkpt>
      <trkpt lat="49.22363" lon="-1.40451">
        <ele>17.6</ele>
        <time>2022-05-24T13:27:18Z</time>
      </trkpt>
      <trkpt lat="49.22366" lon="-1.40456">
        <ele>18.5</ele>
        <time>2022-05-24T13:27:22Z</time>
      </trkpt>
      <trkpt lat="49.2237" lon="-1.4046">
        <ele>19.3</ele>
        <time>2022-05-24T13:27:25Z</time>
      </trkpt>
      <trkpt lat="49.22373" lon="-1.40467">
        <ele>19.3</ele>
        <time>2022-05-24T13:27:29Z</time>
      </trkpt>
      <trkpt lat="49.22376" lon="-1.40475">
        <ele>19.4</ele>
        <time>2022-05-24T13:27:33Z</time>
      </trkpt>
      <trkpt lat="49.22379" lon="-1.40482">
        <ele>19.8</ele>
        <time>2022-05-24T13:27:38Z</time>
      </trkpt>
      <trkpt lat="49.22383" lon="-1.40489">
        <ele>19.6</ele>
        <time>2022-05-24T13:27:42Z</time>
      </trkpt>
      <trkpt lat="49.22386" lon="-1.40495">
        <ele>20.3</ele>
        <time>2022-05-24T13:27:45Z</time>
      </trkpt>
      <trkpt lat="49.22391" lon="-1.40503">
        <ele>20.6</ele>
        <time>2022-05-24T13:27:50Z</time>
      </trkpt>
      <trkpt lat="49.22395" lon="-1.4051">
        <ele>20.4</ele>
        <time>2022-05-24T13:27:55Z</time>
      </trkpt>
      <trkpt lat="49.22399" lon="-1.40517">
        <ele>21.6</ele>
        <time>2022-05-24T13:28:00Z</time>
      </trkpt>
      <trkpt lat="49.22404" lon="-1.40523">
        <ele>22.5</ele>
        <time>2022-05-24T13:28:05Z</time>
      </trkpt>
      <trkpt lat="49.22406" lon="-1.4053">
        <ele>22.8</ele>
        <time>2022-05-24T13:28:14Z</time>
      </trkpt>
      <trkpt lat="49.22408" lon="-1.40537">
        <ele>22.6</ele>
        <time>2022-05-24T13:28:17Z</time>
      </trkpt>
      <trkpt lat="49.22409" lon="-1.40544">
        <ele>23.1</ele>
        <time>2022-05-24T13:28:22Z</time>
      </trkpt>
      <trkpt lat="49.22413" lon="-1.4055">
        <ele>23.9</ele>
        <time>2022-05-24T13:28:26Z</time>
      </trkpt>
      <trkpt lat="49.22418" lon="-1.40553">
        <ele>23.8</ele>
        <time>2022-05-24T13:28:32Z</time>
      </trkpt>
      <trkpt lat="49.22421" lon="-1.40561">
        <ele>24.2</ele>
        <time>2022-05-24T13:28:42Z</time>
      </trkpt>
      <trkpt lat="49.22426" lon="-1.40565">
        <ele>24.8</ele>
        <time>2022-05-24T13:28:45Z</time>
      </trkpt>
      <trkpt lat="49.22428" lon="-1.40574">
        <ele>25.1</ele>
        <time>2022-05-24T13:28:49Z</time>
      </trkpt>
      <trkpt lat="49.2243" lon="-1.4058">
        <ele>25.5</ele>
        <time>2022-05-24T13:28:52Z</time>
      </trkpt>
      <trkpt lat="49.22432" lon="-1.40588">
        <ele>25.4</ele>
        <time>2022-05-24T13:28:56Z</time>
      </trkpt>
      <trkpt lat="49.22435" lon="-1.40596">
        <ele>25.8</ele>
        <time>2022-05-24T13:29:00Z</time>
      </trkpt>
      <trkpt lat="49.22438" lon="-1.40603">
        <ele>25.6</ele>
        <time>2022-05-24T13:29:05Z</time>
      </trkpt>
      <trkpt lat="49.22442" lon="-1.40608">
        <ele>25.7</ele>
        <time>2022-05-24T13:29:09Z</time>
      </trkpt>
      <trkpt lat="49.22446" lon="-1.40614">
        <ele>26.5</ele>
        <time>2022-05-24T13:29:14Z</time>
      </trkpt>
      <trkpt lat="49.22451" lon="-1.40619">
        <ele>26.8</ele>
        <time>2022-05-24T13:29:19Z</time>
      </trkpt>
      <trkpt lat="49.22454" lon="-1.40628">
        <ele>27.3</ele>
        <time>2022-05-24T13:29:23Z</time>
      </trkpt>
      <trkpt lat="49.22456" lon="-1.40635">
        <ele>27.4</ele>
        <time>2022-05-24T13:29:26Z</time>
      </trkpt>
      <trkpt lat="49.22459" lon="-1.40643">
        <ele>27.6</ele>
        <time>2022-05-24T13:29:31Z</time>
      </trkpt>
      <trkpt lat="49.22462" lon="-1.40649">
        <ele>27.9</ele>
        <time>2022-05-24T13:29:35Z</time>
      </trkpt>
      <trkpt lat="49.22465" lon="-1.40656">
        <ele>28.2</ele>
        <time>2022-05-24T13:29:39Z</time>
      </trkpt>
      <trkpt lat="49.22468" lon="-1.40664">
        <ele>28</ele>
        <time>2022-05-24T13:29:43Z</time>
      </trkpt>
      <trkpt lat="49.22471" lon="-1.40671">
        <ele>28.5</ele>
        <time>2022-05-24T13:29:47Z</time>
      </trkpt>
      <trkpt lat="49.22474" lon="-1.40678">
        <ele>29.1</ele>
        <time>2022-05-24T13:29:51Z</time>
      </trkpt>
      <trkpt lat="49.22477" lon="-1.40685">
        <ele>29.8</ele>
        <time>2022-05-24T13:29:55Z</time>
      </trkpt>
      <trkpt lat="49.2248" lon="-1.40693">
        <ele>29.6</ele>
        <time>2022-05-24T13:29:59Z</time>
      </trkpt>
      <trkpt lat="49.22484" lon="-1.40698">
        <ele>30.2</ele>
        <time>2022-05-24T13:30:03Z</time>
      </trkpt>
      <trkpt lat="49.22487" lon="-1.40704">
        <ele>30.5</ele>
        <time>2022-05-24T13:30:07Z</time>
      </trkpt>
      <trkpt lat="49.22491" lon="-1.40709">
        <ele>30.5</ele>
        <time>2022-05-24T13:30:11Z</time>
      </trkpt>
      <trkpt lat="49.22494" lon="-1.40714">
        <ele>30.6</ele>
        <time>2022-05-24T13:30:14Z</time>
      </trkpt>
      <trkpt lat="49.22497" lon="-1.4072">
        <ele>30.6</ele>
        <time>2022-05-24T13:30:18Z</time>
      </trkpt>
      <trkpt lat="49.22502" lon="-1.40726">
        <ele>31</ele>
        <time>2022-05-24T13:30:22Z</time>
      </trkpt>
      <trkpt lat="49.22505" lon="-1.40731">
        <ele>30.8</ele>
        <time>2022-05-24T13:30:25Z</time>
      </trkpt>
      <trkpt lat="49.22509" lon="-1.40736">
        <ele>30.8</ele>
        <time>2022-05-24T13:30:28Z</time>
      </trkpt>
      <trkpt lat="49.22513" lon="-1.40742">
        <ele>30.6</ele>
        <time>2022-05-24T13:30:33Z</time>
      </trkpt>
      <trkpt lat="49.22517" lon="-1.40747">
        <ele>30.6</ele>
        <time>2022-05-24T13:30:36Z</time>
      </trkpt>
      <trkpt lat="49.2252" lon="-1.40751">
        <ele>31</ele>
        <time>2022-05-24T13:30:40Z</time>
      </trkpt>
      <trkpt lat="49.22525" lon="-1.40756">
        <ele>31</ele>
        <time>2022-05-24T13:30:44Z</time>
      </trkpt>
      <trkpt lat="49.22529" lon="-1.40759">
        <ele>30.6</ele>
        <time>2022-05-24T13:30:48Z</time>
      </trkpt>
      <trkpt lat="49.22531" lon="-1.40766">
        <ele>30.5</ele>
        <time>2022-05-24T13:30:51Z</time>
      </trkpt>
      <trkpt lat="49.22532" lon="-1.40774">
        <ele>30.9</ele>
        <time>2022-05-24T13:30:56Z</time>
      </trkpt>
      <trkpt lat="49.22532" lon="-1.40782">
        <ele>30.6</ele>
        <time>2022-05-24T13:31:01Z</time>
      </trkpt>
      <trkpt lat="49.22532" lon="-1.40791">
        <ele>30.7</ele>
        <time>2022-05-24T13:32:24Z</time>
      </trkpt>
      <trkpt lat="49.22533" lon="-1.40799">
        <ele>30.3</ele>
        <time>2022-05-24T13:32:28Z</time>
      </trkpt>
      <trkpt lat="49.22535" lon="-1.40806">
        <ele>29.8</ele>
        <time>2022-05-24T13:32:31Z</time>
      </trkpt>
      <trkpt lat="49.22536" lon="-1.40813">
        <ele>30.2</ele>
        <time>2022-05-24T13:32:34Z</time>
      </trkpt>
      <trkpt lat="49.22537" lon="-1.40821">
        <ele>29.5</ele>
        <time>2022-05-24T13:32:37Z</time>
      </trkpt>
      <trkpt lat="49.22537" lon="-1.40829">
        <ele>29.7</ele>
        <time>2022-05-24T13:32:41Z</time>
      </trkpt>
      <trkpt lat="49.22535" lon="-1.40838">
        <ele>29.3</ele>
        <time>2022-05-24T13:32:45Z</time>
      </trkpt>
      <trkpt lat="49.22534" lon="-1.40846">
        <ele>29.5</ele>
        <time>2022-05-24T13:32:48Z</time>
      </trkpt>
      <trkpt lat="49.22532" lon="-1.40853">
        <ele>29</ele>
        <time>2022-05-24T13:32:52Z</time>
      </trkpt>
      <trkpt lat="49.2253" lon="-1.40859">
        <ele>29.9</ele>
        <time>2022-05-24T13:32:55Z</time>
      </trkpt>
      <trkpt lat="49.22528" lon="-1.40867">
        <ele>30.7</ele>
        <time>2022-05-24T13:33:02Z</time>
      </trkpt>
      <trkpt lat="49.22526" lon="-1.40875">
        <ele>30.3</ele>
        <time>2022-05-24T13:33:07Z</time>
      </trkpt>
      <trkpt lat="49.22525" lon="-1.40882">
        <ele>30.5</ele>
        <time>2022-05-24T13:33:11Z</time>
      </trkpt>
      <trkpt lat="49.22525" lon="-1.40891">
        <ele>31.7</ele>
        <time>2022-05-24T13:33:17Z</time>
      </trkpt>
      <trkpt lat="49.22523" lon="-1.409">
        <ele>30.5</ele>
        <time>2022-05-24T13:33:21Z</time>
      </trkpt>
      <trkpt lat="49.22521" lon="-1.40907">
        <ele>30.7</ele>
        <time>2022-05-24T13:33:26Z</time>
      </trkpt>
      <trkpt lat="49.22519" lon="-1.40916">
        <ele>30.1</ele>
        <time>2022-05-24T13:33:30Z</time>
      </trkpt>
      <trkpt lat="49.22519" lon="-1.40925">
        <ele>30.3</ele>
        <time>2022-05-24T13:33:35Z</time>
      </trkpt>
      <trkpt lat="49.22519" lon="-1.40932">
        <ele>30.5</ele>
        <time>2022-05-24T13:33:39Z</time>
      </trkpt>
      <trkpt lat="49.22516" lon="-1.4094">
        <ele>30.6</ele>
        <time>2022-05-24T13:33:44Z</time>
      </trkpt>
      <trkpt lat="49.22511" lon="-1.40946">
        <ele>30.8</ele>
        <time>2022-05-24T13:33:51Z</time>
      </trkpt>
      <trkpt lat="49.2251" lon="-1.40952">
        <ele>31.2</ele>
        <time>2022-05-24T13:33:53Z</time>
      </trkpt>
      <trkpt lat="49.22508" lon="-1.4096">
        <ele>31.3</ele>
        <time>2022-05-24T13:33:56Z</time>
      </trkpt>
      <trkpt lat="49.22508" lon="-1.40969">
        <ele>31.3</ele>
        <time>2022-05-24T13:33:59Z</time>
      </trkpt>
      <trkpt lat="49.22508" lon="-1.40977">
        <ele>32</ele>
        <time>2022-05-24T13:34:01Z</time>
      </trkpt>
      <trkpt lat="49.22507" lon="-1.40985">
        <ele>31.9</ele>
        <time>2022-05-24T13:34:05Z</time>
      </trkpt>
      <trkpt lat="49.22505" lon="-1.40993">
        <ele>31.8</ele>
        <time>2022-05-24T13:34:09Z</time>
      </trkpt>
      <trkpt lat="49.22504" lon="-1.41002">
        <ele>32.6</ele>
        <time>2022-05-24T13:34:14Z</time>
      </trkpt>
      <trkpt lat="49.22504" lon="-1.41009">
        <ele>32.5</ele>
        <time>2022-05-24T13:34:19Z</time>
      </trkpt>
      <trkpt lat="49.22504" lon="-1.41017">
        <ele>32.6</ele>
        <time>2022-05-24T13:34:23Z</time>
      </trkpt>
      <trkpt lat="49.22504" lon="-1.41024">
        <ele>32.6</ele>
        <time>2022-05-24T13:34:26Z</time>
      </trkpt>
      <trkpt lat="49.22504" lon="-1.41032">
        <ele>33</ele>
        <time>2022-05-24T13:34:30Z</time>
      </trkpt>
      <trkpt lat="49.22502" lon="-1.4104">
        <ele>32.6</ele>
        <time>2022-05-24T13:34:35Z</time>
      </trkpt>
      <trkpt lat="49.22503" lon="-1.41046">
        <ele>33.1</ele>
        <time>2022-05-24T13:34:40Z</time>
      </trkpt>
      <trkpt lat="49.22505" lon="-1.41055">
        <ele>33.1</ele>
        <time>2022-05-24T13:34:44Z</time>
      </trkpt>
      <trkpt lat="49.22503" lon="-1.41061">
        <ele>33.2</ele>
        <time>2022-05-24T13:34:48Z</time>
      </trkpt>
      <trkpt lat="49.22505" lon="-1.41068">
        <ele>33.3</ele>
        <time>2022-05-24T13:34:51Z</time>
      </trkpt>
      <trkpt lat="49.22505" lon="-1.41075">
        <ele>33.1</ele>
        <time>2022-05-24T13:34:56Z</time>
      </trkpt>
      <trkpt lat="49.22504" lon="-1.41082">
        <ele>32.9</ele>
        <time>2022-05-24T13:35:01Z</time>
      </trkpt>
      <trkpt lat="49.22506" lon="-1.4109">
        <ele>33</ele>
        <time>2022-05-24T13:35:11Z</time>
      </trkpt>
      <trkpt lat="49.22505" lon="-1.41099">
        <ele>32.9</ele>
        <time>2022-05-24T13:35:14Z</time>
      </trkpt>
      <trkpt lat="49.22504" lon="-1.41107">
        <ele>33</ele>
        <time>2022-05-24T13:35:17Z</time>
      </trkpt>
      <trkpt lat="49.22502" lon="-1.41116">
        <ele>33.5</ele>
        <time>2022-05-24T13:35:21Z</time>
      </trkpt>
      <trkpt lat="49.22501" lon="-1.41124">
        <ele>33.9</ele>
        <time>2022-05-24T13:35:25Z</time>
      </trkpt>
      <trkpt lat="49.22503" lon="-1.41132">
        <ele>33.6</ele>
        <time>2022-05-24T13:35:29Z</time>
      </trkpt>
      <trkpt lat="49.22503" lon="-1.41139">
        <ele>33.4</ele>
        <time>2022-05-24T13:35:33Z</time>
      </trkpt>
      <trkpt lat="49.22502" lon="-1.41146">
        <ele>33.4</ele>
        <time>2022-05-24T13:35:36Z</time>
      </trkpt>
      <trkpt lat="49.225" lon="-1.41153">
        <ele>33.4</ele>
        <time>2022-05-24T13:35:40Z</time>
      </trkpt>
      <trkpt lat="49.22498" lon="-1.4116">
        <ele>33.3</ele>
        <time>2022-05-24T13:35:44Z</time>
      </trkpt>
      <trkpt lat="49.22495" lon="-1.41166">
        <ele>33.7</ele>
        <time>2022-05-24T13:35:50Z</time>
      </trkpt>
      <trkpt lat="49.22497" lon="-1.41173">
        <ele>33.3</ele>
        <time>2022-05-24T13:35:54Z</time>
      </trkpt>
      <trkpt lat="49.22498" lon="-1.4118">
        <ele>33.2</ele>
        <time>2022-05-24T13:35:58Z</time>
      </trkpt>
      <trkpt lat="49.22495" lon="-1.41187">
        <ele>33</ele>
        <time>2022-05-24T13:36:01Z</time>
      </trkpt>
      <trkpt lat="49.22492" lon="-1.41192">
        <ele>33</ele>
        <time>2022-05-24T13:36:05Z</time>
      </trkpt>
      <trkpt lat="49.22491" lon="-1.412">
        <ele>33.6</ele>
        <time>2022-05-24T13:36:10Z</time>
      </trkpt>
      <trkpt lat="49.22494" lon="-1.41206">
        <ele>33.4</ele>
        <time>2022-05-24T13:36:13Z</time>
      </trkpt>
      <trkpt lat="49.22494" lon="-1.41213">
        <ele>34.1</ele>
        <time>2022-05-24T13:36:16Z</time>
      </trkpt>
      <trkpt lat="49.22492" lon="-1.4122">
        <ele>34</ele>
        <time>2022-05-24T13:36:19Z</time>
      </trkpt>
      <trkpt lat="49.22491" lon="-1.41228">
        <ele>34.9</ele>
        <time>2022-05-24T13:36:23Z</time>
      </trkpt>
      <trkpt lat="49.22489" lon="-1.41236">
        <ele>34.5</ele>
        <time>2022-05-24T13:36:27Z</time>
      </trkpt>
      <trkpt lat="49.22489" lon="-1.41243">
        <ele>34.5</ele>
        <time>2022-05-24T13:36:32Z</time>
      </trkpt>
      <trkpt lat="49.22487" lon="-1.41253">
        <ele>34.9</ele>
        <time>2022-05-24T13:36:37Z</time>
      </trkpt>
      <trkpt lat="49.22486" lon="-1.4126">
        <ele>34.9</ele>
        <time>2022-05-24T13:36:41Z</time>
      </trkpt>
      <trkpt lat="49.22486" lon="-1.41267">
        <ele>34.3</ele>
        <time>2022-05-24T13:36:44Z</time>
      </trkpt>
      <trkpt lat="49.22485" lon="-1.41275">
        <ele>34</ele>
        <time>2022-05-24T13:36:48Z</time>
      </trkpt>
      <trkpt lat="49.22483" lon="-1.41282">
        <ele>34.1</ele>
        <time>2022-05-24T13:36:52Z</time>
      </trkpt>
      <trkpt lat="49.22482" lon="-1.41289">
        <ele>33.9</ele>
        <time>2022-05-24T13:36:55Z</time>
      </trkpt>
      <trkpt lat="49.2248" lon="-1.41296">
        <ele>33.5</ele>
        <time>2022-05-24T13:37:00Z</time>
      </trkpt>
      <trkpt lat="49.22475" lon="-1.41304">
        <ele>33.9</ele>
        <time>2022-05-24T13:37:05Z</time>
      </trkpt>
      <trkpt lat="49.22471" lon="-1.41309">
        <ele>34.5</ele>
        <time>2022-05-24T13:37:08Z</time>
      </trkpt>
      <trkpt lat="49.22469" lon="-1.41316">
        <ele>33.8</ele>
        <time>2022-05-24T13:37:12Z</time>
      </trkpt>
      <trkpt lat="49.22469" lon="-1.41324">
        <ele>34</ele>
        <time>2022-05-24T13:37:17Z</time>
      </trkpt>
      <trkpt lat="49.22467" lon="-1.41331">
        <ele>34.3</ele>
        <time>2022-05-24T13:37:22Z</time>
      </trkpt>
      <trkpt lat="49.22466" lon="-1.41339">
        <ele>36.6</ele>
        <time>2022-05-24T13:37:26Z</time>
      </trkpt>
      <trkpt lat="49.22464" lon="-1.41346">
        <ele>37.3</ele>
        <time>2022-05-24T13:37:31Z</time>
      </trkpt>
      <trkpt lat="49.22461" lon="-1.41353">
        <ele>36.3</ele>
        <time>2022-05-24T13:37:35Z</time>
      </trkpt>
      <trkpt lat="49.22459" lon="-1.41361">
        <ele>36.6</ele>
        <time>2022-05-24T13:37:40Z</time>
      </trkpt>
      <trkpt lat="49.22456" lon="-1.41367">
        <ele>37.4</ele>
        <time>2022-05-24T13:37:45Z</time>
      </trkpt>
      <trkpt lat="49.22455" lon="-1.41374">
        <ele>37.1</ele>
        <time>2022-05-24T13:37:49Z</time>
      </trkpt>
      <trkpt lat="49.22452" lon="-1.41381">
        <ele>35.8</ele>
        <time>2022-05-24T13:38:00Z</time>
      </trkpt>
      <trkpt lat="49.22452" lon="-1.4139">
        <ele>37</ele>
        <time>2022-05-24T13:38:25Z</time>
      </trkpt>
      <trkpt lat="49.22451" lon="-1.41397">
        <ele>37.3</ele>
        <time>2022-05-24T13:38:28Z</time>
      </trkpt>
      <trkpt lat="49.2245" lon="-1.41404">
        <ele>36.8</ele>
        <time>2022-05-24T13:38:30Z</time>
      </trkpt>
      <trkpt lat="49.22449" lon="-1.41414">
        <ele>36.2</ele>
        <time>2022-05-24T13:38:35Z</time>
      </trkpt>
      <trkpt lat="49.22448" lon="-1.41421">
        <ele>34.7</ele>
        <time>2022-05-24T13:38:40Z</time>
      </trkpt>
      <trkpt lat="49.22446" lon="-1.41429">
        <ele>34.3</ele>
        <time>2022-05-24T13:38:44Z</time>
      </trkpt>
      <trkpt lat="49.22444" lon="-1.41436">
        <ele>35.2</ele>
        <time>2022-05-24T13:38:48Z</time>
      </trkpt>
      <trkpt lat="49.22443" lon="-1.41444">
        <ele>36.8</ele>
        <time>2022-05-24T13:38:52Z</time>
      </trkpt>
      <trkpt lat="49.22443" lon="-1.41455">
        <ele>36.7</ele>
        <time>2022-05-24T13:38:57Z</time>
      </trkpt>
      <trkpt lat="49.22443" lon="-1.41462">
        <ele>36.6</ele>
        <time>2022-05-24T13:39:01Z</time>
      </trkpt>
      <trkpt lat="49.22442" lon="-1.41469">
        <ele>37.3</ele>
        <time>2022-05-24T13:39:04Z</time>
      </trkpt>
      <trkpt lat="49.2244" lon="-1.41476">
        <ele>37.2</ele>
        <time>2022-05-24T13:39:07Z</time>
      </trkpt>
      <trkpt lat="49.22436" lon="-1.41478">
        <ele>36.5</ele>
        <time>2022-05-24T13:39:23Z</time>
      </trkpt>
      <trkpt lat="49.22438" lon="-1.41485">
        <ele>36.7</ele>
        <time>2022-05-24T13:39:27Z</time>
      </trkpt>
      <trkpt lat="49.22436" lon="-1.41492">
        <ele>36.9</ele>
        <time>2022-05-24T13:39:47Z</time>
      </trkpt>
      <trkpt lat="49.22437" lon="-1.415">
        <ele>36</ele>
        <time>2022-05-24T13:39:53Z</time>
      </trkpt>
      <trkpt lat="49.22435" lon="-1.41508">
        <ele>35.9</ele>
        <time>2022-05-24T13:39:57Z</time>
      </trkpt>
      <trkpt lat="49.22433" lon="-1.41515">
        <ele>35</ele>
        <time>2022-05-24T13:40:02Z</time>
      </trkpt>
      <trkpt lat="49.22431" lon="-1.41522">
        <ele>34.6</ele>
        <time>2022-05-24T13:40:06Z</time>
      </trkpt>
      <trkpt lat="49.2243" lon="-1.4153">
        <ele>35.3</ele>
        <time>2022-05-24T13:40:10Z</time>
      </trkpt>
      <trkpt lat="49.22428" lon="-1.41536">
        <ele>35.5</ele>
        <time>2022-05-24T13:40:13Z</time>
      </trkpt>
      <trkpt lat="49.22427" lon="-1.41543">
        <ele>35.1</ele>
        <time>2022-05-24T13:40:17Z</time>
      </trkpt>
      <trkpt lat="49.22425" lon="-1.41552">
        <ele>34.5</ele>
        <time>2022-05-24T13:40:21Z</time>
      </trkpt>
      <trkpt lat="49.22424" lon="-1.41559">
        <ele>34.4</ele>
        <time>2022-05-24T13:40:25Z</time>
      </trkpt>
      <trkpt lat="49.22422" lon="-1.41567">
        <ele>34.3</ele>
        <time>2022-05-24T13:40:29Z</time>
      </trkpt>
      <trkpt lat="49.22421" lon="-1.41575">
        <ele>34.3</ele>
        <time>2022-05-24T13:40:34Z</time>
      </trkpt>
      <trkpt lat="49.2242" lon="-1.41582">
        <ele>34.6</ele>
        <time>2022-05-24T13:40:38Z</time>
      </trkpt>
      <trkpt lat="49.22418" lon="-1.41589">
        <ele>35.2</ele>
        <time>2022-05-24T13:40:43Z</time>
      </trkpt>
      <trkpt lat="49.22418" lon="-1.41596">
        <ele>34.7</ele>
        <time>2022-05-24T13:40:53Z</time>
      </trkpt>
      <trkpt lat="49.22418" lon="-1.41603">
        <ele>34.2</ele>
        <time>2022-05-24T13:40:56Z</time>
      </trkpt>
      <trkpt lat="49.22417" lon="-1.41611">
        <ele>34.7</ele>
        <time>2022-05-24T13:40:59Z</time>
      </trkpt>
      <trkpt lat="49.22416" lon="-1.41619">
        <ele>35.5</ele>
        <time>2022-05-24T13:41:02Z</time>
      </trkpt>
      <trkpt lat="49.22415" lon="-1.41627">
        <ele>35.4</ele>
        <time>2022-05-24T13:41:05Z</time>
      </trkpt>
      <trkpt lat="49.22412" lon="-1.41634">
        <ele>34.6</ele>
        <time>2022-05-24T13:41:10Z</time>
      </trkpt>
      <trkpt lat="49.2241" lon="-1.41641">
        <ele>34.9</ele>
        <time>2022-05-24T13:41:14Z</time>
      </trkpt>
      <trkpt lat="49.2241" lon="-1.4165">
        <ele>35.5</ele>
        <time>2022-05-24T13:41:18Z</time>
      </trkpt>
      <trkpt lat="49.22409" lon="-1.41657">
        <ele>35</ele>
        <time>2022-05-24T13:41:21Z</time>
      </trkpt>
      <trkpt lat="49.22408" lon="-1.41664">
        <ele>34</ele>
        <time>2022-05-24T13:41:36Z</time>
      </trkpt>
      <trkpt lat="49.22406" lon="-1.41671">
        <ele>34</ele>
        <time>2022-05-24T13:41:39Z</time>
      </trkpt>
      <trkpt lat="49.22405" lon="-1.41679">
        <ele>34.3</ele>
        <time>2022-05-24T13:41:42Z</time>
      </trkpt>
      <trkpt lat="49.22405" lon="-1.41688">
        <ele>34.4</ele>
        <time>2022-05-24T13:41:45Z</time>
      </trkpt>
      <trkpt lat="49.22403" lon="-1.41695">
        <ele>34.5</ele>
        <time>2022-05-24T13:41:47Z</time>
      </trkpt>
      <trkpt lat="49.22403" lon="-1.41703">
        <ele>34.1</ele>
        <time>2022-05-24T13:41:51Z</time>
      </trkpt>
      <trkpt lat="49.22402" lon="-1.4171">
        <ele>33.9</ele>
        <time>2022-05-24T13:41:53Z</time>
      </trkpt>
      <trkpt lat="49.22401" lon="-1.41719">
        <ele>34</ele>
        <time>2022-05-24T13:41:55Z</time>
      </trkpt>
      <trkpt lat="49.224" lon="-1.41727">
        <ele>34</ele>
        <time>2022-05-24T13:41:59Z</time>
      </trkpt>
      <trkpt lat="49.22399" lon="-1.41737">
        <ele>33.2</ele>
        <time>2022-05-24T13:42:03Z</time>
      </trkpt>
      <trkpt lat="49.22397" lon="-1.41745">
        <ele>32.8</ele>
        <time>2022-05-24T13:42:07Z</time>
      </trkpt>
      <trkpt lat="49.22397" lon="-1.41753">
        <ele>33.2</ele>
        <time>2022-05-24T13:42:11Z</time>
      </trkpt>
      <trkpt lat="49.22396" lon="-1.41762">
        <ele>32.5</ele>
        <time>2022-05-24T13:42:15Z</time>
      </trkpt>
      <trkpt lat="49.22396" lon="-1.41769">
        <ele>32.7</ele>
        <time>2022-05-24T13:42:19Z</time>
      </trkpt>
      <trkpt lat="49.22395" lon="-1.41776">
        <ele>32.3</ele>
        <time>2022-05-24T13:42:23Z</time>
      </trkpt>
      <trkpt lat="49.22392" lon="-1.41781">
        <ele>31.5</ele>
        <time>2022-05-24T13:42:42Z</time>
      </trkpt>
      <trkpt lat="49.22391" lon="-1.41789">
        <ele>31.4</ele>
        <time>2022-05-24T13:42:45Z</time>
      </trkpt>
      <trkpt lat="49.22389" lon="-1.41796">
        <ele>32.3</ele>
        <time>2022-05-24T13:42:48Z</time>
      </trkpt>
      <trkpt lat="49.22386" lon="-1.41804">
        <ele>31.5</ele>
        <time>2022-05-24T13:42:53Z</time>
      </trkpt>
      <trkpt lat="49.22381" lon="-1.41805">
        <ele>31.7</ele>
        <time>2022-05-24T13:42:58Z</time>
      </trkpt>
      <trkpt lat="49.22378" lon="-1.418">
        <ele>31.8</ele>
        <time>2022-05-24T13:43:05Z</time>
      </trkpt>
      <trkpt lat="49.22371" lon="-1.41797">
        <ele>33.3</ele>
        <time>2022-05-24T13:43:10Z</time>
      </trkpt>
      <trkpt lat="49.22366" lon="-1.41797">
        <ele>34.4</ele>
        <time>2022-05-24T13:43:13Z</time>
      </trkpt>
      <trkpt lat="49.22361" lon="-1.41794">
        <ele>34.6</ele>
        <time>2022-05-24T13:43:17Z</time>
      </trkpt>
      <trkpt lat="49.22356" lon="-1.41794">
        <ele>34.3</ele>
        <time>2022-05-24T13:43:20Z</time>
      </trkpt>
      <trkpt lat="49.22351" lon="-1.41793">
        <ele>33.8</ele>
        <time>2022-05-24T13:43:25Z</time>
      </trkpt>
      <trkpt lat="49.22346" lon="-1.41791">
        <ele>34</ele>
        <time>2022-05-24T13:43:29Z</time>
      </trkpt>
      <trkpt lat="49.22341" lon="-1.41792">
        <ele>34.2</ele>
        <time>2022-05-24T13:43:33Z</time>
      </trkpt>
      <trkpt lat="49.22335" lon="-1.41791">
        <ele>34.4</ele>
        <time>2022-05-24T13:43:37Z</time>
      </trkpt>
      <trkpt lat="49.2233" lon="-1.41789">
        <ele>34.6</ele>
        <time>2022-05-24T13:43:40Z</time>
      </trkpt>
      <trkpt lat="49.22324" lon="-1.41787">
        <ele>35.1</ele>
        <time>2022-05-24T13:43:45Z</time>
      </trkpt>
      <trkpt lat="49.22319" lon="-1.41788">
        <ele>34.6</ele>
        <time>2022-05-24T13:43:48Z</time>
      </trkpt>
      <trkpt lat="49.22313" lon="-1.41787">
        <ele>34.6</ele>
        <time>2022-05-24T13:43:53Z</time>
      </trkpt>
      <trkpt lat="49.22308" lon="-1.41786">
        <ele>34.8</ele>
        <time>2022-05-24T13:43:57Z</time>
      </trkpt>
      <trkpt lat="49.22303" lon="-1.41784">
        <ele>34.3</ele>
        <time>2022-05-24T13:44:00Z</time>
      </trkpt>
      <trkpt lat="49.22298" lon="-1.41784">
        <ele>33.9</ele>
        <time>2022-05-24T13:44:04Z</time>
      </trkpt>
      <trkpt lat="49.22293" lon="-1.41783">
        <ele>34.7</ele>
        <time>2022-05-24T13:44:08Z</time>
      </trkpt>
      <trkpt lat="49.22288" lon="-1.41783">
        <ele>34.5</ele>
        <time>2022-05-24T13:44:11Z</time>
      </trkpt>
      <trkpt lat="49.22282" lon="-1.41782">
        <ele>34.4</ele>
        <time>2022-05-24T13:44:16Z</time>
      </trkpt>
      <trkpt lat="49.22277" lon="-1.41784">
        <ele>34.3</ele>
        <time>2022-05-24T13:44:20Z</time>
      </trkpt>
      <trkpt lat="49.22271" lon="-1.41782">
        <ele>33.6</ele>
        <time>2022-05-24T13:44:25Z</time>
      </trkpt>
      <trkpt lat="49.22265" lon="-1.4178">
        <ele>33.2</ele>
        <time>2022-05-24T13:44:30Z</time>
      </trkpt>
      <trkpt lat="49.22259" lon="-1.41776">
        <ele>32.7</ele>
        <time>2022-05-24T13:44:35Z</time>
      </trkpt>
      <trkpt lat="49.22253" lon="-1.41775">
        <ele>33.1</ele>
        <time>2022-05-24T13:44:39Z</time>
      </trkpt>
      <trkpt lat="49.22247" lon="-1.41773">
        <ele>32.4</ele>
        <time>2022-05-24T13:44:44Z</time>
      </trkpt>
      <trkpt lat="49.22243" lon="-1.41773">
        <ele>32.2</ele>
        <time>2022-05-24T13:44:47Z</time>
      </trkpt>
      <trkpt lat="49.22238" lon="-1.41773">
        <ele>30.1</ele>
        <time>2022-05-24T13:44:51Z</time>
      </trkpt>
      <trkpt lat="49.22232" lon="-1.41774">
        <ele>30.9</ele>
        <time>2022-05-24T13:44:56Z</time>
      </trkpt>
      <trkpt lat="49.22226" lon="-1.41774">
        <ele>31.3</ele>
        <time>2022-05-24T13:45:00Z</time>
      </trkpt>
      <trkpt lat="49.2222" lon="-1.41774">
        <ele>31.3</ele>
        <time>2022-05-24T13:45:04Z</time>
      </trkpt>
      <trkpt lat="49.22215" lon="-1.41777">
        <ele>31.9</ele>
        <time>2022-05-24T13:45:09Z</time>
      </trkpt>
      <trkpt lat="49.2221" lon="-1.41779">
        <ele>32.1</ele>
        <time>2022-05-24T13:45:16Z</time>
      </trkpt>
      <trkpt lat="49.22207" lon="-1.41786">
        <ele>31.3</ele>
        <time>2022-05-24T13:45:20Z</time>
      </trkpt>
      <trkpt lat="49.22202" lon="-1.41791">
        <ele>32.7</ele>
        <time>2022-05-24T13:45:24Z</time>
      </trkpt>
      <trkpt lat="49.22197" lon="-1.41793">
        <ele>32.4</ele>
        <time>2022-05-24T13:45:28Z</time>
      </trkpt>
      <trkpt lat="49.22193" lon="-1.41797">
        <ele>32.9</ele>
        <time>2022-05-24T13:45:32Z</time>
      </trkpt>
      <trkpt lat="49.22188" lon="-1.41799">
        <ele>33.1</ele>
        <time>2022-05-24T13:45:35Z</time>
      </trkpt>
      <trkpt lat="49.22183" lon="-1.41803">
        <ele>34.9</ele>
        <time>2022-05-24T13:45:40Z</time>
      </trkpt>
      <trkpt lat="49.22178" lon="-1.41807">
        <ele>34.6</ele>
        <time>2022-05-24T13:45:44Z</time>
      </trkpt>
      <trkpt lat="49.22174" lon="-1.41811">
        <ele>34.4</ele>
        <time>2022-05-24T13:45:48Z</time>
      </trkpt>
      <trkpt lat="49.22169" lon="-1.41815">
        <ele>35</ele>
        <time>2022-05-24T13:45:52Z</time>
      </trkpt>
      <trkpt lat="49.22164" lon="-1.41818">
        <ele>34.7</ele>
        <time>2022-05-24T13:45:56Z</time>
      </trkpt>
      <trkpt lat="49.22158" lon="-1.41822">
        <ele>34.7</ele>
        <time>2022-05-24T13:46:00Z</time>
      </trkpt>
      <trkpt lat="49.22153" lon="-1.41826">
        <ele>34.5</ele>
        <time>2022-05-24T13:46:05Z</time>
      </trkpt>
      <trkpt lat="49.22149" lon="-1.41829">
        <ele>35.1</ele>
        <time>2022-05-24T13:46:09Z</time>
      </trkpt>
      <trkpt lat="49.22144" lon="-1.41833">
        <ele>35.4</ele>
        <time>2022-05-24T13:46:13Z</time>
      </trkpt>
      <trkpt lat="49.22139" lon="-1.41836">
        <ele>35.7</ele>
        <time>2022-05-24T13:46:18Z</time>
      </trkpt>
      <trkpt lat="49.22134" lon="-1.41838">
        <ele>35.8</ele>
        <time>2022-05-24T13:46:21Z</time>
      </trkpt>
      <trkpt lat="49.22129" lon="-1.41839">
        <ele>35.8</ele>
        <time>2022-05-24T13:46:25Z</time>
      </trkpt>
      <trkpt lat="49.22124" lon="-1.41842">
        <ele>35.4</ele>
        <time>2022-05-24T13:46:30Z</time>
      </trkpt>
      <trkpt lat="49.2212" lon="-1.41845">
        <ele>35.6</ele>
        <time>2022-05-24T13:46:33Z</time>
      </trkpt>
      <trkpt lat="49.22115" lon="-1.41847">
        <ele>35.4</ele>
        <time>2022-05-24T13:46:36Z</time>
      </trkpt>
      <trkpt lat="49.22109" lon="-1.4185">
        <ele>35.7</ele>
        <time>2022-05-24T13:46:41Z</time>
      </trkpt>
      <trkpt lat="49.22103" lon="-1.41853">
        <ele>34.7</ele>
        <time>2022-05-24T13:46:45Z</time>
      </trkpt>
      <trkpt lat="49.22099" lon="-1.41854">
        <ele>34.9</ele>
        <time>2022-05-24T13:46:49Z</time>
      </trkpt>
      <trkpt lat="49.22094" lon="-1.41855">
        <ele>35.1</ele>
        <time>2022-05-24T13:46:52Z</time>
      </trkpt>
      <trkpt lat="49.22089" lon="-1.41857">
        <ele>34.5</ele>
        <time>2022-05-24T13:46:56Z</time>
      </trkpt>
      <trkpt lat="49.22084" lon="-1.41858">
        <ele>34.5</ele>
        <time>2022-05-24T13:46:59Z</time>
      </trkpt>
      <trkpt lat="49.2208" lon="-1.4186">
        <ele>34.4</ele>
        <time>2022-05-24T13:47:03Z</time>
      </trkpt>
      <trkpt lat="49.22074" lon="-1.41863">
        <ele>34.7</ele>
        <time>2022-05-24T13:47:07Z</time>
      </trkpt>
      <trkpt lat="49.22069" lon="-1.41865">
        <ele>34.7</ele>
        <time>2022-05-24T13:47:10Z</time>
      </trkpt>
      <trkpt lat="49.22065" lon="-1.41868">
        <ele>34.3</ele>
        <time>2022-05-24T13:47:14Z</time>
      </trkpt>
      <trkpt lat="49.22059" lon="-1.41871">
        <ele>34.6</ele>
        <time>2022-05-24T13:47:18Z</time>
      </trkpt>
      <trkpt lat="49.22054" lon="-1.41873">
        <ele>34.8</ele>
        <time>2022-05-24T13:47:22Z</time>
      </trkpt>
      <trkpt lat="49.22049" lon="-1.41875">
        <ele>34.6</ele>
        <time>2022-05-24T13:47:25Z</time>
      </trkpt>
      <trkpt lat="49.22045" lon="-1.41878">
        <ele>33.5</ele>
        <time>2022-05-24T13:47:28Z</time>
      </trkpt>
      <trkpt lat="49.2204" lon="-1.41882">
        <ele>33.8</ele>
        <time>2022-05-24T13:47:33Z</time>
      </trkpt>
      <trkpt lat="49.22035" lon="-1.41886">
        <ele>34.4</ele>
        <time>2022-05-24T13:47:37Z</time>
      </trkpt>
      <trkpt lat="49.22031" lon="-1.41888">
        <ele>35</ele>
        <time>2022-05-24T13:47:40Z</time>
      </trkpt>
      <trkpt lat="49.22027" lon="-1.41891">
        <ele>34.8</ele>
        <time>2022-05-24T13:47:44Z</time>
      </trkpt>
      <trkpt lat="49.22022" lon="-1.41891">
        <ele>34.7</ele>
        <time>2022-05-24T13:47:48Z</time>
      </trkpt>
      <trkpt lat="49.2202" lon="-1.41899">
        <ele>35.1</ele>
        <time>2022-05-24T13:48:08Z</time>
      </trkpt>
      <trkpt lat="49.22016" lon="-1.41894">
        <ele>34.6</ele>
        <time>2022-05-24T13:48:14Z</time>
      </trkpt>
      <trkpt lat="49.2201" lon="-1.41894">
        <ele>34.8</ele>
        <time>2022-05-24T13:48:17Z</time>
      </trkpt>
      <trkpt lat="49.22005" lon="-1.41894">
        <ele>35.2</ele>
        <time>2022-05-24T13:48:20Z</time>
      </trkpt>
      <trkpt lat="49.22" lon="-1.41896">
        <ele>35.1</ele>
        <time>2022-05-24T13:48:23Z</time>
      </trkpt>
      <trkpt lat="49.21995" lon="-1.419">
        <ele>34.8</ele>
        <time>2022-05-24T13:48:26Z</time>
      </trkpt>
      <trkpt lat="49.21993" lon="-1.41906">
        <ele>33.9</ele>
        <time>2022-05-24T13:48:37Z</time>
      </trkpt>
      <trkpt lat="49.21989" lon="-1.41904">
        <ele>33.7</ele>
        <time>2022-05-24T13:48:44Z</time>
      </trkpt>
      <trkpt lat="49.21985" lon="-1.41907">
        <ele>32.1</ele>
        <time>2022-05-24T13:48:54Z</time>
      </trkpt>
      <trkpt lat="49.2198" lon="-1.4191">
        <ele>31.5</ele>
        <time>2022-05-24T13:48:59Z</time>
      </trkpt>
      <trkpt lat="49.21974" lon="-1.41914">
        <ele>32.8</ele>
        <time>2022-05-24T13:49:03Z</time>
      </trkpt>
      <trkpt lat="49.21969" lon="-1.41914">
        <ele>33.3</ele>
        <time>2022-05-24T13:49:07Z</time>
      </trkpt>
      <trkpt lat="49.21964" lon="-1.41915">
        <ele>32.2</ele>
        <time>2022-05-24T13:49:11Z</time>
      </trkpt>
      <trkpt lat="49.2196" lon="-1.41916">
        <ele>32.3</ele>
        <time>2022-05-24T13:49:15Z</time>
      </trkpt>
      <trkpt lat="49.21954" lon="-1.41912">
        <ele>32.2</ele>
        <time>2022-05-24T13:49:20Z</time>
      </trkpt>
      <trkpt lat="49.2195" lon="-1.41906">
        <ele>31.8</ele>
        <time>2022-05-24T13:49:25Z</time>
      </trkpt>
      <trkpt lat="49.21949" lon="-1.41899">
        <ele>32.5</ele>
        <time>2022-05-24T13:49:34Z</time>
      </trkpt>
      <trkpt lat="49.21945" lon="-1.41895">
        <ele>32.9</ele>
        <time>2022-05-24T13:49:41Z</time>
      </trkpt>
      <trkpt lat="49.21938" lon="-1.41892">
        <ele>33.1</ele>
        <time>2022-05-24T13:49:45Z</time>
      </trkpt>
      <trkpt lat="49.21934" lon="-1.41889">
        <ele>33.5</ele>
        <time>2022-05-24T13:49:51Z</time>
      </trkpt>
      <trkpt lat="49.21929" lon="-1.41886">
        <ele>33.7</ele>
        <time>2022-05-24T13:49:55Z</time>
      </trkpt>
      <trkpt lat="49.21926" lon="-1.41882">
        <ele>34.2</ele>
        <time>2022-05-24T13:50:00Z</time>
      </trkpt>
      <trkpt lat="49.21921" lon="-1.41877">
        <ele>34</ele>
        <time>2022-05-24T13:50:05Z</time>
      </trkpt>
      <trkpt lat="49.21918" lon="-1.41872">
        <ele>34.1</ele>
        <time>2022-05-24T13:50:09Z</time>
      </trkpt>
      <trkpt lat="49.21913" lon="-1.4187">
        <ele>34.6</ele>
        <time>2022-05-24T13:50:13Z</time>
      </trkpt>
      <trkpt lat="49.21909" lon="-1.41866">
        <ele>34.6</ele>
        <time>2022-05-24T13:50:18Z</time>
      </trkpt>
      <trkpt lat="49.21905" lon="-1.4186">
        <ele>34.4</ele>
        <time>2022-05-24T13:50:23Z</time>
      </trkpt>
      <trkpt lat="49.21901" lon="-1.41856">
        <ele>34.5</ele>
        <time>2022-05-24T13:50:26Z</time>
      </trkpt>
      <trkpt lat="49.21897" lon="-1.41853">
        <ele>34.7</ele>
        <time>2022-05-24T13:50:30Z</time>
      </trkpt>
      <trkpt lat="49.21892" lon="-1.41851">
        <ele>34.6</ele>
        <time>2022-05-24T13:50:33Z</time>
      </trkpt>
      <trkpt lat="49.21888" lon="-1.41847">
        <ele>34.1</ele>
        <time>2022-05-24T13:50:37Z</time>
      </trkpt>
      <trkpt lat="49.21883" lon="-1.41844">
        <ele>34.1</ele>
        <time>2022-05-24T13:50:41Z</time>
      </trkpt>
      <trkpt lat="49.21878" lon="-1.41843">
        <ele>33.7</ele>
        <time>2022-05-24T13:50:46Z</time>
      </trkpt>
      <trkpt lat="49.21874" lon="-1.41838">
        <ele>32.9</ele>
        <time>2022-05-24T13:50:50Z</time>
      </trkpt>
      <trkpt lat="49.21869" lon="-1.41835">
        <ele>33</ele>
        <time>2022-05-24T13:50:55Z</time>
      </trkpt>
      <trkpt lat="49.21865" lon="-1.41831">
        <ele>32.8</ele>
        <time>2022-05-24T13:50:59Z</time>
      </trkpt>
      <trkpt lat="49.2186" lon="-1.41827">
        <ele>32.8</ele>
        <time>2022-05-24T13:51:03Z</time>
      </trkpt>
      <trkpt lat="49.21854" lon="-1.41826">
        <ele>32.4</ele>
        <time>2022-05-24T13:51:06Z</time>
      </trkpt>
      <trkpt lat="49.21849" lon="-1.41823">
        <ele>31.4</ele>
        <time>2022-05-24T13:51:09Z</time>
      </trkpt>
      <trkpt lat="49.21844" lon="-1.41819">
        <ele>30.5</ele>
        <time>2022-05-24T13:51:13Z</time>
      </trkpt>
      <trkpt lat="49.21829" lon="-1.41811">
        <ele>29.5</ele>
        <time>2022-05-24T13:51:23Z</time>
      </trkpt>
      <trkpt lat="49.21824" lon="-1.41809">
        <ele>28.8</ele>
        <time>2022-05-24T13:51:26Z</time>
      </trkpt>
      <trkpt lat="49.2182" lon="-1.41806">
        <ele>28.4</ele>
        <time>2022-05-24T13:51:29Z</time>
      </trkpt>
      <trkpt lat="49.21815" lon="-1.41801">
        <ele>27.9</ele>
        <time>2022-05-24T13:51:34Z</time>
      </trkpt>
      <trkpt lat="49.2181" lon="-1.418">
        <ele>28.2</ele>
        <time>2022-05-24T13:51:37Z</time>
      </trkpt>
      <trkpt lat="49.21805" lon="-1.41798">
        <ele>28.2</ele>
        <time>2022-05-24T13:51:40Z</time>
      </trkpt>
      <trkpt lat="49.218" lon="-1.41797">
        <ele>28.1</ele>
        <time>2022-05-24T13:51:45Z</time>
      </trkpt>
      <trkpt lat="49.21796" lon="-1.41805">
        <ele>28.9</ele>
        <time>2022-05-24T13:51:49Z</time>
      </trkpt>
      <trkpt lat="49.21793" lon="-1.41811">
        <ele>28.8</ele>
        <time>2022-05-24T13:51:55Z</time>
      </trkpt>
      <trkpt lat="49.21792" lon="-1.41819">
        <ele>29.1</ele>
        <time>2022-05-24T13:52:00Z</time>
      </trkpt>
      <trkpt lat="49.21789" lon="-1.41825">
        <ele>26.1</ele>
        <time>2022-05-24T13:52:25Z</time>
      </trkpt>
      <trkpt lat="49.21787" lon="-1.41831">
        <ele>21.9</ele>
        <time>2022-05-24T13:52:32Z</time>
      </trkpt>
      <trkpt lat="49.21786" lon="-1.41839">
        <ele>20.1</ele>
        <time>2022-05-24T13:52:38Z</time>
      </trkpt>
      <trkpt lat="49.21784" lon="-1.41848">
        <ele>20.5</ele>
        <time>2022-05-24T13:52:43Z</time>
      </trkpt>
      <trkpt lat="49.21785" lon="-1.41864">
        <ele>22.5</ele>
        <time>2022-05-24T13:52:49Z</time>
      </trkpt>
      <trkpt lat="49.21785" lon="-1.41876">
        <ele>23.6</ele>
        <time>2022-05-24T13:52:54Z</time>
      </trkpt>
      <trkpt lat="49.21784" lon="-1.41883">
        <ele>24.8</ele>
        <time>2022-05-24T13:52:56Z</time>
      </trkpt>
      <trkpt lat="49.21783" lon="-1.41912">
        <ele>28.4</ele>
        <time>2022-05-24T13:53:02Z</time>
      </trkpt>
      <trkpt lat="49.21782" lon="-1.41919">
        <ele>30.3</ele>
        <time>2022-05-24T13:53:05Z</time>
      </trkpt>
      <trkpt lat="49.21782" lon="-1.41927">
        <ele>31.4</ele>
        <time>2022-05-24T13:53:08Z</time>
      </trkpt>
      <trkpt lat="49.21782" lon="-1.41935">
        <ele>31.7</ele>
        <time>2022-05-24T13:53:10Z</time>
      </trkpt>
      <trkpt lat="49.21781" lon="-1.41942">
        <ele>32.1</ele>
        <time>2022-05-24T13:53:14Z</time>
      </trkpt>
      <trkpt lat="49.21781" lon="-1.41949">
        <ele>32.4</ele>
        <time>2022-05-24T13:53:18Z</time>
      </trkpt>
      <trkpt lat="49.2178" lon="-1.41957">
        <ele>33.2</ele>
        <time>2022-05-24T13:53:22Z</time>
      </trkpt>
      <trkpt lat="49.21779" lon="-1.41964">
        <ele>33.7</ele>
        <time>2022-05-24T13:53:27Z</time>
      </trkpt>
      <trkpt lat="49.21777" lon="-1.41972">
        <ele>35.8</ele>
        <time>2022-05-24T13:53:33Z</time>
      </trkpt>
      <trkpt lat="49.21774" lon="-1.41977">
        <ele>38.7</ele>
        <time>2022-05-24T13:53:44Z</time>
      </trkpt>
      <trkpt lat="49.21772" lon="-1.41983">
        <ele>37.4</ele>
        <time>2022-05-24T13:53:49Z</time>
      </trkpt>
      <trkpt lat="49.21768" lon="-1.41991">
        <ele>37.2</ele>
        <time>2022-05-24T13:53:53Z</time>
      </trkpt>
      <trkpt lat="49.21767" lon="-1.41998">
        <ele>37.3</ele>
        <time>2022-05-24T13:53:56Z</time>
      </trkpt>
      <trkpt lat="49.21767" lon="-1.42006">
        <ele>38.2</ele>
        <time>2022-05-24T13:54:00Z</time>
      </trkpt>
      <trkpt lat="49.21767" lon="-1.42013">
        <ele>38.1</ele>
        <time>2022-05-24T13:54:06Z</time>
      </trkpt>
      <trkpt lat="49.21766" lon="-1.4202">
        <ele>37.3</ele>
        <time>2022-05-24T13:54:16Z</time>
      </trkpt>
      <trkpt lat="49.21764" lon="-1.42027">
        <ele>36.7</ele>
        <time>2022-05-24T13:54:19Z</time>
      </trkpt>
      <trkpt lat="49.21763" lon="-1.42034">
        <ele>36.8</ele>
        <time>2022-05-24T13:54:22Z</time>
      </trkpt>
      <trkpt lat="49.2176" lon="-1.4204">
        <ele>36.3</ele>
        <time>2022-05-24T13:54:24Z</time>
      </trkpt>
      <trkpt lat="49.21758" lon="-1.42047">
        <ele>36.2</ele>
        <time>2022-05-24T13:54:27Z</time>
      </trkpt>
      <trkpt lat="49.21756" lon="-1.42055">
        <ele>34.8</ele>
        <time>2022-05-24T13:54:31Z</time>
      </trkpt>
      <trkpt lat="49.21755" lon="-1.42063">
        <ele>34.4</ele>
        <time>2022-05-24T13:54:36Z</time>
      </trkpt>
      <trkpt lat="49.21752" lon="-1.4207">
        <ele>34.4</ele>
        <time>2022-05-24T13:54:40Z</time>
      </trkpt>
      <trkpt lat="49.2175" lon="-1.4208">
        <ele>34.8</ele>
        <time>2022-05-24T13:54:45Z</time>
      </trkpt>
      <trkpt lat="49.21747" lon="-1.42087">
        <ele>34.4</ele>
        <time>2022-05-24T13:54:50Z</time>
      </trkpt>
      <trkpt lat="49.21743" lon="-1.42095">
        <ele>34.3</ele>
        <time>2022-05-24T13:54:54Z</time>
      </trkpt>
      <trkpt lat="49.2174" lon="-1.42102">
        <ele>33.9</ele>
        <time>2022-05-24T13:54:59Z</time>
      </trkpt>
      <trkpt lat="49.21738" lon="-1.42108">
        <ele>33.7</ele>
        <time>2022-05-24T13:55:02Z</time>
      </trkpt>
      <trkpt lat="49.21735" lon="-1.42115">
        <ele>33.3</ele>
        <time>2022-05-24T13:55:06Z</time>
      </trkpt>
      <trkpt lat="49.21732" lon="-1.42123">
        <ele>32.6</ele>
        <time>2022-05-24T13:55:10Z</time>
      </trkpt>
      <trkpt lat="49.21729" lon="-1.4213">
        <ele>31.6</ele>
        <time>2022-05-24T13:55:23Z</time>
      </trkpt>
      <trkpt lat="49.21725" lon="-1.42137">
        <ele>31.2</ele>
        <time>2022-05-24T13:55:26Z</time>
      </trkpt>
      <trkpt lat="49.21722" lon="-1.42144">
        <ele>31</ele>
        <time>2022-05-24T13:55:30Z</time>
      </trkpt>
      <trkpt lat="49.2172" lon="-1.42151">
        <ele>29.4</ele>
        <time>2022-05-24T13:55:34Z</time>
      </trkpt>
      <trkpt lat="49.21718" lon="-1.42158">
        <ele>28.7</ele>
        <time>2022-05-24T13:55:38Z</time>
      </trkpt>
      <trkpt lat="49.21716" lon="-1.42167">
        <ele>27.6</ele>
        <time>2022-05-24T13:55:42Z</time>
      </trkpt>
      <trkpt lat="49.21715" lon="-1.42176">
        <ele>27.2</ele>
        <time>2022-05-24T13:55:47Z</time>
      </trkpt>
      <trkpt lat="49.21716" lon="-1.42185">
        <ele>26.8</ele>
        <time>2022-05-24T13:55:51Z</time>
      </trkpt>
      <trkpt lat="49.21717" lon="-1.42193">
        <ele>27.1</ele>
        <time>2022-05-24T13:55:55Z</time>
      </trkpt>
      <trkpt lat="49.21719" lon="-1.42201">
        <ele>27.4</ele>
        <time>2022-05-24T13:55:58Z</time>
      </trkpt>
      <trkpt lat="49.21721" lon="-1.42209">
        <ele>27.6</ele>
        <time>2022-05-24T13:56:02Z</time>
      </trkpt>
      <trkpt lat="49.21723" lon="-1.42216">
        <ele>27.6</ele>
        <time>2022-05-24T13:56:05Z</time>
      </trkpt>
      <trkpt lat="49.21726" lon="-1.42223">
        <ele>27.5</ele>
        <time>2022-05-24T13:56:10Z</time>
      </trkpt>
      <trkpt lat="49.21727" lon="-1.42231">
        <ele>27.3</ele>
        <time>2022-05-24T13:56:13Z</time>
      </trkpt>
      <trkpt lat="49.21728" lon="-1.42241">
        <ele>27.5</ele>
        <time>2022-05-24T13:56:19Z</time>
      </trkpt>
      <trkpt lat="49.21728" lon="-1.4225">
        <ele>27.1</ele>
        <time>2022-05-24T13:56:23Z</time>
      </trkpt>
      <trkpt lat="49.21728" lon="-1.42257">
        <ele>26</ele>
        <time>2022-05-24T13:56:28Z</time>
      </trkpt>
      <trkpt lat="49.21728" lon="-1.42265">
        <ele>26.7</ele>
        <time>2022-05-24T13:56:32Z</time>
      </trkpt>
      <trkpt lat="49.21728" lon="-1.42274">
        <ele>26.5</ele>
        <time>2022-05-24T13:56:36Z</time>
      </trkpt>
      <trkpt lat="49.21729" lon="-1.42281">
        <ele>27</ele>
        <time>2022-05-24T13:56:39Z</time>
      </trkpt>
      <trkpt lat="49.21731" lon="-1.42288">
        <ele>27.1</ele>
        <time>2022-05-24T13:56:42Z</time>
      </trkpt>
      <trkpt lat="49.21734" lon="-1.42293">
        <ele>27.1</ele>
        <time>2022-05-24T13:56:46Z</time>
      </trkpt>
      <trkpt lat="49.21736" lon="-1.423">
        <ele>27.4</ele>
        <time>2022-05-24T13:56:49Z</time>
      </trkpt>
      <trkpt lat="49.21736" lon="-1.42309">
        <ele>27.2</ele>
        <time>2022-05-24T13:56:54Z</time>
      </trkpt>
      <trkpt lat="49.21732" lon="-1.42314">
        <ele>27.8</ele>
        <time>2022-05-24T13:56:59Z</time>
      </trkpt>
      <trkpt lat="49.2173" lon="-1.42322">
        <ele>27.9</ele>
        <time>2022-05-24T13:57:04Z</time>
      </trkpt>
      <trkpt lat="49.21728" lon="-1.4233">
        <ele>28.1</ele>
        <time>2022-05-24T13:57:08Z</time>
      </trkpt>
      <trkpt lat="49.21727" lon="-1.42337">
        <ele>28</ele>
        <time>2022-05-24T13:57:11Z</time>
      </trkpt>
      <trkpt lat="49.21727" lon="-1.42346">
        <ele>27.9</ele>
        <time>2022-05-24T13:57:16Z</time>
      </trkpt>
      <trkpt lat="49.21727" lon="-1.42354">
        <ele>27.1</ele>
        <time>2022-05-24T13:57:20Z</time>
      </trkpt>
      <trkpt lat="49.21727" lon="-1.42362">
        <ele>26.8</ele>
        <time>2022-05-24T13:57:23Z</time>
      </trkpt>
      <trkpt lat="49.21726" lon="-1.42368">
        <ele>27</ele>
        <time>2022-05-24T13:57:26Z</time>
      </trkpt>
      <trkpt lat="49.21727" lon="-1.42377">
        <ele>27</ele>
        <time>2022-05-24T13:57:30Z</time>
      </trkpt>
      <trkpt lat="49.21727" lon="-1.42385">
        <ele>27.2</ele>
        <time>2022-05-24T13:57:34Z</time>
      </trkpt>
      <trkpt lat="49.21727" lon="-1.42392">
        <ele>27.4</ele>
        <time>2022-05-24T13:57:37Z</time>
      </trkpt>
      <trkpt lat="49.21728" lon="-1.424">
        <ele>27.7</ele>
        <time>2022-05-24T13:57:41Z</time>
      </trkpt>
      <trkpt lat="49.21725" lon="-1.42406">
        <ele>26.8</ele>
        <time>2022-05-24T13:57:44Z</time>
      </trkpt>
      <trkpt lat="49.21725" lon="-1.42413">
        <ele>27</ele>
        <time>2022-05-24T13:57:49Z</time>
      </trkpt>
      <trkpt lat="49.21725" lon="-1.42421">
        <ele>27.4</ele>
        <time>2022-05-24T13:57:53Z</time>
      </trkpt>
      <trkpt lat="49.21726" lon="-1.42429">
        <ele>27.9</ele>
        <time>2022-05-24T13:57:56Z</time>
      </trkpt>
      <trkpt lat="49.21725" lon="-1.42438">
        <ele>28.4</ele>
        <time>2022-05-24T13:58:00Z</time>
      </trkpt>
      <trkpt lat="49.21725" lon="-1.42445">
        <ele>28.9</ele>
        <time>2022-05-24T13:58:05Z</time>
      </trkpt>
      <trkpt lat="49.21725" lon="-1.42454">
        <ele>28.8</ele>
        <time>2022-05-24T13:58:10Z</time>
      </trkpt>
      <trkpt lat="49.21725" lon="-1.42462">
        <ele>28.9</ele>
        <time>2022-05-24T13:58:14Z</time>
      </trkpt>
      <trkpt lat="49.21724" lon="-1.4247">
        <ele>29.3</ele>
        <time>2022-05-24T13:58:26Z</time>
      </trkpt>
      <trkpt lat="49.21723" lon="-1.42477">
        <ele>29.1</ele>
        <time>2022-05-24T13:58:31Z</time>
      </trkpt>
      <trkpt lat="49.21723" lon="-1.42485">
        <ele>28.7</ele>
        <time>2022-05-24T13:58:39Z</time>
      </trkpt>
      <trkpt lat="49.21722" lon="-1.42493">
        <ele>28.7</ele>
        <time>2022-05-24T13:58:44Z</time>
      </trkpt>
      <trkpt lat="49.21722" lon="-1.425">
        <ele>28.8</ele>
        <time>2022-05-24T13:58:51Z</time>
      </trkpt>
      <trkpt lat="49.21722" lon="-1.42512">
        <ele>28.3</ele>
        <time>2022-05-24T13:58:56Z</time>
      </trkpt>
      <trkpt lat="49.21721" lon="-1.42519">
        <ele>28.7</ele>
        <time>2022-05-24T13:59:05Z</time>
      </trkpt>
      <trkpt lat="49.21721" lon="-1.42527">
        <ele>28.5</ele>
        <time>2022-05-24T13:59:19Z</time>
      </trkpt>
      <trkpt lat="49.2172" lon="-1.42535">
        <ele>28.9</ele>
        <time>2022-05-24T13:59:25Z</time>
      </trkpt>
      <trkpt lat="49.21718" lon="-1.42541">
        <ele>28.8</ele>
        <time>2022-05-24T13:59:39Z</time>
      </trkpt>
      <trkpt lat="49.21718" lon="-1.42549">
        <ele>28</ele>
        <time>2022-05-24T13:59:52Z</time>
      </trkpt>
      <trkpt lat="49.21717" lon="-1.42556">
        <ele>27.9</ele>
        <time>2022-05-24T13:59:55Z</time>
      </trkpt>
      <trkpt lat="49.21715" lon="-1.42563">
        <ele>27.7</ele>
        <time>2022-05-24T13:59:57Z</time>
      </trkpt>
      <trkpt lat="49.21714" lon="-1.4257">
        <ele>27.3</ele>
        <time>2022-05-24T14:00:01Z</time>
      </trkpt>
      <trkpt lat="49.21713" lon="-1.42577">
        <ele>26.3</ele>
        <time>2022-05-24T14:00:11Z</time>
      </trkpt>
      <trkpt lat="49.21712" lon="-1.42584">
        <ele>26.3</ele>
        <time>2022-05-24T14:00:15Z</time>
      </trkpt>
      <trkpt lat="49.2171" lon="-1.42591">
        <ele>26.2</ele>
        <time>2022-05-24T14:00:20Z</time>
      </trkpt>
      <trkpt lat="49.21709" lon="-1.42598">
        <ele>26</ele>
        <time>2022-05-24T14:00:27Z</time>
      </trkpt>
      <trkpt lat="49.21705" lon="-1.42606">
        <ele>25.2</ele>
        <time>2022-05-24T14:00:42Z</time>
      </trkpt>
      <trkpt lat="49.21705" lon="-1.42613">
        <ele>24.7</ele>
        <time>2022-05-24T14:00:46Z</time>
      </trkpt>
      <trkpt lat="49.21703" lon="-1.42622">
        <ele>25.8</ele>
        <time>2022-05-24T14:00:51Z</time>
      </trkpt>
      <trkpt lat="49.21698" lon="-1.42625">
        <ele>24</ele>
        <time>2022-05-24T14:01:06Z</time>
      </trkpt>
      <trkpt lat="49.21692" lon="-1.42624">
        <ele>24</ele>
        <time>2022-05-24T14:01:09Z</time>
      </trkpt>
      <trkpt lat="49.21687" lon="-1.42624">
        <ele>24.4</ele>
        <time>2022-05-24T14:01:12Z</time>
      </trkpt>
      <trkpt lat="49.21683" lon="-1.42621">
        <ele>22.4</ele>
        <time>2022-05-24T14:01:23Z</time>
      </trkpt>
      <trkpt lat="49.21677" lon="-1.42621">
        <ele>22.1</ele>
        <time>2022-05-24T14:01:27Z</time>
      </trkpt>
      <trkpt lat="49.2167" lon="-1.42619">
        <ele>21.4</ele>
        <time>2022-05-24T14:01:32Z</time>
      </trkpt>
      <trkpt lat="49.21666" lon="-1.42619">
        <ele>21.4</ele>
        <time>2022-05-24T14:01:37Z</time>
      </trkpt>
      <trkpt lat="49.21662" lon="-1.42624">
        <ele>18.5</ele>
        <time>2022-05-24T14:02:20Z</time>
      </trkpt>
      <trkpt lat="49.21657" lon="-1.42624">
        <ele>18.4</ele>
        <time>2022-05-24T14:02:28Z</time>
      </trkpt>
      <trkpt lat="49.21652" lon="-1.42623">
        <ele>17.7</ele>
        <time>2022-05-24T14:02:35Z</time>
      </trkpt>
      <trkpt lat="49.21647" lon="-1.42622">
        <ele>16.6</ele>
        <time>2022-05-24T14:02:42Z</time>
      </trkpt>
      <trkpt lat="49.2165" lon="-1.42627">
        <ele>16.1</ele>
        <time>2022-05-24T14:02:48Z</time>
      </trkpt>
      <trkpt lat="49.21654" lon="-1.42631">
        <ele>15.5</ele>
        <time>2022-05-24T14:02:53Z</time>
      </trkpt>
      <trkpt lat="49.21658" lon="-1.42635">
        <ele>15.5</ele>
        <time>2022-05-24T14:02:58Z</time>
      </trkpt>
      <trkpt lat="49.21662" lon="-1.4264">
        <ele>15.3</ele>
        <time>2022-05-24T14:03:04Z</time>
      </trkpt>
      <trkpt lat="49.21665" lon="-1.42645">
        <ele>15.4</ele>
        <time>2022-05-24T14:03:07Z</time>
      </trkpt>
      <trkpt lat="49.21665" lon="-1.42653">
        <ele>15.2</ele>
        <time>2022-05-24T14:03:21Z</time>
      </trkpt>
      <trkpt lat="49.21669" lon="-1.42658">
        <ele>14.9</ele>
        <time>2022-05-24T14:04:11Z</time>
      </trkpt>
      <trkpt lat="49.2167" lon="-1.42667">
        <ele>16.8</ele>
        <time>2022-05-24T14:04:16Z</time>
      </trkpt>
      <trkpt lat="49.21669" lon="-1.42674">
        <ele>16.4</ele>
        <time>2022-05-24T14:04:18Z</time>
      </trkpt>
      <trkpt lat="49.2167" lon="-1.42683">
        <ele>15.3</ele>
        <time>2022-05-24T14:04:33Z</time>
      </trkpt>
      <trkpt lat="49.21672" lon="-1.42691">
        <ele>15.2</ele>
        <time>2022-05-24T14:04:37Z</time>
      </trkpt>
      <trkpt lat="49.21674" lon="-1.42698">
        <ele>14.4</ele>
        <time>2022-05-24T14:04:42Z</time>
      </trkpt>
      <trkpt lat="49.21674" lon="-1.42708">
        <ele>14.4</ele>
        <time>2022-05-24T14:04:48Z</time>
      </trkpt>
      <trkpt lat="49.21675" lon="-1.42715">
        <ele>14.1</ele>
        <time>2022-05-24T14:04:53Z</time>
      </trkpt>
      <trkpt lat="49.21675" lon="-1.42723">
        <ele>12.6</ele>
        <time>2022-05-24T14:05:10Z</time>
      </trkpt>
      <trkpt lat="49.21676" lon="-1.42731">
        <ele>13.2</ele>
        <time>2022-05-24T14:05:15Z</time>
      </trkpt>
      <trkpt lat="49.21676" lon="-1.42741">
        <ele>12.5</ele>
        <time>2022-05-24T14:05:20Z</time>
      </trkpt>
      <trkpt lat="49.21679" lon="-1.42749">
        <ele>12.2</ele>
        <time>2022-05-24T14:05:24Z</time>
      </trkpt>
      <trkpt lat="49.2168" lon="-1.42756">
        <ele>12.4</ele>
        <time>2022-05-24T14:05:28Z</time>
      </trkpt>
      <trkpt lat="49.21681" lon="-1.42764">
        <ele>12.1</ele>
        <time>2022-05-24T14:05:48Z</time>
      </trkpt>
      <trkpt lat="49.21682" lon="-1.42773">
        <ele>12.6</ele>
        <time>2022-05-24T14:05:51Z</time>
      </trkpt>
      <trkpt lat="49.21681" lon="-1.42781">
        <ele>12.6</ele>
        <time>2022-05-24T14:05:56Z</time>
      </trkpt>
      <trkpt lat="49.21677" lon="-1.42787">
        <ele>12.2</ele>
        <time>2022-05-24T14:06:00Z</time>
      </trkpt>
      <trkpt lat="49.21672" lon="-1.42792">
        <ele>12.2</ele>
        <time>2022-05-24T14:06:05Z</time>
      </trkpt>
      <trkpt lat="49.21668" lon="-1.428">
        <ele>12.4</ele>
        <time>2022-05-24T14:06:10Z</time>
      </trkpt>
      <trkpt lat="49.21669" lon="-1.42808">
        <ele>11.7</ele>
        <time>2022-05-24T14:06:15Z</time>
      </trkpt>
      <trkpt lat="49.21671" lon="-1.42814">
        <ele>11.9</ele>
        <time>2022-05-24T14:06:19Z</time>
      </trkpt>
      <trkpt lat="49.21671" lon="-1.42822">
        <ele>12.2</ele>
        <time>2022-05-24T14:06:22Z</time>
      </trkpt>
      <trkpt lat="49.2167" lon="-1.4283">
        <ele>12</ele>
        <time>2022-05-24T14:06:25Z</time>
      </trkpt>
      <trkpt lat="49.21668" lon="-1.42838">
        <ele>12.9</ele>
        <time>2022-05-24T14:06:30Z</time>
      </trkpt>
      <trkpt lat="49.21668" lon="-1.42847">
        <ele>12.9</ele>
        <time>2022-05-24T14:06:35Z</time>
      </trkpt>
      <trkpt lat="49.21671" lon="-1.42855">
        <ele>10.3</ele>
        <time>2022-05-24T14:07:16Z</time>
      </trkpt>
      <trkpt lat="49.21672" lon="-1.42864">
        <ele>11.1</ele>
        <time>2022-05-24T14:07:19Z</time>
      </trkpt>
      <trkpt lat="49.21672" lon="-1.42871">
        <ele>11</ele>
        <time>2022-05-24T14:07:23Z</time>
      </trkpt>
      <trkpt lat="49.21673" lon="-1.42879">
        <ele>10.4</ele>
        <time>2022-05-24T14:07:26Z</time>
      </trkpt>
      <trkpt lat="49.21673" lon="-1.42888">
        <ele>11.3</ele>
        <time>2022-05-24T14:07:30Z</time>
      </trkpt>
      <trkpt lat="49.21672" lon="-1.42896">
        <ele>11.5</ele>
        <time>2022-05-24T14:07:34Z</time>
      </trkpt>
      <trkpt lat="49.21672" lon="-1.42904">
        <ele>11.6</ele>
        <time>2022-05-24T14:07:37Z</time>
      </trkpt>
      <trkpt lat="49.21673" lon="-1.42911">
        <ele>11.6</ele>
        <time>2022-05-24T14:07:41Z</time>
      </trkpt>
      <trkpt lat="49.21673" lon="-1.4292">
        <ele>12</ele>
        <time>2022-05-24T14:07:46Z</time>
      </trkpt>
      <trkpt lat="49.21674" lon="-1.42928">
        <ele>11.3</ele>
        <time>2022-05-24T14:07:50Z</time>
      </trkpt>
      <trkpt lat="49.21676" lon="-1.42935">
        <ele>11.6</ele>
        <time>2022-05-24T14:07:53Z</time>
      </trkpt>
      <trkpt lat="49.21678" lon="-1.42942">
        <ele>11.3</ele>
        <time>2022-05-24T14:07:57Z</time>
      </trkpt>
      <trkpt lat="49.21679" lon="-1.42952">
        <ele>11.5</ele>
        <time>2022-05-24T14:08:01Z</time>
      </trkpt>
      <trkpt lat="49.21681" lon="-1.42961">
        <ele>11.1</ele>
        <time>2022-05-24T14:08:06Z</time>
      </trkpt>
      <trkpt lat="49.21683" lon="-1.42968">
        <ele>10.7</ele>
        <time>2022-05-24T14:08:10Z</time>
      </trkpt>
      <trkpt lat="49.21684" lon="-1.42975">
        <ele>10.8</ele>
        <time>2022-05-24T14:08:14Z</time>
      </trkpt>
      <trkpt lat="49.21686" lon="-1.42982">
        <ele>10.6</ele>
        <time>2022-05-24T14:08:17Z</time>
      </trkpt>
      <trkpt lat="49.21687" lon="-1.42991">
        <ele>11.1</ele>
        <time>2022-05-24T14:08:22Z</time>
      </trkpt>
      <trkpt lat="49.21689" lon="-1.42999">
        <ele>11</ele>
        <time>2022-05-24T14:08:26Z</time>
      </trkpt>
      <trkpt lat="49.21693" lon="-1.43007">
        <ele>11.2</ele>
        <time>2022-05-24T14:08:31Z</time>
      </trkpt>
      <trkpt lat="49.21696" lon="-1.43014">
        <ele>11.1</ele>
        <time>2022-05-24T14:08:42Z</time>
      </trkpt>
      <trkpt lat="49.21698" lon="-1.43021">
        <ele>11</ele>
        <time>2022-05-24T14:08:45Z</time>
      </trkpt>
      <trkpt lat="49.21699" lon="-1.43028">
        <ele>11.3</ele>
        <time>2022-05-24T14:08:49Z</time>
      </trkpt>
      <trkpt lat="49.2171" lon="-1.43068">
        <ele>10.9</ele>
        <time>2022-05-24T14:09:10Z</time>
      </trkpt>
      <trkpt lat="49.21714" lon="-1.43088">
        <ele>11.3</ele>
        <time>2022-05-24T14:09:20Z</time>
      </trkpt>
      <trkpt lat="49.21716" lon="-1.43096">
        <ele>11.3</ele>
        <time>2022-05-24T14:09:31Z</time>
      </trkpt>
      <trkpt lat="49.21718" lon="-1.43105">
        <ele>11.1</ele>
        <time>2022-05-24T14:09:34Z</time>
      </trkpt>
      <trkpt lat="49.21718" lon="-1.43112">
        <ele>10.9</ele>
        <time>2022-05-24T14:09:37Z</time>
      </trkpt>
      <trkpt lat="49.2172" lon="-1.4312">
        <ele>11.2</ele>
        <time>2022-05-24T14:09:42Z</time>
      </trkpt>
      <trkpt lat="49.21722" lon="-1.43128">
        <ele>11.5</ele>
        <time>2022-05-24T14:09:46Z</time>
      </trkpt>
      <trkpt lat="49.21722" lon="-1.43136">
        <ele>12</ele>
        <time>2022-05-24T14:09:50Z</time>
      </trkpt>
      <trkpt lat="49.21722" lon="-1.43143">
        <ele>11.9</ele>
        <time>2022-05-24T14:09:53Z</time>
      </trkpt>
      <trkpt lat="49.21723" lon="-1.43151">
        <ele>11.6</ele>
        <time>2022-05-24T14:09:57Z</time>
      </trkpt>
      <trkpt lat="49.21726" lon="-1.43158">
        <ele>11.3</ele>
        <time>2022-05-24T14:10:00Z</time>
      </trkpt>
      <trkpt lat="49.2173" lon="-1.43164">
        <ele>11.4</ele>
        <time>2022-05-24T14:10:05Z</time>
      </trkpt>
      <trkpt lat="49.21733" lon="-1.4317">
        <ele>11.6</ele>
        <time>2022-05-24T14:10:08Z</time>
      </trkpt>
      <trkpt lat="49.21735" lon="-1.43176">
        <ele>11.7</ele>
        <time>2022-05-24T14:10:11Z</time>
      </trkpt>
      <trkpt lat="49.21738" lon="-1.43182">
        <ele>11</ele>
        <time>2022-05-24T14:10:15Z</time>
      </trkpt>
      <trkpt lat="49.21741" lon="-1.43189">
        <ele>11.5</ele>
        <time>2022-05-24T14:10:18Z</time>
      </trkpt>
      <trkpt lat="49.21743" lon="-1.43196">
        <ele>11</ele>
        <time>2022-05-24T14:10:21Z</time>
      </trkpt>
      <trkpt lat="49.21747" lon="-1.432">
        <ele>10.2</ele>
        <time>2022-05-24T14:10:26Z</time>
      </trkpt>
      <trkpt lat="49.21751" lon="-1.43204">
        <ele>10.6</ele>
        <time>2022-05-24T14:10:29Z</time>
      </trkpt>
      <trkpt lat="49.21755" lon="-1.4321">
        <ele>10.9</ele>
        <time>2022-05-24T14:10:33Z</time>
      </trkpt>
      <trkpt lat="49.21757" lon="-1.43216">
        <ele>10.2</ele>
        <time>2022-05-24T14:10:37Z</time>
      </trkpt>
      <trkpt lat="49.21759" lon="-1.43223">
        <ele>10.4</ele>
        <time>2022-05-24T14:10:40Z</time>
      </trkpt>
      <trkpt lat="49.21761" lon="-1.4323">
        <ele>10.9</ele>
        <time>2022-05-24T14:10:44Z</time>
      </trkpt>
      <trkpt lat="49.21764" lon="-1.43238">
        <ele>10.8</ele>
        <time>2022-05-24T14:10:48Z</time>
      </trkpt>
      <trkpt lat="49.21766" lon="-1.43245">
        <ele>10.9</ele>
        <time>2022-05-24T14:10:51Z</time>
      </trkpt>
      <trkpt lat="49.21768" lon="-1.43251">
        <ele>12</ele>
        <time>2022-05-24T14:10:55Z</time>
      </trkpt>
      <trkpt lat="49.21771" lon="-1.43258">
        <ele>11.6</ele>
        <time>2022-05-24T14:10:59Z</time>
      </trkpt>
      <trkpt lat="49.21774" lon="-1.43265">
        <ele>10.9</ele>
        <time>2022-05-24T14:11:04Z</time>
      </trkpt>
      <trkpt lat="49.21778" lon="-1.43271">
        <ele>11.1</ele>
        <time>2022-05-24T14:11:08Z</time>
      </trkpt>
      <trkpt lat="49.21782" lon="-1.43278">
        <ele>11.3</ele>
        <time>2022-05-24T14:11:12Z</time>
      </trkpt>
      <trkpt lat="49.21784" lon="-1.43287">
        <ele>13.3</ele>
        <time>2022-05-24T14:11:17Z</time>
      </trkpt>
      <trkpt lat="49.21785" lon="-1.43294">
        <ele>13.3</ele>
        <time>2022-05-24T14:11:21Z</time>
      </trkpt>
      <trkpt lat="49.21786" lon="-1.43302">
        <ele>13.6</ele>
        <time>2022-05-24T14:11:25Z</time>
      </trkpt>
      <trkpt lat="49.21788" lon="-1.43309">
        <ele>13.3</ele>
        <time>2022-05-24T14:11:29Z</time>
      </trkpt>
      <trkpt lat="49.21791" lon="-1.43316">
        <ele>14.1</ele>
        <time>2022-05-24T14:11:33Z</time>
      </trkpt>
      <trkpt lat="49.21794" lon="-1.43323">
        <ele>13.8</ele>
        <time>2022-05-24T14:11:38Z</time>
      </trkpt>
      <trkpt lat="49.21797" lon="-1.43331">
        <ele>13.6</ele>
        <time>2022-05-24T14:11:43Z</time>
      </trkpt>
      <trkpt lat="49.21799" lon="-1.43339">
        <ele>13.7</ele>
        <time>2022-05-24T14:11:48Z</time>
      </trkpt>
      <trkpt lat="49.21798" lon="-1.43348">
        <ele>13.3</ele>
        <time>2022-05-24T14:11:53Z</time>
      </trkpt>
      <trkpt lat="49.21797" lon="-1.43356">
        <ele>13</ele>
        <time>2022-05-24T14:11:57Z</time>
      </trkpt>
      <trkpt lat="49.218" lon="-1.43363">
        <ele>12</ele>
        <time>2022-05-24T14:12:02Z</time>
      </trkpt>
      <trkpt lat="49.21802" lon="-1.43371">
        <ele>13</ele>
        <time>2022-05-24T14:12:06Z</time>
      </trkpt>
      <trkpt lat="49.21803" lon="-1.43378">
        <ele>12.9</ele>
        <time>2022-05-24T14:12:09Z</time>
      </trkpt>
      <trkpt lat="49.21805" lon="-1.43387">
        <ele>12.9</ele>
        <time>2022-05-24T14:12:13Z</time>
      </trkpt>
      <trkpt lat="49.21807" lon="-1.43394">
        <ele>12.7</ele>
        <time>2022-05-24T14:12:17Z</time>
      </trkpt>
      <trkpt lat="49.21809" lon="-1.43403">
        <ele>12.9</ele>
        <time>2022-05-24T14:12:22Z</time>
      </trkpt>
      <trkpt lat="49.21812" lon="-1.43409">
        <ele>12.1</ele>
        <time>2022-05-24T14:12:26Z</time>
      </trkpt>
      <trkpt lat="49.21813" lon="-1.43416">
        <ele>12.2</ele>
        <time>2022-05-24T14:12:29Z</time>
      </trkpt>
      <trkpt lat="49.21814" lon="-1.43423">
        <ele>12</ele>
        <time>2022-05-24T14:12:33Z</time>
      </trkpt>
      <trkpt lat="49.21814" lon="-1.43431">
        <ele>12</ele>
        <time>2022-05-24T14:12:37Z</time>
      </trkpt>
      <trkpt lat="49.21815" lon="-1.43438">
        <ele>11.8</ele>
        <time>2022-05-24T14:12:41Z</time>
      </trkpt>
      <trkpt lat="49.21817" lon="-1.43444">
        <ele>11.8</ele>
        <time>2022-05-24T14:12:44Z</time>
      </trkpt>
      <trkpt lat="49.21818" lon="-1.43453">
        <ele>11.9</ele>
        <time>2022-05-24T14:12:49Z</time>
      </trkpt>
      <trkpt lat="49.21819" lon="-1.43462">
        <ele>11.9</ele>
        <time>2022-05-24T14:12:54Z</time>
      </trkpt>
      <trkpt lat="49.2182" lon="-1.43471">
        <ele>12.2</ele>
        <time>2022-05-24T14:12:59Z</time>
      </trkpt>
      <trkpt lat="49.2182" lon="-1.43479">
        <ele>12.3</ele>
        <time>2022-05-24T14:13:02Z</time>
      </trkpt>
      <trkpt lat="49.21822" lon="-1.43486">
        <ele>12.6</ele>
        <time>2022-05-24T14:13:06Z</time>
      </trkpt>
      <trkpt lat="49.21824" lon="-1.43493">
        <ele>12.6</ele>
        <time>2022-05-24T14:13:09Z</time>
      </trkpt>
      <trkpt lat="49.21827" lon="-1.43499">
        <ele>12.9</ele>
        <time>2022-05-24T14:13:13Z</time>
      </trkpt>
      <trkpt lat="49.21829" lon="-1.43507">
        <ele>12.9</ele>
        <time>2022-05-24T14:13:17Z</time>
      </trkpt>
      <trkpt lat="49.21831" lon="-1.43515">
        <ele>13</ele>
        <time>2022-05-24T14:13:21Z</time>
      </trkpt>
      <trkpt lat="49.21833" lon="-1.43522">
        <ele>13.1</ele>
        <time>2022-05-24T14:13:25Z</time>
      </trkpt>
      <trkpt lat="49.21836" lon="-1.4353">
        <ele>13.2</ele>
        <time>2022-05-24T14:13:29Z</time>
      </trkpt>
      <trkpt lat="49.21838" lon="-1.43536">
        <ele>13.1</ele>
        <time>2022-05-24T14:13:32Z</time>
      </trkpt>
      <trkpt lat="49.2184" lon="-1.43542">
        <ele>13.3</ele>
        <time>2022-05-24T14:13:36Z</time>
      </trkpt>
      <trkpt lat="49.21842" lon="-1.4355">
        <ele>13.5</ele>
        <time>2022-05-24T14:13:40Z</time>
      </trkpt>
      <trkpt lat="49.21845" lon="-1.43557">
        <ele>13.1</ele>
        <time>2022-05-24T14:13:44Z</time>
      </trkpt>
      <trkpt lat="49.21848" lon="-1.43563">
        <ele>12.8</ele>
        <time>2022-05-24T14:13:48Z</time>
      </trkpt>
      <trkpt lat="49.21848" lon="-1.43572">
        <ele>12.6</ele>
        <time>2022-05-24T14:13:52Z</time>
      </trkpt>
      <trkpt lat="49.21849" lon="-1.4358">
        <ele>12.5</ele>
        <time>2022-05-24T14:13:56Z</time>
      </trkpt>
      <trkpt lat="49.2185" lon="-1.43588">
        <ele>12.2</ele>
        <time>2022-05-24T14:13:59Z</time>
      </trkpt>
      <trkpt lat="49.21851" lon="-1.43596">
        <ele>12.1</ele>
        <time>2022-05-24T14:14:04Z</time>
      </trkpt>
      <trkpt lat="49.21851" lon="-1.43604">
        <ele>12</ele>
        <time>2022-05-24T14:14:08Z</time>
      </trkpt>
      <trkpt lat="49.21849" lon="-1.43613">
        <ele>12</ele>
        <time>2022-05-24T14:14:11Z</time>
      </trkpt>
      <trkpt lat="49.21848" lon="-1.43621">
        <ele>11.9</ele>
        <time>2022-05-24T14:14:16Z</time>
      </trkpt>
      <trkpt lat="49.21849" lon="-1.43629">
        <ele>11.5</ele>
        <time>2022-05-24T14:14:20Z</time>
      </trkpt>
      <trkpt lat="49.2185" lon="-1.43636">
        <ele>11.6</ele>
        <time>2022-05-24T14:14:24Z</time>
      </trkpt>
      <trkpt lat="49.21848" lon="-1.43644">
        <ele>11.8</ele>
        <time>2022-05-24T14:14:27Z</time>
      </trkpt>
      <trkpt lat="49.21848" lon="-1.43653">
        <ele>12.5</ele>
        <time>2022-05-24T14:14:32Z</time>
      </trkpt>
      <trkpt lat="49.2185" lon="-1.43662">
        <ele>12.4</ele>
        <time>2022-05-24T14:14:36Z</time>
      </trkpt>
      <trkpt lat="49.21851" lon="-1.4367">
        <ele>12.4</ele>
        <time>2022-05-24T14:14:40Z</time>
      </trkpt>
      <trkpt lat="49.21855" lon="-1.43677">
        <ele>11.9</ele>
        <time>2022-05-24T14:14:44Z</time>
      </trkpt>
      <trkpt lat="49.21858" lon="-1.43685">
        <ele>11.7</ele>
        <time>2022-05-24T14:14:49Z</time>
      </trkpt>
      <trkpt lat="49.2186" lon="-1.43692">
        <ele>11.1</ele>
        <time>2022-05-24T14:14:52Z</time>
      </trkpt>
      <trkpt lat="49.21862" lon="-1.43699">
        <ele>11.1</ele>
        <time>2022-05-24T14:14:56Z</time>
      </trkpt>
      <trkpt lat="49.21864" lon="-1.43706">
        <ele>11.3</ele>
        <time>2022-05-24T14:15:00Z</time>
      </trkpt>
      <trkpt lat="49.21867" lon="-1.43713">
        <ele>11.2</ele>
        <time>2022-05-24T14:15:04Z</time>
      </trkpt>
      <trkpt lat="49.2187" lon="-1.43721">
        <ele>11.6</ele>
        <time>2022-05-24T14:15:08Z</time>
      </trkpt>
      <trkpt lat="49.21873" lon="-1.43727">
        <ele>11.5</ele>
        <time>2022-05-24T14:15:12Z</time>
      </trkpt>
      <trkpt lat="49.21875" lon="-1.43735">
        <ele>11.7</ele>
        <time>2022-05-24T14:15:17Z</time>
      </trkpt>
      <trkpt lat="49.21878" lon="-1.43741">
        <ele>11</ele>
        <time>2022-05-24T14:15:21Z</time>
      </trkpt>
      <trkpt lat="49.21881" lon="-1.43746">
        <ele>11.4</ele>
        <time>2022-05-24T14:15:24Z</time>
      </trkpt>
      <trkpt lat="49.21885" lon="-1.43755">
        <ele>11.3</ele>
        <time>2022-05-24T14:15:29Z</time>
      </trkpt>
      <trkpt lat="49.21888" lon="-1.43761">
        <ele>11.8</ele>
        <time>2022-05-24T14:15:33Z</time>
      </trkpt>
      <trkpt lat="49.21888" lon="-1.4377">
        <ele>11.5</ele>
        <time>2022-05-24T14:15:36Z</time>
      </trkpt>
      <trkpt lat="49.21888" lon="-1.43778">
        <ele>11.4</ele>
        <time>2022-05-24T14:15:40Z</time>
      </trkpt>
      <trkpt lat="49.21889" lon="-1.43785">
        <ele>11.4</ele>
        <time>2022-05-24T14:15:45Z</time>
      </trkpt>
      <trkpt lat="49.21892" lon="-1.43794">
        <ele>11.6</ele>
        <time>2022-05-24T14:15:51Z</time>
      </trkpt>
      <trkpt lat="49.21893" lon="-1.43801">
        <ele>11.4</ele>
        <time>2022-05-24T14:15:55Z</time>
      </trkpt>
      <trkpt lat="49.21894" lon="-1.4381">
        <ele>11.6</ele>
        <time>2022-05-24T14:15:59Z</time>
      </trkpt>
      <trkpt lat="49.21896" lon="-1.43818">
        <ele>11.6</ele>
        <time>2022-05-24T14:16:04Z</time>
      </trkpt>
      <trkpt lat="49.21899" lon="-1.43826">
        <ele>11.7</ele>
        <time>2022-05-24T14:16:09Z</time>
      </trkpt>
      <trkpt lat="49.219" lon="-1.43833">
        <ele>11.8</ele>
        <time>2022-05-24T14:16:14Z</time>
      </trkpt>
      <trkpt lat="49.21901" lon="-1.43841">
        <ele>11.9</ele>
        <time>2022-05-24T14:16:19Z</time>
      </trkpt>
      <trkpt lat="49.21903" lon="-1.43849">
        <ele>11.9</ele>
        <time>2022-05-24T14:16:24Z</time>
      </trkpt>
      <trkpt lat="49.21904" lon="-1.43857">
        <ele>11.9</ele>
        <time>2022-05-24T14:16:29Z</time>
      </trkpt>
      <trkpt lat="49.21905" lon="-1.43866">
        <ele>11.9</ele>
        <time>2022-05-24T14:16:33Z</time>
      </trkpt>
      <trkpt lat="49.21906" lon="-1.43875">
        <ele>11.7</ele>
        <time>2022-05-24T14:16:38Z</time>
      </trkpt>
      <trkpt lat="49.21908" lon="-1.43882">
        <ele>11.6</ele>
        <time>2022-05-24T14:16:42Z</time>
      </trkpt>
      <trkpt lat="49.2191" lon="-1.43891">
        <ele>11.7</ele>
        <time>2022-05-24T14:16:46Z</time>
      </trkpt>
      <trkpt lat="49.2191" lon="-1.43898">
        <ele>11.5</ele>
        <time>2022-05-24T14:16:50Z</time>
      </trkpt>
      <trkpt lat="49.21912" lon="-1.43908">
        <ele>11.2</ele>
        <time>2022-05-24T14:16:54Z</time>
      </trkpt>
      <trkpt lat="49.21913" lon="-1.43915">
        <ele>11.3</ele>
        <time>2022-05-24T14:16:58Z</time>
      </trkpt>
      <trkpt lat="49.21913" lon="-1.43923">
        <ele>11.2</ele>
        <time>2022-05-24T14:17:04Z</time>
      </trkpt>
      <trkpt lat="49.21913" lon="-1.43932">
        <ele>11.2</ele>
        <time>2022-05-24T14:17:09Z</time>
      </trkpt>
      <trkpt lat="49.21914" lon="-1.43942">
        <ele>11.4</ele>
        <time>2022-05-24T14:17:14Z</time>
      </trkpt>
      <trkpt lat="49.21914" lon="-1.4395">
        <ele>11.5</ele>
        <time>2022-05-24T14:17:19Z</time>
      </trkpt>
      <trkpt lat="49.21913" lon="-1.43958">
        <ele>11.7</ele>
        <time>2022-05-24T14:17:23Z</time>
      </trkpt>
      <trkpt lat="49.21914" lon="-1.43967">
        <ele>11.8</ele>
        <time>2022-05-24T14:17:27Z</time>
      </trkpt>
      <trkpt lat="49.21914" lon="-1.43975">
        <ele>11.5</ele>
        <time>2022-05-24T14:17:31Z</time>
      </trkpt>
      <trkpt lat="49.21914" lon="-1.43983">
        <ele>11.7</ele>
        <time>2022-05-24T14:17:34Z</time>
      </trkpt>
      <trkpt lat="49.21915" lon="-1.43993">
        <ele>11.5</ele>
        <time>2022-05-24T14:17:39Z</time>
      </trkpt>
      <trkpt lat="49.21916" lon="-1.44">
        <ele>11.5</ele>
        <time>2022-05-24T14:17:44Z</time>
      </trkpt>
      <trkpt lat="49.21918" lon="-1.44007">
        <ele>11.4</ele>
        <time>2022-05-24T14:17:47Z</time>
      </trkpt>
      <trkpt lat="49.2192" lon="-1.44014">
        <ele>11.2</ele>
        <time>2022-05-24T14:17:50Z</time>
      </trkpt>
      <trkpt lat="49.21922" lon="-1.44022">
        <ele>11.2</ele>
        <time>2022-05-24T14:17:55Z</time>
      </trkpt>
      <trkpt lat="49.21923" lon="-1.44029">
        <ele>11.2</ele>
        <time>2022-05-24T14:17:59Z</time>
      </trkpt>
      <trkpt lat="49.21926" lon="-1.44036">
        <ele>11</ele>
        <time>2022-05-24T14:18:03Z</time>
      </trkpt>
      <trkpt lat="49.21928" lon="-1.44042">
        <ele>11.1</ele>
        <time>2022-05-24T14:18:06Z</time>
      </trkpt>
      <trkpt lat="49.21932" lon="-1.44047">
        <ele>11.4</ele>
        <time>2022-05-24T14:18:10Z</time>
      </trkpt>
      <trkpt lat="49.21939" lon="-1.44046">
        <ele>11.6</ele>
        <time>2022-05-24T14:18:14Z</time>
      </trkpt>
      <trkpt lat="49.21943" lon="-1.44042">
        <ele>11.3</ele>
        <time>2022-05-24T14:18:19Z</time>
      </trkpt>
      <trkpt lat="49.21947" lon="-1.44039">
        <ele>11.3</ele>
        <time>2022-05-24T14:18:22Z</time>
      </trkpt>
      <trkpt lat="49.21952" lon="-1.44035">
        <ele>11.4</ele>
        <time>2022-05-24T14:18:26Z</time>
      </trkpt>
      <trkpt lat="49.21958" lon="-1.44033">
        <ele>11.5</ele>
        <time>2022-05-24T14:18:30Z</time>
      </trkpt>
      <trkpt lat="49.21963" lon="-1.44033">
        <ele>11.7</ele>
        <time>2022-05-24T14:18:34Z</time>
      </trkpt>
      <trkpt lat="49.21968" lon="-1.44035">
        <ele>11.3</ele>
        <time>2022-05-24T14:18:38Z</time>
      </trkpt>
      <trkpt lat="49.21971" lon="-1.44041">
        <ele>11.6</ele>
        <time>2022-05-24T14:18:41Z</time>
      </trkpt>
      <trkpt lat="49.21974" lon="-1.44047">
        <ele>11.8</ele>
        <time>2022-05-24T14:18:44Z</time>
      </trkpt>
      <trkpt lat="49.21975" lon="-1.44054">
        <ele>11.7</ele>
        <time>2022-05-24T14:18:48Z</time>
      </trkpt>
      <trkpt lat="49.21978" lon="-1.44062">
        <ele>11.9</ele>
        <time>2022-05-24T14:18:54Z</time>
      </trkpt>
      <trkpt lat="49.2198" lon="-1.44068">
        <ele>11.6</ele>
        <time>2022-05-24T14:18:58Z</time>
      </trkpt>
      <trkpt lat="49.21981" lon="-1.44075">
        <ele>11.7</ele>
        <time>2022-05-24T14:19:01Z</time>
      </trkpt>
      <trkpt lat="49.21983" lon="-1.44083">
        <ele>11.9</ele>
        <time>2022-05-24T14:19:05Z</time>
      </trkpt>
      <trkpt lat="49.21986" lon="-1.44089">
        <ele>11.5</ele>
        <time>2022-05-24T14:19:10Z</time>
      </trkpt>
      <trkpt lat="49.21991" lon="-1.44093">
        <ele>11.3</ele>
        <time>2022-05-24T14:19:15Z</time>
      </trkpt>
      <trkpt lat="49.21996" lon="-1.44093">
        <ele>11</ele>
        <time>2022-05-24T14:19:30Z</time>
      </trkpt>
      <trkpt lat="49.22002" lon="-1.4409">
        <ele>11.3</ele>
        <time>2022-05-24T14:19:34Z</time>
      </trkpt>
      <trkpt lat="49.22006" lon="-1.44089">
        <ele>11.4</ele>
        <time>2022-05-24T14:19:37Z</time>
      </trkpt>
      <trkpt lat="49.22011" lon="-1.44086">
        <ele>11.2</ele>
        <time>2022-05-24T14:19:40Z</time>
      </trkpt>
      <trkpt lat="49.22017" lon="-1.44081">
        <ele>11</ele>
        <time>2022-05-24T14:19:44Z</time>
      </trkpt>
      <trkpt lat="49.22021" lon="-1.44078">
        <ele>11.2</ele>
        <time>2022-05-24T14:19:47Z</time>
      </trkpt>
      <trkpt lat="49.22025" lon="-1.44074">
        <ele>11.4</ele>
        <time>2022-05-24T14:19:51Z</time>
      </trkpt>
      <trkpt lat="49.22029" lon="-1.44068">
        <ele>11.7</ele>
        <time>2022-05-24T14:19:54Z</time>
      </trkpt>
      <trkpt lat="49.22032" lon="-1.44062">
        <ele>11.9</ele>
        <time>2022-05-24T14:19:58Z</time>
      </trkpt>
      <trkpt lat="49.22036" lon="-1.44058">
        <ele>12.3</ele>
        <time>2022-05-24T14:20:02Z</time>
      </trkpt>
      <trkpt lat="49.22042" lon="-1.44054">
        <ele>12.4</ele>
        <time>2022-05-24T14:20:06Z</time>
      </trkpt>
      <trkpt lat="49.22046" lon="-1.44055">
        <ele>12.8</ele>
        <time>2022-05-24T14:20:16Z</time>
      </trkpt>
      <trkpt lat="49.2205" lon="-1.44051">
        <ele>13</ele>
        <time>2022-05-24T14:20:20Z</time>
      </trkpt>
      <trkpt lat="49.22054" lon="-1.44042">
        <ele>13.7</ele>
        <time>2022-05-24T14:20:37Z</time>
      </trkpt>
      <trkpt lat="49.22057" lon="-1.44036">
        <ele>13.9</ele>
        <time>2022-05-24T14:20:40Z</time>
      </trkpt>
      <trkpt lat="49.2206" lon="-1.44032">
        <ele>13.8</ele>
        <time>2022-05-24T14:20:44Z</time>
      </trkpt>
      <trkpt lat="49.22065" lon="-1.44029">
        <ele>13.8</ele>
        <time>2022-05-24T14:20:47Z</time>
      </trkpt>
      <trkpt lat="49.22068" lon="-1.44024">
        <ele>13.9</ele>
        <time>2022-05-24T14:20:50Z</time>
      </trkpt>
      <trkpt lat="49.22072" lon="-1.44019">
        <ele>14</ele>
        <time>2022-05-24T14:20:54Z</time>
      </trkpt>
      <trkpt lat="49.22076" lon="-1.44012">
        <ele>14.3</ele>
        <time>2022-05-24T14:20:58Z</time>
      </trkpt>
      <trkpt lat="49.2208" lon="-1.44006">
        <ele>14.4</ele>
        <time>2022-05-24T14:21:02Z</time>
      </trkpt>
      <trkpt lat="49.22084" lon="-1.44001">
        <ele>15.1</ele>
        <time>2022-05-24T14:21:07Z</time>
      </trkpt>
      <trkpt lat="49.22088" lon="-1.43994">
        <ele>15.2</ele>
        <time>2022-05-24T14:21:11Z</time>
      </trkpt>
      <trkpt lat="49.22093" lon="-1.43989">
        <ele>15.3</ele>
        <time>2022-05-24T14:21:16Z</time>
      </trkpt>
      <trkpt lat="49.22098" lon="-1.43986">
        <ele>15.4</ele>
        <time>2022-05-24T14:21:19Z</time>
      </trkpt>
      <trkpt lat="49.22102" lon="-1.43983">
        <ele>15.4</ele>
        <time>2022-05-24T14:21:22Z</time>
      </trkpt>
      <trkpt lat="49.22106" lon="-1.43978">
        <ele>15.9</ele>
        <time>2022-05-24T14:21:26Z</time>
      </trkpt>
      <trkpt lat="49.22109" lon="-1.43973">
        <ele>15.9</ele>
        <time>2022-05-24T14:21:30Z</time>
      </trkpt>
      <trkpt lat="49.22113" lon="-1.43966">
        <ele>16</ele>
        <time>2022-05-24T14:21:33Z</time>
      </trkpt>
      <trkpt lat="49.22117" lon="-1.43961">
        <ele>16.1</ele>
        <time>2022-05-24T14:21:37Z</time>
      </trkpt>
      <trkpt lat="49.2212" lon="-1.43956">
        <ele>16.1</ele>
        <time>2022-05-24T14:21:40Z</time>
      </trkpt>
      <trkpt lat="49.22124" lon="-1.43951">
        <ele>16.1</ele>
        <time>2022-05-24T14:21:43Z</time>
      </trkpt>
      <trkpt lat="49.22127" lon="-1.43946">
        <ele>16.8</ele>
        <time>2022-05-24T14:21:46Z</time>
      </trkpt>
      <trkpt lat="49.22131" lon="-1.4394">
        <ele>17</ele>
        <time>2022-05-24T14:21:50Z</time>
      </trkpt>
      <trkpt lat="49.22135" lon="-1.43934">
        <ele>17.4</ele>
        <time>2022-05-24T14:21:54Z</time>
      </trkpt>
      <trkpt lat="49.22137" lon="-1.43928">
        <ele>17.6</ele>
        <time>2022-05-24T14:21:58Z</time>
      </trkpt>
      <trkpt lat="49.22141" lon="-1.43922">
        <ele>18.1</ele>
        <time>2022-05-24T14:22:02Z</time>
      </trkpt>
      <trkpt lat="49.22145" lon="-1.43916">
        <ele>18.4</ele>
        <time>2022-05-24T14:22:06Z</time>
      </trkpt>
      <trkpt lat="49.22148" lon="-1.43908">
        <ele>18.9</ele>
        <time>2022-05-24T14:22:11Z</time>
      </trkpt>
      <trkpt lat="49.22153" lon="-1.43901">
        <ele>19.4</ele>
        <time>2022-05-24T14:22:15Z</time>
      </trkpt>
      <trkpt lat="49.22156" lon="-1.43896">
        <ele>19.8</ele>
        <time>2022-05-24T14:22:18Z</time>
      </trkpt>
      <trkpt lat="49.2216" lon="-1.43892">
        <ele>20.4</ele>
        <time>2022-05-24T14:22:22Z</time>
      </trkpt>
      <trkpt lat="49.22163" lon="-1.43886">
        <ele>20.4</ele>
        <time>2022-05-24T14:22:26Z</time>
      </trkpt>
      <trkpt lat="49.22167" lon="-1.43879">
        <ele>20</ele>
        <time>2022-05-24T14:22:31Z</time>
      </trkpt>
      <trkpt lat="49.22171" lon="-1.43873">
        <ele>20.7</ele>
        <time>2022-05-24T14:22:35Z</time>
      </trkpt>
      <trkpt lat="49.22175" lon="-1.43869">
        <ele>20.7</ele>
        <time>2022-05-24T14:22:38Z</time>
      </trkpt>
      <trkpt lat="49.2218" lon="-1.43863">
        <ele>20.8</ele>
        <time>2022-05-24T14:22:43Z</time>
      </trkpt>
      <trkpt lat="49.22184" lon="-1.43858">
        <ele>21.6</ele>
        <time>2022-05-24T14:22:47Z</time>
      </trkpt>
      <trkpt lat="49.22187" lon="-1.43853">
        <ele>21.7</ele>
        <time>2022-05-24T14:22:50Z</time>
      </trkpt>
      <trkpt lat="49.22191" lon="-1.43849">
        <ele>23.1</ele>
        <time>2022-05-24T14:22:55Z</time>
      </trkpt>
      <trkpt lat="49.22194" lon="-1.43842">
        <ele>24.9</ele>
        <time>2022-05-24T14:22:59Z</time>
      </trkpt>
      <trkpt lat="49.22199" lon="-1.43837">
        <ele>25.8</ele>
        <time>2022-05-24T14:23:03Z</time>
      </trkpt>
      <trkpt lat="49.22204" lon="-1.43834">
        <ele>26.1</ele>
        <time>2022-05-24T14:23:07Z</time>
      </trkpt>
      <trkpt lat="49.22209" lon="-1.43829">
        <ele>26.2</ele>
        <time>2022-05-24T14:23:11Z</time>
      </trkpt>
      <trkpt lat="49.22214" lon="-1.43824">
        <ele>26.1</ele>
        <time>2022-05-24T14:23:15Z</time>
      </trkpt>
      <trkpt lat="49.22219" lon="-1.43821">
        <ele>25.7</ele>
        <time>2022-05-24T14:23:20Z</time>
      </trkpt>
      <trkpt lat="49.22223" lon="-1.43816">
        <ele>24.8</ele>
        <time>2022-05-24T14:23:24Z</time>
      </trkpt>
      <trkpt lat="49.22227" lon="-1.4381">
        <ele>24.1</ele>
        <time>2022-05-24T14:23:28Z</time>
      </trkpt>
      <trkpt lat="49.22231" lon="-1.43807">
        <ele>24.3</ele>
        <time>2022-05-24T14:23:31Z</time>
      </trkpt>
      <trkpt lat="49.22236" lon="-1.43803">
        <ele>25.6</ele>
        <time>2022-05-24T14:23:36Z</time>
      </trkpt>
      <trkpt lat="49.22241" lon="-1.43806">
        <ele>26.7</ele>
        <time>2022-05-24T14:23:40Z</time>
      </trkpt>
      <trkpt lat="49.22246" lon="-1.43804">
        <ele>29.2</ele>
        <time>2022-05-24T14:23:45Z</time>
      </trkpt>
      <trkpt lat="49.2225" lon="-1.43798">
        <ele>30.4</ele>
        <time>2022-05-24T14:23:48Z</time>
      </trkpt>
      <trkpt lat="49.22254" lon="-1.43794">
        <ele>30.5</ele>
        <time>2022-05-24T14:23:51Z</time>
      </trkpt>
      <trkpt lat="49.22259" lon="-1.43788">
        <ele>30.4</ele>
        <time>2022-05-24T14:23:56Z</time>
      </trkpt>
      <trkpt lat="49.22262" lon="-1.43782">
        <ele>30.2</ele>
        <time>2022-05-24T14:24:00Z</time>
      </trkpt>
      <trkpt lat="49.22265" lon="-1.43777">
        <ele>29.4</ele>
        <time>2022-05-24T14:24:05Z</time>
      </trkpt>
      <trkpt lat="49.22269" lon="-1.4377">
        <ele>29.4</ele>
        <time>2022-05-24T14:24:09Z</time>
      </trkpt>
      <trkpt lat="49.22274" lon="-1.43766">
        <ele>30.2</ele>
        <time>2022-05-24T14:24:12Z</time>
      </trkpt>
      <trkpt lat="49.22278" lon="-1.43762">
        <ele>30.3</ele>
        <time>2022-05-24T14:24:15Z</time>
      </trkpt>
      <trkpt lat="49.22284" lon="-1.43758">
        <ele>30</ele>
        <time>2022-05-24T14:24:20Z</time>
      </trkpt>
      <trkpt lat="49.22284" lon="-1.4375">
        <ele>30</ele>
        <time>2022-05-24T14:24:24Z</time>
      </trkpt>
      <trkpt lat="49.22283" lon="-1.43743">
        <ele>29.6</ele>
        <time>2022-05-24T14:24:29Z</time>
      </trkpt>
      <trkpt lat="49.2228" lon="-1.43735">
        <ele>28.5</ele>
        <time>2022-05-24T14:24:37Z</time>
      </trkpt>
      <trkpt lat="49.22276" lon="-1.43729">
        <ele>29.9</ele>
        <time>2022-05-24T14:24:42Z</time>
      </trkpt>
      <trkpt lat="49.22273" lon="-1.43723">
        <ele>31</ele>
        <time>2022-05-24T14:24:46Z</time>
      </trkpt>
      <trkpt lat="49.2227" lon="-1.43717">
        <ele>30</ele>
        <time>2022-05-24T14:24:53Z</time>
      </trkpt>
      <trkpt lat="49.22268" lon="-1.43709">
        <ele>29.4</ele>
        <time>2022-05-24T14:24:59Z</time>
      </trkpt>
      <trkpt lat="49.22264" lon="-1.43704">
        <ele>29.8</ele>
        <time>2022-05-24T14:25:04Z</time>
      </trkpt>
      <trkpt lat="49.22261" lon="-1.43697">
        <ele>30.9</ele>
        <time>2022-05-24T14:25:08Z</time>
      </trkpt>
      <trkpt lat="49.22258" lon="-1.43691">
        <ele>34.2</ele>
        <time>2022-05-24T14:25:13Z</time>
      </trkpt>
      <trkpt lat="49.22254" lon="-1.43685">
        <ele>34.9</ele>
        <time>2022-05-24T14:25:16Z</time>
      </trkpt>
      <trkpt lat="49.22251" lon="-1.4368">
        <ele>35.6</ele>
        <time>2022-05-24T14:25:20Z</time>
      </trkpt>
      <trkpt lat="49.22248" lon="-1.43673">
        <ele>36.5</ele>
        <time>2022-05-24T14:25:23Z</time>
      </trkpt>
      <trkpt lat="49.22244" lon="-1.43666">
        <ele>37.2</ele>
        <time>2022-05-24T14:25:26Z</time>
      </trkpt>
      <trkpt lat="49.22241" lon="-1.43659">
        <ele>39.1</ele>
        <time>2022-05-24T14:25:31Z</time>
      </trkpt>
      <trkpt lat="49.22238" lon="-1.43653">
        <ele>40</ele>
        <time>2022-05-24T14:25:34Z</time>
      </trkpt>
      <trkpt lat="49.22236" lon="-1.43647">
        <ele>40.4</ele>
        <time>2022-05-24T14:25:39Z</time>
      </trkpt>
      <trkpt lat="49.22235" lon="-1.4364">
        <ele>40.7</ele>
        <time>2022-05-24T14:25:47Z</time>
      </trkpt>
      <trkpt lat="49.22232" lon="-1.43634">
        <ele>41.2</ele>
        <time>2022-05-24T14:25:51Z</time>
      </trkpt>
      <trkpt lat="49.22229" lon="-1.43627">
        <ele>40.8</ele>
        <time>2022-05-24T14:25:54Z</time>
      </trkpt>
      <trkpt lat="49.22226" lon="-1.43622">
        <ele>41.7</ele>
        <time>2022-05-24T14:25:57Z</time>
      </trkpt>
      <trkpt lat="49.22223" lon="-1.43615">
        <ele>41.9</ele>
        <time>2022-05-24T14:26:01Z</time>
      </trkpt>
      <trkpt lat="49.22219" lon="-1.43608">
        <ele>41.9</ele>
        <time>2022-05-24T14:26:04Z</time>
      </trkpt>
      <trkpt lat="49.22216" lon="-1.43603">
        <ele>42.5</ele>
        <time>2022-05-24T14:26:08Z</time>
      </trkpt>
      <trkpt lat="49.22213" lon="-1.43597">
        <ele>41.7</ele>
        <time>2022-05-24T14:26:20Z</time>
      </trkpt>
      <trkpt lat="49.22211" lon="-1.43587">
        <ele>40.3</ele>
        <time>2022-05-24T14:26:27Z</time>
      </trkpt>
      <trkpt lat="49.22207" lon="-1.43583">
        <ele>40</ele>
        <time>2022-05-24T14:26:30Z</time>
      </trkpt>
      <trkpt lat="49.22201" lon="-1.43578">
        <ele>41.8</ele>
        <time>2022-05-24T14:26:34Z</time>
      </trkpt>
      <trkpt lat="49.22198" lon="-1.43572">
        <ele>43.1</ele>
        <time>2022-05-24T14:26:36Z</time>
      </trkpt>
      <trkpt lat="49.22194" lon="-1.43566">
        <ele>43.3</ele>
        <time>2022-05-24T14:26:40Z</time>
      </trkpt>
      <trkpt lat="49.22191" lon="-1.4356">
        <ele>43.1</ele>
        <time>2022-05-24T14:26:43Z</time>
      </trkpt>
      <trkpt lat="49.22188" lon="-1.43551">
        <ele>42.3</ele>
        <time>2022-05-24T14:26:55Z</time>
      </trkpt>
      <trkpt lat="49.22185" lon="-1.43545">
        <ele>42.1</ele>
        <time>2022-05-24T14:26:59Z</time>
      </trkpt>
      <trkpt lat="49.22181" lon="-1.43539">
        <ele>42</ele>
        <time>2022-05-24T14:27:03Z</time>
      </trkpt>
      <trkpt lat="49.22177" lon="-1.43535">
        <ele>43.4</ele>
        <time>2022-05-24T14:27:06Z</time>
      </trkpt>
      <trkpt lat="49.22171" lon="-1.43533">
        <ele>43.8</ele>
        <time>2022-05-24T14:27:14Z</time>
      </trkpt>
      <trkpt lat="49.22169" lon="-1.43526">
        <ele>43.2</ele>
        <time>2022-05-24T14:27:17Z</time>
      </trkpt>
      <trkpt lat="49.22166" lon="-1.43519">
        <ele>43.3</ele>
        <time>2022-05-24T14:27:21Z</time>
      </trkpt>
      <trkpt lat="49.22166" lon="-1.43511">
        <ele>42.7</ele>
        <time>2022-05-24T14:27:24Z</time>
      </trkpt>
      <trkpt lat="49.22166" lon="-1.43504">
        <ele>41.8</ele>
        <time>2022-05-24T14:27:29Z</time>
      </trkpt>
      <trkpt lat="49.22168" lon="-1.43498">
        <ele>41.3</ele>
        <time>2022-05-24T14:27:34Z</time>
      </trkpt>
      <trkpt lat="49.22166" lon="-1.43492">
        <ele>41.2</ele>
        <time>2022-05-24T14:27:38Z</time>
      </trkpt>
      <trkpt lat="49.22161" lon="-1.43486">
        <ele>40.8</ele>
        <time>2022-05-24T14:27:43Z</time>
      </trkpt>
      <trkpt lat="49.22158" lon="-1.4348">
        <ele>40.4</ele>
        <time>2022-05-24T14:27:51Z</time>
      </trkpt>
      <trkpt lat="49.22155" lon="-1.43475">
        <ele>40</ele>
        <time>2022-05-24T14:27:55Z</time>
      </trkpt>
      <trkpt lat="49.22152" lon="-1.4347">
        <ele>39.7</ele>
        <time>2022-05-24T14:28:00Z</time>
      </trkpt>
      <trkpt lat="49.22149" lon="-1.43464">
        <ele>38.6</ele>
        <time>2022-05-24T14:28:25Z</time>
      </trkpt>
      <trkpt lat="49.22147" lon="-1.43457">
        <ele>38.2</ele>
        <time>2022-05-24T14:29:02Z</time>
      </trkpt>
      <trkpt lat="49.22145" lon="-1.43451">
        <ele>37.4</ele>
        <time>2022-05-24T14:29:26Z</time>
      </trkpt>
      <trkpt lat="49.22142" lon="-1.43445">
        <ele>36.4</ele>
        <time>2022-05-24T14:29:39Z</time>
      </trkpt>
      <trkpt lat="49.2214" lon="-1.43439">
        <ele>35.9</ele>
        <time>2022-05-24T14:29:49Z</time>
      </trkpt>
      <trkpt lat="49.22137" lon="-1.43432">
        <ele>36.1</ele>
        <time>2022-05-24T14:29:56Z</time>
      </trkpt>
      <trkpt lat="49.22139" lon="-1.43425">
        <ele>36.4</ele>
        <time>2022-05-24T14:30:06Z</time>
      </trkpt>
      <trkpt lat="49.22139" lon="-1.43417">
        <ele>36.3</ele>
        <time>2022-05-24T14:30:11Z</time>
      </trkpt>
      <trkpt lat="49.22141" lon="-1.43411">
        <ele>35.7</ele>
        <time>2022-05-24T14:30:20Z</time>
      </trkpt>
      <trkpt lat="49.22145" lon="-1.43408">
        <ele>33.9</ele>
        <time>2022-05-24T14:30:39Z</time>
      </trkpt>
      <trkpt lat="49.22151" lon="-1.43407">
        <ele>33.3</ele>
        <time>2022-05-24T14:30:48Z</time>
      </trkpt>
      <trkpt lat="49.22157" lon="-1.43407">
        <ele>32.7</ele>
        <time>2022-05-24T14:30:52Z</time>
      </trkpt>
      <trkpt lat="49.22161" lon="-1.43407">
        <ele>32.2</ele>
        <time>2022-05-24T14:30:54Z</time>
      </trkpt>
      <trkpt lat="49.22166" lon="-1.43409">
        <ele>32</ele>
        <time>2022-05-24T14:30:56Z</time>
      </trkpt>
      <trkpt lat="49.2217" lon="-1.4341">
        <ele>32</ele>
        <time>2022-05-24T14:30:59Z</time>
      </trkpt>
      <trkpt lat="49.22176" lon="-1.43415">
        <ele>31.5</ele>
        <time>2022-05-24T14:31:03Z</time>
      </trkpt>
      <trkpt lat="49.22179" lon="-1.43421">
        <ele>30.7</ele>
        <time>2022-05-24T14:31:09Z</time>
      </trkpt>
      <trkpt lat="49.22183" lon="-1.43424">
        <ele>29.8</ele>
        <time>2022-05-24T14:31:16Z</time>
      </trkpt>
      <trkpt lat="49.22187" lon="-1.43419">
        <ele>29.9</ele>
        <time>2022-05-24T14:31:23Z</time>
      </trkpt>
      <trkpt lat="49.22189" lon="-1.43425">
        <ele>28.8</ele>
        <time>2022-05-24T14:31:36Z</time>
      </trkpt>
      <trkpt lat="49.22193" lon="-1.43429">
        <ele>28.3</ele>
        <time>2022-05-24T14:31:40Z</time>
      </trkpt>
      <trkpt lat="49.22198" lon="-1.43432">
        <ele>28.1</ele>
        <time>2022-05-24T14:31:43Z</time>
      </trkpt>
      <trkpt lat="49.22231" lon="-1.43431">
        <ele>26.3</ele>
        <time>2022-05-24T14:32:01Z</time>
      </trkpt>
      <trkpt lat="49.22236" lon="-1.43431">
        <ele>27.1</ele>
        <time>2022-05-24T14:32:04Z</time>
      </trkpt>
      <trkpt lat="49.22242" lon="-1.43429">
        <ele>28.1</ele>
        <time>2022-05-24T14:32:09Z</time>
      </trkpt>
      <trkpt lat="49.22248" lon="-1.43428">
        <ele>28.4</ele>
        <time>2022-05-24T14:32:13Z</time>
      </trkpt>
      <trkpt lat="49.22266" lon="-1.43429">
        <ele>29.3</ele>
        <time>2022-05-24T14:32:21Z</time>
      </trkpt>
      <trkpt lat="49.22271" lon="-1.43428">
        <ele>29.2</ele>
        <time>2022-05-24T14:32:24Z</time>
      </trkpt>
      <trkpt lat="49.22277" lon="-1.43427">
        <ele>29.9</ele>
        <time>2022-05-24T14:32:30Z</time>
      </trkpt>
      <trkpt lat="49.22281" lon="-1.43429">
        <ele>31.1</ele>
        <time>2022-05-24T14:32:44Z</time>
      </trkpt>
      <trkpt lat="49.22286" lon="-1.43432">
        <ele>30.4</ele>
        <time>2022-05-24T14:32:50Z</time>
      </trkpt>
      <trkpt lat="49.2229" lon="-1.43435">
        <ele>31.7</ele>
        <time>2022-05-24T14:32:55Z</time>
      </trkpt>
      <trkpt lat="49.22296" lon="-1.43435">
        <ele>32.3</ele>
        <time>2022-05-24T14:33:07Z</time>
      </trkpt>
      <trkpt lat="49.22302" lon="-1.43435">
        <ele>32</ele>
        <time>2022-05-24T14:33:10Z</time>
      </trkpt>
      <trkpt lat="49.22306" lon="-1.43433">
        <ele>31.4</ele>
        <time>2022-05-24T14:33:14Z</time>
      </trkpt>
      <trkpt lat="49.22311" lon="-1.43432">
        <ele>30.1</ele>
        <time>2022-05-24T14:33:17Z</time>
      </trkpt>
      <trkpt lat="49.22316" lon="-1.43432">
        <ele>29.9</ele>
        <time>2022-05-24T14:33:20Z</time>
      </trkpt>
      <trkpt lat="49.22323" lon="-1.43429">
        <ele>29.7</ele>
        <time>2022-05-24T14:33:24Z</time>
      </trkpt>
      <trkpt lat="49.22329" lon="-1.43426">
        <ele>29.6</ele>
        <time>2022-05-24T14:33:29Z</time>
      </trkpt>
      <trkpt lat="49.22334" lon="-1.43424">
        <ele>28.4</ele>
        <time>2022-05-24T14:33:32Z</time>
      </trkpt>
      <trkpt lat="49.22339" lon="-1.43424">
        <ele>29.6</ele>
        <time>2022-05-24T14:33:36Z</time>
      </trkpt>
      <trkpt lat="49.22344" lon="-1.43428">
        <ele>29.4</ele>
        <time>2022-05-24T14:33:40Z</time>
      </trkpt>
      <trkpt lat="49.2236" lon="-1.43444">
        <ele>30.3</ele>
        <time>2022-05-24T14:33:53Z</time>
      </trkpt>
      <trkpt lat="49.22364" lon="-1.43446">
        <ele>31</ele>
        <time>2022-05-24T14:33:58Z</time>
      </trkpt>
      <trkpt lat="49.22367" lon="-1.43457">
        <ele>28.7</ele>
        <time>2022-05-24T14:34:07Z</time>
      </trkpt>
      <trkpt lat="49.22369" lon="-1.43464">
        <ele>28.4</ele>
        <time>2022-05-24T14:34:11Z</time>
      </trkpt>
      <trkpt lat="49.2237" lon="-1.43472">
        <ele>30.3</ele>
        <time>2022-05-24T14:34:14Z</time>
      </trkpt>
      <trkpt lat="49.22374" lon="-1.43475">
        <ele>30.8</ele>
        <time>2022-05-24T14:34:19Z</time>
      </trkpt>
      <trkpt lat="49.22378" lon="-1.43481">
        <ele>30.2</ele>
        <time>2022-05-24T14:34:30Z</time>
      </trkpt>
      <trkpt lat="49.22381" lon="-1.43485">
        <ele>30</ele>
        <time>2022-05-24T14:34:33Z</time>
      </trkpt>
      <trkpt lat="49.22385" lon="-1.43491">
        <ele>29.7</ele>
        <time>2022-05-24T14:34:36Z</time>
      </trkpt>
      <trkpt lat="49.22399" lon="-1.43516">
        <ele>30.4</ele>
        <time>2022-05-24T14:34:50Z</time>
      </trkpt>
      <trkpt lat="49.22403" lon="-1.43519">
        <ele>33.9</ele>
        <time>2022-05-24T14:34:56Z</time>
      </trkpt>
      <trkpt lat="49.22404" lon="-1.43527">
        <ele>34.4</ele>
        <time>2022-05-24T14:35:13Z</time>
      </trkpt>
      <trkpt lat="49.22408" lon="-1.43534">
        <ele>34.5</ele>
        <time>2022-05-24T14:35:17Z</time>
      </trkpt>
      <trkpt lat="49.22411" lon="-1.43541">
        <ele>34.7</ele>
        <time>2022-05-24T14:35:21Z</time>
      </trkpt>
      <trkpt lat="49.22411" lon="-1.43548">
        <ele>34</ele>
        <time>2022-05-24T14:35:26Z</time>
      </trkpt>
      <trkpt lat="49.22415" lon="-1.43553">
        <ele>34.3</ele>
        <time>2022-05-24T14:35:29Z</time>
      </trkpt>
      <trkpt lat="49.2242" lon="-1.43554">
        <ele>34.5</ele>
        <time>2022-05-24T14:35:33Z</time>
      </trkpt>
      <trkpt lat="49.22424" lon="-1.4355">
        <ele>33.8</ele>
        <time>2022-05-24T14:35:52Z</time>
      </trkpt>
      <trkpt lat="49.22441" lon="-1.43539">
        <ele>33.2</ele>
        <time>2022-05-24T14:36:02Z</time>
      </trkpt>
      <trkpt lat="49.22468" lon="-1.43525">
        <ele>34.8</ele>
        <time>2022-05-24T14:36:15Z</time>
      </trkpt>
      <trkpt lat="49.22473" lon="-1.43521">
        <ele>34.7</ele>
        <time>2022-05-24T14:36:18Z</time>
      </trkpt>
      <trkpt lat="49.22478" lon="-1.43519">
        <ele>34.1</ele>
        <time>2022-05-24T14:36:23Z</time>
      </trkpt>
      <trkpt lat="49.22482" lon="-1.43515">
        <ele>34.4</ele>
        <time>2022-05-24T14:36:26Z</time>
      </trkpt>
      <trkpt lat="49.22487" lon="-1.43512">
        <ele>34.5</ele>
        <time>2022-05-24T14:36:29Z</time>
      </trkpt>
      <trkpt lat="49.22498" lon="-1.4351">
        <ele>35.1</ele>
        <time>2022-05-24T14:36:36Z</time>
      </trkpt>
      <trkpt lat="49.22502" lon="-1.43509">
        <ele>34.9</ele>
        <time>2022-05-24T14:36:39Z</time>
      </trkpt>
      <trkpt lat="49.22507" lon="-1.43506">
        <ele>33.1</ele>
        <time>2022-05-24T14:36:43Z</time>
      </trkpt>
      <trkpt lat="49.2251" lon="-1.43498">
        <ele>32.1</ele>
        <time>2022-05-24T14:36:47Z</time>
      </trkpt>
      <trkpt lat="49.22513" lon="-1.43493">
        <ele>31.2</ele>
        <time>2022-05-24T14:36:51Z</time>
      </trkpt>
      <trkpt lat="49.22517" lon="-1.43486">
        <ele>30.7</ele>
        <time>2022-05-24T14:36:55Z</time>
      </trkpt>
      <trkpt lat="49.22519" lon="-1.43479">
        <ele>31.1</ele>
        <time>2022-05-24T14:36:58Z</time>
      </trkpt>
      <trkpt lat="49.22522" lon="-1.43473">
        <ele>31.9</ele>
        <time>2022-05-24T14:37:03Z</time>
      </trkpt>
      <trkpt lat="49.22526" lon="-1.43466">
        <ele>32.2</ele>
        <time>2022-05-24T14:37:06Z</time>
      </trkpt>
      <trkpt lat="49.22528" lon="-1.4346">
        <ele>33.4</ele>
        <time>2022-05-24T14:37:10Z</time>
      </trkpt>
      <trkpt lat="49.22531" lon="-1.43454">
        <ele>35.6</ele>
        <time>2022-05-24T14:37:21Z</time>
      </trkpt>
      <trkpt lat="49.22534" lon="-1.43446">
        <ele>35.7</ele>
        <time>2022-05-24T14:37:27Z</time>
      </trkpt>
      <trkpt lat="49.22539" lon="-1.4344">
        <ele>36.1</ele>
        <time>2022-05-24T14:37:32Z</time>
      </trkpt>
      <trkpt lat="49.22543" lon="-1.43435">
        <ele>36.7</ele>
        <time>2022-05-24T14:37:34Z</time>
      </trkpt>
      <trkpt lat="49.22549" lon="-1.4343">
        <ele>37.3</ele>
        <time>2022-05-24T14:37:37Z</time>
      </trkpt>
      <trkpt lat="49.22552" lon="-1.43423">
        <ele>37.1</ele>
        <time>2022-05-24T14:37:42Z</time>
      </trkpt>
      <trkpt lat="49.22557" lon="-1.43416">
        <ele>35.9</ele>
        <time>2022-05-24T14:37:45Z</time>
      </trkpt>
      <trkpt lat="49.2257" lon="-1.43397">
        <ele>35.8</ele>
        <time>2022-05-24T14:37:57Z</time>
      </trkpt>
      <trkpt lat="49.22573" lon="-1.43392">
        <ele>35.1</ele>
        <time>2022-05-24T14:38:00Z</time>
      </trkpt>
      <trkpt lat="49.22577" lon="-1.43385">
        <ele>35.1</ele>
        <time>2022-05-24T14:38:03Z</time>
      </trkpt>
      <trkpt lat="49.22579" lon="-1.43379">
        <ele>35</ele>
        <time>2022-05-24T14:38:07Z</time>
      </trkpt>
      <trkpt lat="49.22583" lon="-1.43372">
        <ele>35.3</ele>
        <time>2022-05-24T14:38:11Z</time>
      </trkpt>
      <trkpt lat="49.22587" lon="-1.43367">
        <ele>35.4</ele>
        <time>2022-05-24T14:38:15Z</time>
      </trkpt>
      <trkpt lat="49.22591" lon="-1.43361">
        <ele>34.6</ele>
        <time>2022-05-24T14:38:19Z</time>
      </trkpt>
      <trkpt lat="49.22595" lon="-1.43354">
        <ele>34.7</ele>
        <time>2022-05-24T14:38:25Z</time>
      </trkpt>
      <trkpt lat="49.22599" lon="-1.43349">
        <ele>35.5</ele>
        <time>2022-05-24T14:38:29Z</time>
      </trkpt>
      <trkpt lat="49.22604" lon="-1.43347">
        <ele>36.9</ele>
        <time>2022-05-24T14:38:35Z</time>
      </trkpt>
      <trkpt lat="49.22607" lon="-1.43343">
        <ele>37.1</ele>
        <time>2022-05-24T14:38:40Z</time>
      </trkpt>
      <trkpt lat="49.2261" lon="-1.43348">
        <ele>38.8</ele>
        <time>2022-05-24T14:38:53Z</time>
      </trkpt>
      <trkpt lat="49.22615" lon="-1.43352">
        <ele>38.5</ele>
        <time>2022-05-24T14:38:56Z</time>
      </trkpt>
      <trkpt lat="49.22619" lon="-1.43355">
        <ele>38.1</ele>
        <time>2022-05-24T14:38:59Z</time>
      </trkpt>
      <trkpt lat="49.22624" lon="-1.43358">
        <ele>38.1</ele>
        <time>2022-05-24T14:39:03Z</time>
      </trkpt>
      <trkpt lat="49.2263" lon="-1.4336">
        <ele>37.6</ele>
        <time>2022-05-24T14:39:07Z</time>
      </trkpt>
      <trkpt lat="49.22636" lon="-1.43361">
        <ele>38.7</ele>
        <time>2022-05-24T14:39:10Z</time>
      </trkpt>
      <trkpt lat="49.22641" lon="-1.43362">
        <ele>38.1</ele>
        <time>2022-05-24T14:39:14Z</time>
      </trkpt>
      <trkpt lat="49.22646" lon="-1.43361">
        <ele>38.2</ele>
        <time>2022-05-24T14:39:18Z</time>
      </trkpt>
      <trkpt lat="49.22651" lon="-1.43358">
        <ele>37.5</ele>
        <time>2022-05-24T14:39:24Z</time>
      </trkpt>
      <trkpt lat="49.22691" lon="-1.43327">
        <ele>33.4</ele>
        <time>2022-05-24T14:39:53Z</time>
      </trkpt>
      <trkpt lat="49.22695" lon="-1.43326">
        <ele>34.2</ele>
        <time>2022-05-24T14:39:58Z</time>
      </trkpt>
      <trkpt lat="49.22701" lon="-1.43327">
        <ele>35.3</ele>
        <time>2022-05-24T14:40:03Z</time>
      </trkpt>
      <trkpt lat="49.22706" lon="-1.43324">
        <ele>35</ele>
        <time>2022-05-24T14:40:07Z</time>
      </trkpt>
      <trkpt lat="49.2271" lon="-1.43319">
        <ele>33.9</ele>
        <time>2022-05-24T14:40:12Z</time>
      </trkpt>
      <trkpt lat="49.22716" lon="-1.43316">
        <ele>33.6</ele>
        <time>2022-05-24T14:40:16Z</time>
      </trkpt>
      <trkpt lat="49.22721" lon="-1.43313">
        <ele>33.5</ele>
        <time>2022-05-24T14:40:20Z</time>
      </trkpt>
      <trkpt lat="49.22726" lon="-1.43314">
        <ele>32.8</ele>
        <time>2022-05-24T14:40:25Z</time>
      </trkpt>
      <trkpt lat="49.22731" lon="-1.43315">
        <ele>32.2</ele>
        <time>2022-05-24T14:40:33Z</time>
      </trkpt>
      <trkpt lat="49.22736" lon="-1.43316">
        <ele>31.6</ele>
        <time>2022-05-24T14:40:39Z</time>
      </trkpt>
      <trkpt lat="49.2274" lon="-1.4332">
        <ele>30.8</ele>
        <time>2022-05-24T14:40:45Z</time>
      </trkpt>
      <trkpt lat="49.22742" lon="-1.43326">
        <ele>31.1</ele>
        <time>2022-05-24T14:40:49Z</time>
      </trkpt>
      <trkpt lat="49.22747" lon="-1.43329">
        <ele>32.4</ele>
        <time>2022-05-24T14:41:16Z</time>
      </trkpt>
      <trkpt lat="49.22752" lon="-1.43327">
        <ele>35.3</ele>
        <time>2022-05-24T14:41:34Z</time>
      </trkpt>
    </trkseg>
  </trk>
</gpx>